     2              OBSERVATION DATA    GPS                 RINEX VERSION / TYPE
teqc 1998Mar9 19980907 20:16:20UTC                          PGM / RUN BY / DATE
                                                            COMMENT
BIT 2 OF LLI FLAGS DATA COLLECTED UNDER A-S CONDITION       COMMENT
BIT 2 OF LLI FLAGS DATA COLLECTED UNDER A-S CONDITION       COMMENT
Original Marker Name: SANTA PAULA PEAK                      COMMENT
Campaign Name: Ventura Basin 1992                           COMMENT
4-Character Station Name: SNP2                              COMMENT
6-Character Antenna Code: TRMSST                            COMMENT
Vertical Measurement Point: BGP                             COMMENT
Vertical Offset to Rinex Ref. Point: 0.0597                 COMMENT
Radial Measurement Point: NGP                               COMMENT
Radial Offset to Rinex Ref. Point: 0.2334                   COMMENT
Antenna Height from Field Measurement: 1.1940 m             COMMENT
Original XYZ: -2554269.4664 -4606195.9605 3587676.7633      COMMENT
New XYZ position is based on association with SCEC monument COMMENT
E1E9H8I7+0011. Position of that monument is believed to be  COMMENT
valid to within 1 m horizontally; vertical accuracy         COMMENT
should be no worse than 3-times this value.                 COMMENT
                                                            COMMENT
Revised Rinex header created by UCSD GPS archive for        COMMENT
GSAC on 14-Apr-1999 (1999:104) 04:01:53 GMT                 COMMENT
For assistance contact dagnew@ucsd.edu or hjohnson@ucsd.edu COMMENT
                                                            COMMENT
SANTA PAULA PEAK                                            MARKER NAME
UNKNOWN OBSERVER MIT                                        OBSERVER / AGENCY
428 TRIMBLE 4000 SST NP 4.64 / SP 4.20                      REC # / TYPE / VERS
S/N UNKNOWN TR 4000SST L1/L2 GEO                            ANT # / TYPE
 -2554271.0000 -4606197.0000  3587672.0000                  APPROX POSITION XYZ
        1.1113        0.0000        0.0000                  ANTENNA: DELTA H/E/N
     1     1     0                                          WAVELENGTH FACT L1/2
     3    C1    L1    L2                                    # / TYPES OF OBSERV
     0                                                      INTERVAL
  1992     5    27    16    50   30.000000                  TIME OF FIRST OBS
  1992     5    28    11    19   60.000000                  TIME OF LAST OBS
                                                            END OF HEADER
 92  5 27 16 50 30.0000000  0  6G18G 2G11G16G19G28
  20672166.1174         -0.61958
  23330738.7974         -0.56256
  23756236.8204         -0.79156
  24194505.508          -0.10515
  20979010.0474         -0.26856
  23862683.7424         -0.71256
 92  5 27 16 51  0.0000000  0  6G18G 2G11G16G19G28
  20674354.0864      11494.11948
  23310637.258     -105639.111 6
  23741746.625      -76140.652 6
  24181328.023      -69247.538 5        -0.24131
  20974223.992      -25155.878 6        -0.31932
  23864843.9924      11360.38146
 92  5 27 16 51 30.0000000  0  6G18G 2G11G16G19G28
  20676621.1724      23406.77648
  23290568.555     -211103.476 6        -0.48131
  23727329.898     -151902.458 6        -0.38631
  24168236.4614    -138053.44545    -53615.24661
  20969463.055      -50177.606 6    -19497.79222
  23867096.8524      23194.44446
 92  5 27 16 52  0.0000000  0  6G18G 2G11G16G19G28
  20678965.578       35724.232 8
  23270533.4454    -316385.07546    -82038.06661
  23712984.242     -227290.991 6    -58744.65421
  24155226.250     -206419.825 5   -106887.77821
  20964725.336      -75072.110 6    -38896.12722
  23869432.8754      35490.61946
 92  5 27 16 52 30.0000000  0  6G18G 2G11G16G19G28
  20681388.3134      48459.50948
  23250535.242     -421477.250 6   -163928.04121
  23698710.570     -302299.998 6   -117193.20021
  24142300.914     -274340.338 5   -159812.88021
  20960015.789      -99827.043 6    -58185.70522
  23871863.3754      48243.07046
 92  5 27 16 53  0.0000000  0  6G18G 2G11G16G19G28
  20683888.953       61597.538 8
  23230573.7194    -526379.01146   -245669.65761
  23684509.992     -376924.163 6   -175341.86321
  24129458.6484    -341832.43645   -212404.15961
  20955331.7114    -124435.28746    -77360.98462
  23874376.9614      61447.25446
 92  5 27 16 53 30.0000000  0  6G18G 2G11G16G19G28
  20686466.789       75148.465 8
  23210647.906     -631085.360 6   -327258.99621
  23670383.031     -451155.152 6   -233184.15921
  24116695.703     -408900.402 5   -264664.93821
  20950676.969     -148895.091 6    -96420.60022
  23876972.5634      75081.15446
 92  5 27 16 54  0.0000000  0  6G18G 2G11G16G19G28
  20689127.3754      89129.07548
  23190761.1024    -735600.25546   -408699.15961
  23656334.359     -524995.256 6   -290721.86521
  24104016.180     -475533.801 5   -316587.11521
  20946050.094     -173216.285 6   -115372.20422
  23879647.3054      89139.69546
 92  5 27 16 54 30.0000000  0  6G18G 2G11G16G19G28
  20691871.695      103548.517 8
  23170907.438     -839925.884 6   -489991.83221
  23642356.492     -598437.288 6   -347949.38521
  24091418.2034    -541729.85345   -368168.50561
  20941446.719     -197404.746 6   -134220.38822
  23882407.7274     103642.15646
 92  5 27 16 55  0.0000000  0  6G18G 2G11G16G19G28
  20694695.8984     118387.51948
  23151089.1724    -944067.30446   -571140.97361
  23628458.250     -671478.892 6   -404864.88921
  24078907.3444    -607484.24645   -419405.75361
  20936868.438     -221470.495 6   -152972.93822
  23885254.4844     118608.34146
 92  5 27 16 55 30.0000000  0  6G18G 2G11G16G19G28
  20697599.5704     133649.09948        -0.48773
  23131308.9384   -1048021.86346   -652144.52061
  23614635.367     -744117.187 6   -461466.12121
  24066481.5784    -672774.19145   -470281.09961
  20932309.6644    -245427.91646   -171641.08362
  23888194.4454     134059.33146        -0.44471
 92  5 27 16 56  0.0000000  0  6G18G 2G11G16G19G28
  20700581.6254     149314.20548     12206.03163
  23111564.4384   -1151777.21046   -732992.83661
  23600889.148     -816351.947 6   -517752.91521
  24054145.9064    -737596.70345   -520792.23061
  20927768.172     -269283.780 6   -190230.09822
  23891228.0634     150017.52946     12434.45361
 92  5 27 16 56 30.0000000  0  6G18G 2G11G16G19G28
  20703636.5554     165369.38248     24716.50163
  23091855.9844   -1255345.78446   -813695.61461
  23587220.898     -888183.781 6   -573725.73521
  24041898.6484    -801964.18045   -570948.76561
  20923247.438     -293036.922 6   -208739.06822
  23894358.4144     166467.23046     25252.33361
 92  5 27 16 57  0.0000000  0  6G18G 2G11G16G19G28
  20706769.828      181832.919 8     37545.17923
  23072183.8834   -1358718.86346   -894246.05561
  23573629.633     -959607.885 6   -629380.83721
  24029738.0784    -865868.19645   -620744.17861
  20918749.508     -316671.216 6   -227155.42322
  23897583.6094     183392.29046     38440.60761
 92  5 27 16 57 30.0000000  0  6G18G 2G11G16G19G28
  20709984.797      198726.443 8     50708.91723
  23052550.3914   -1461899.88546   -974646.84161
  23560114.1254   -1030628.74046   -684721.72561
  24017664.859     -929316.101 5   -670184.19721
  20914275.297     -340187.664 6   -245479.95922
  23900886.141      200759.925 6     51973.74621
 92  5 27 16 58  0.0000000  0  6G18G 2G11G16G19G28
  20713284.6484     216067.40648     64221.29663
  23032950.8284   -1564892.40846  -1054900.74161
  23546677.422    -1101237.353 6   -739741.39521
  24005675.570     -992310.292 5   -719270.67621
  20909827.523     -363566.279 6   -263697.09422
  23904267.9304     218550.58246     65836.51561
 92  5 27 16 58 30.0000000  0  6G18G 2G11G16G19G28
  20716671.6804     233871.45748     78094.52463
  23013388.7344   -1667695.27646  -1135006.86461
  23533320.859    -1171428.999 6   -794436.14921
  23993776.9844   -1054851.97945   -768004.52661
  20905408.672     -386791.366 6   -281794.59322
  23907734.7814     236752.04046     80019.40961
 92  5 27 16 59  0.0000000  0  6G18G 2G11G16G19G28
  20720145.8834     252128.10848     92320.42963
  22993863.1254   -1770301.32646  -1214959.61161
  23520041.094    -1241210.751 6   -848811.50921
  23981958.4844   -1116951.18445   -816393.60561
  20901013.625     -409885.761 6   -299790.25322
  23911281.9774     255373.67346     94529.69961
 92  5 27 16 59 30.0000000  0  6G18G 2G11G16G19G28
  20723706.4454     270834.48648    106896.76963
  22974378.063    -1872700.382 6  -1294751.06021
  23506845.0084   -1310562.23146   -902851.59561
  23970230.8834   -1178588.25745   -864422.57461
  20896643.5474    -432846.01646   -317681.38762
  23914906.7424     274444.39145    109389.93061
 92  5 27 17  0  0.0000000  0  6G18G 2G11G16G19G28
  20727345.3984     289957.36848    121797.64763
  22954929.641    -1974899.586 6  -1374386.77521
  23493728.047    -1379491.352 6   -956562.57221
  23958586.9224   -1239773.52645   -912099.46961
  20892298.563     -455683.915 6   -335477.17822
  23918618.7664     293966.59245    124601.96761
 92  5 27 17  0 30.0000000  0  6G18G 2G11G16G19G28
  20731060.6094     309482.83548    137012.22463
  22935518.320    -2076903.220 6  -1453870.09821
  23480690.8524   -1447995.14346  -1009942.12761
  23947032.8984   -1300500.92745   -959419.59961
  20887972.406     -478412.194 6   -353187.54422
  23922429.070      313957.230 5    140179.00621
 92  5 27 17  1  0.0000000  0  6G18G 2G11G16G19G28
  20734851.5004     329407.64248    152537.98063
  22916145.805    -2178716.682 6  -1533205.23621
  23467736.6174   -1516070.88646  -1062988.13561
  23935563.2114   -1360760.77945  -1006375.39961
  20883667.352     -501041.237 6   -370820.58922
  23926322.758      334420.495 5    156124.33421
 92  5 27 17  1 30.0000000  0  6G18G 2G11G16G19G28
  20738720.1954     349729.45248    168373.08563
  22896804.508    -2280351.744 6  -1612401.35621
  23454864.7194   -1583717.39046  -1115699.67761
  23924184.5704   -1420559.39645  -1052971.78261
  20879382.766     -523558.027 6   -388366.16322
  23930299.9384     355342.19845    172426.87261
 92  5 27 17  2  0.0000000  0  6G18G 2G11G16G19G28
  20742661.5394     370448.07248    184517.39163
  22877497.258    -2381811.815 6  -1691461.12921
  23442071.8754   -1650941.64846  -1168082.21561
  23912890.1724   -1479914.99045  -1099222.96061
  20875121.0944    -545955.48046   -405818.74962
  23934372.2034     376712.25045    189078.79161
 92  5 27 17  2 30.0000000  0  6G18G 2G11G16G19G28
  20746686.9774     391596.26048    200996.42863
  22858226.6484   -2483083.44246  -1770374.05761
  23429363.5084   -1717728.61246  -1220123.99961
  23901680.9304   -1538809.17145  -1145114.59561
  20870885.531     -568213.239 6   -423162.48522
  23938521.5004     398545.35845    206091.53461
 92  5 27 17  3  0.0000000  0  6G18G 2G11G16G19G28
  20750793.2114     413176.51948    217812.13763
  22838994.2504   -2584142.43346  -1849121.30161
  23416737.4454   -1784075.47746  -1271822.84561
  23890561.2734   -1597245.26945  -1190649.28061
  20866678.172     -590312.344 6   -440382.59622
  23942767.242      420826.099 5    223453.06221
 92  5 27 17  3 30.0000000  0  6G18G 2G11G16G19G28
  20754981.320      435178.877 8    234956.74423
  22819805.3524   -2684986.92546  -1927701.39961
  23404196.5004   -1849980.04346  -1323177.05361
  23879526.8914   -1655234.60245  -1235835.84061
  20862507.055     -612242.609 6   -457471.14022
  23947084.9614     443541.95345    241153.66261
 92  5 27 17  4  0.0000000  0  6G18G 2G11G16G19G28
  20759246.523      457599.486 8    252427.26523
  22800657.148    -2785610.831 6  -2006109.61421
  23391739.2664   -1915442.59246  -1374186.83261
  23868580.0704   -1712762.99745  -1280663.21361
  20858365.008     -634008.146 6   -474431.32722
  23951493.2424     466683.60645    259186.04961
 92  5 27 17  4 30.0000000  0  6G18G 2G11G16G19G28
  20763591.750      480430.555 8    270217.62023
  22781550.9534   -2886008.56746  -2084341.59861
  23379366.3524   -1980462.42946  -1424851.64361
  23857723.039    -1769820.833 5  -1325123.92321
  20854251.719     -655621.802 6   -491273.16122
  23955969.703      490235.558 5    277538.14321
 92  5 27 17  5  0.0000000  0  6G18G 2G11G16G19G28
  20768010.047      503643.634 8    288305.64623
  22762486.1804   -2986193.16046  -2162407.49961
  23367077.1334   -2045046.45046  -1475176.85661
  23846949.2114   -1826431.25645  -1369236.00161
  20850162.578     -677105.137 6   -508013.45022
  23960528.516      514180.045 5    296196.08721
 92  5 27 17  5 30.0000000  0  6G18G 2G11G16G19G28
  20772502.6644     527257.52548    306706.00063
  22743462.2814   -3086170.76446  -2240312.11461
  23354873.086    -2109181.113 6  -1525151.94121
  23836266.3754   -1882570.97345  -1412981.30761
  20846098.3444    -698469.68246   -524661.17062
  23965165.5474     538543.75345    315180.70161
 92  5 27 17  6  0.0000000  0  6G18G 2G11G16G19G28
  20777074.0634     551282.46348    325426.64863
  22724478.2274   -3185927.23046  -2318044.39861
  23342754.3444   -2172860.94446  -1574772.59661
  23825676.9064   -1938221.49745  -1456345.41561
  20842054.203     -719721.876 6   -541221.35222
  23969882.6254     563334.31945    334497.94461
 92  5 27 17  6 30.0000000  0  6G18G 2G11G16G19G28
  20781722.609      575705.479 8    344457.47523
  22705535.070    -3285475.063 6  -2395614.11321
  23330722.2274   -2236090.06346  -1624042.05961
  23815175.7034   -1993401.05945  -1499342.56161
  20838027.891     -740873.973 6   -557703.53222
  23974680.5944     588547.41345    354144.43161
 92  5 27 17  7  0.0000000  0  6G18G 2G11G16G19G28
  20786447.344      600539.020 8    363808.19323
  22686632.3134   -3384810.74846  -2473018.51661
  23318777.4614   -2298861.18346  -1672954.63961
  23804767.039    -2048107.974 5  -1541971.40121
  20834023.398     -761917.014 6   -574100.73722
  23979562.1254     614196.43545    374130.59061
 92  5 27 17  7 30.0000000  0  6G18G 2G11G16G19G28
  20791253.227      625789.956 8    383484.15523
  22667772.7274   -3483919.46346  -2550246.06261
  23306919.1884   -2361175.62546  -1721511.36061
  23794450.2814   -2102329.59545  -1584222.08261
  20830044.563     -782841.871 6   -590405.84822
  23984523.516      640276.306 5    394452.48321
 92  5 27 17  8  0.0000000  0  6G18G 2G11G16G19G28
  20796137.492      651459.467 8    403486.28623
  22648958.2194   -3582791.98246  -2627289.56261
  23295149.703    -2423027.242 6  -1769707.44521
  23784221.273    -2156077.502 5  -1626103.65821
  20826088.805     -803626.997 6   -606602.07822
  23989569.3914     666787.79745    415110.71661
 92  5 27 17  8 30.0000000  0  6G18G 2G11G16G19G28
  20801102.2504     677545.15448    423812.72063
  22630186.703    -3681443.790 6  -2704161.07021
  23283466.453    -2484418.062 6  -1817544.46521
  23774079.8834   -2209371.91445  -1667631.85661
  20822158.039     -824276.362 6   -622692.51722
  23994694.7504     693745.09945    436116.32861
 92  5 27 17  9  0.0000000  0  6G18G 2G11G16G19G28
  20806148.6414     704066.72348    444478.79563
  22611457.945    -3779858.510 6  -2780847.84221
  23271875.2974   -2545337.52846  -1865014.20261
  23764028.367    -2262195.181 5  -1708792.94121
  20818254.594     -844780.978 6   -638670.16822
  23999918.3914     721164.96945    457482.39661
 92  5 27 17  9 30.0000000  0  6G18G 2G11G16G19G28
  20811274.7584     731006.04548    465470.40763
  22592771.578    -3878055.522 6  -2857364.97021
  23260372.5784   -2605785.54046  -1912116.56861
  23754064.352    -2314553.317 5  -1749591.58321
  20814380.461     -865144.025 6   -654537.50622
  24005221.2504     749046.55145    479208.22861
 92  5 27 17 10  0.0000000  0  6G18G 2G11G16G19G28
  20816479.688      758354.871 8    486781.09723
  22574120.9924   -3976060.46846  -2933732.43961
  23248958.1174   -2665763.82046  -1958852.90861
  23744185.1884   -2366467.48545  -1790044.25161
  20810528.336     -885385.457 6   -670310.08022
  24010613.4844     777377.05345    501283.87261
 92  5 27 17 10 30.0000000  0  6G18G 2G11G16G19G28
  20821760.367      786107.692 8    508406.58623
  22555509.9304   -4073862.35546  -3009941.67861
  23237635.430    -2725265.914 6  -2005218.20021
  23734396.328    -2417917.704 5  -1830135.42821
  20806701.367     -905503.674 6   -685986.64122
  24016088.9144     806132.23045    523690.43861
 92  5 27 17 11  0.0000000  0  6G18G 2G11G16G19G28
  20827120.7274     814271.63547    530352.43263
  22536940.1484   -4171446.04246  -3085980.89962
  23226405.852    -2784278.614 6  -2051202.14521
  23724700.477    -2468872.364 5  -1869840.45721
  20802900.828     -925476.772 6   -701550.12422
  24021632.9534     835297.22545    546416.34861
 92  5 27 17 11 30.0000000  0  6G18G 2G11G16G19G28
  20832554.7664     842829.39647    552605.17763
  22518411.0784   -4268817.87146  -3161855.02661
  23215268.977    -2842807.961 6  -2096809.45821
  23715093.234    -2519346.174 5  -1909170.78521
  20799129.055     -945300.445 6   -716997.17922
  24027260.789      864849.646 5    569444.15121
 92  5 27 17 12  0.0000000  0  6G18G 2G11G16G19G28
  20838066.336      871794.868 7    575175.62123
  22499926.203    -4365959.290 6  -3237549.61121
  23204222.1804   -2900855.30846  -2142041.16961
  23705581.6334   -2569339.56645  -1948126.76861
  20795383.586     -964978.549 6   -732330.79722
  24032956.352      894773.739 5    592761.56721
 92  5 27 17 12 30.0000000  0  6G18G 2G11G16G19G28
  20843653.4694     901151.26547    598050.66163
  22481484.5394   -4462872.75546  -3313066.56961
  23193265.8914   -2958430.06746  -2186904.63261
  23696158.1414   -2618852.00045  -1986707.98561
  20791667.523     -984504.638 6   -747545.96722
  24038716.8524     925075.35245    616373.14861
 92  5 27 17 13  0.0000000  0  6G18G 2G11G16G19G28
  20849317.297      930921.006 7    621247.77323
  22463087.563    -4559551.615 6  -3388400.72122
  23182402.3444   -3015514.49546  -2231386.02761
  23686830.672    -2667877.622 5  -2024909.86221
  20787983.633    -1003866.481 6   -762633.15122
  24044568.7894     955798.66145    640313.32261
 92  5 27 17 13 30.0000000  0  6G18G 2G11G16G19G28
  20855063.0634     961108.66947    644770.54063
  22444735.5944   -4655990.68446  -3463548.01762
  23171634.5234   -3072105.18446  -2275482.67761
  23677589.883    -2716431.945 5  -2062744.48221
  20784328.141    -1023073.758 6   -777599.89722
  24050492.7894     986945.87145    664583.81761
 92  5 27 17 14  0.0000000  0  6G18G 2G11G16G19G28
  20860886.188      991712.454 7    668617.54623
  22426428.7664   -4752189.66146  -3538508.23661
  23160960.211    -3128202.217 6  -2319194.67221
  23668440.9064   -2764502.00645  -2100201.76461
  20780699.594    -1042141.760 6   -792458.12122
  24056500.7584    1018521.03645    689187.78061
 92  5 27 17 14 30.0000000  0  6G18G 2G11G16G19G28
  20866786.3204    1022720.50547    692779.57363
  22408164.734    -4848164.771 6  -3613294.00822
  23150379.328    -3183805.152 6  -2362521.65821
  23659387.906    -2812076.760 5  -2137273.10721
  20777099.703    -1061060.055 6   -807199.68622
  24062595.406     1050531.916 5    714131.27221
 92  5 27 17 15  0.0000000  0  6G18G 2G11G16G19G28
  20872769.7274    1054155.21947    717274.08363
  22389946.031    -4943907.645 6  -3687898.81722
  23139891.8204   -3238909.80246  -2405460.36761
  23650430.2274   -2859159.83245  -2173961.28861
  20773526.813    -1079834.757 6   -821829.35922
  24068761.1334    1082957.97545    739398.27861
 92  5 27 17 15 30.0000000  0  6G18G 2G11G16G19G28
  20878833.4144    1086022.66947    742105.79663
  22371774.883    -5039398.452 6  -3762307.21022
  23129503.5004   -3293505.02546  -2448002.10761
  23641567.5784   -2905736.73045  -2210255.05661
  20769983.711    -1098453.189 6   -836337.26622
  24075012.0704    1115792.51445    764983.56961
 92  5 27 17 16  0.0000000  0  6G18G 2G11G16G19G28
  20884977.2734    1118310.94047    767265.41963
  22353647.4614   -5134655.99746  -3836533.85062
  23119209.6564   -3347597.29746  -2490151.93661
  23632799.242    -2951812.297 5  -2246158.18621
  20766470.430    -1116922.110 6   -850728.67322
  24081342.063     1149040.640 5    790891.14821
 92  5 27 17 16 30.0000000  0  6G18G 2G11G16G19G28
  20891202.430     1151022.475 7    792754.83723
  22335565.2034   -5229679.79446  -3910578.34762
  23109012.8204   -3401179.99046  -2531904.69461
  23624124.680    -2997397.125 5  -2281678.92421
  20762987.508    -1135228.613 6   -864993.51722
  24087743.3594    1182704.36845    817122.57561
 92  5 27 17 17  0.0000000  0  6G18G 2G11G16G19G28
  20897505.180     1184143.100 7    818563.01823
  22317531.180    -5324448.039 6  -3984423.70122
  23098913.4224   -3454255.19946  -2573262.01961
  23615542.109    -3042499.138 5  -2316823.42021
  20759529.219    -1153396.048 6   -879150.00022
  24094231.109     1216779.796 5    843674.81321
 92  5 27 17 17 30.0000000  0  6G18G 2G11G16G19G28
  20903878.664     1217634.673 7    844660.24923
  22299544.484    -5418971.872 6  -4058078.60922
  23088910.031    -3506823.698 6  -2614224.49621
  23607052.2194   -3087107.93145  -2351583.60461
  20756098.063    -1171426.411 6   -893199.66422
  24100794.266     1251282.717 5    870560.16421
 92  5 27 17 18  0.0000000  0  6G18G 2G11G16G19G28
  20910323.016     1251498.979 7    871047.92923
  22281603.922    -5513250.730 6  -4131542.62122
  23079004.4064   -3558879.48146  -2654787.45261
  23598657.9614   -3131224.59445  -2385960.30161
  20752693.523    -1189322.830 6   -907144.96122
  24107444.1254    1286225.42345    897788.19361
 92  5 27 17 18 30.0000000  0  6G18G 2G11G16G19G28
  20916838.273     1285738.100 7    897727.67723
  22263713.305    -5607264.955 7  -4204800.42722
  23069197.3984   -3610415.86746  -2694945.68461
  23590358.4924   -3174842.38545  -2419948.26361
  20749312.742    -1207085.286 6   -920985.87022
  24114175.273     1321593.256 5    925347.49821
 92  5 27 17 19  0.0000000  0  6G18G 2G11G16G19G28
  20923426.063     1320360.144 7    924705.80023
  22245873.6644   -5701014.84346  -4277852.26062
  23059490.5554   -3661426.23146  -2734694.03861
  23582154.2584   -3217954.80345  -2453542.43061
  20745957.609    -1224717.399 6   -934725.21622
  24120988.797     1357387.214 5    953238.84821
 92  5 27 17 19 30.0000000  0  6G18G 2G11G16G19G28
  20930091.219     1355382.932 7    951996.19023
  22228079.5004   -5794521.68446  -4350714.70762
  23049884.4694   -3711909.87646  -2774031.95461
  23574041.8134   -3260577.60945  -2486755.09161
  20742628.508    -1242208.879 6   -948354.97722
  24127878.758     1393600.832 5    981457.21521
 92  5 27 17 20  0.0000000  0  6G18G 2G11G16G19G28
  20936835.8204    1390823.75847    979612.32863
  22210333.617    -5887779.726 7  -4423383.28622
  23040376.6334   -3761871.28746  -2812962.92561
  23566021.8364   -3302723.80345  -2519596.35361
  20739328.656    -1259564.517 6   -961878.89022
  24134841.156     1430204.208 5   1009979.28921
 92  5 27 17 20 30.0000000  0  6G18G 2G11G16G19G28
  20943660.7894    1426692.21347   1007561.69263
  22192636.508    -5980775.880 7  -4495847.79322
  23030971.8754   -3811293.09246  -2851473.43161
  23558097.188    -3344370.303 5  -2552048.24821
  20736056.148    -1276752.420 6   -975272.10222
  24141882.5234    1467199.42545   1038806.67561
 92  5 27 17 21  0.0000000  0  6G18G 2G11G16G19G28
  20950566.4844    1462981.04047   1035838.62363
  22174985.070    -6073530.429 7  -4568124.02622
  23021668.3984   -3860181.47246  -2889568.27861
  23550267.6804   -3385523.46145  -2584115.71261
  20732816.672    -1293768.836 6   -988531.68622
  24148999.8984    1504586.78745   1067939.63261
 92  5 27 17 21 30.0000000  0  6G18G 2G11G16G19G28
  20957552.7894    1499691.00047   1064443.70363
  22157384.031    -6166031.217 7  -4640202.52322
  23012468.4694   -3908532.20446  -2927244.17661
  23542530.7194   -3426172.66145  -2615790.48961
  20729614.008    -1310598.196 6  -1001645.50722
  24156184.516     1542358.941 5   1097372.42821
 92  5 27 17 21 59.9990000  0  6G18G 2G11G16G19G28
  20964617.292     1536814.704 7   1093371.18323
  22139830.347    -6258273.476 7  -4712079.56822
  23003369.9874   -3956342.61246  -2964499.05061
  23534894.480    -3466306.663 5  -2647063.82021
  20726448.167    -1327232.673 6  -1014607.47122
  24163445.464     1580507.701 5   1127098.67521
 92  5 27 17 22 29.9990000  0  6G18G 2G11G16G19G28
  20971758.347     1574344.383 7   1122615.00223
  22122322.355    -6350274.777 7  -4783768.85622
  22994374.3704   -4003619.60946  -3001338.27561
  23527353.542    -3505937.944 5  -2677945.41221
  20723318.995    -1343678.490 6  -1027422.42522
  24170783.183     1619049.718 5   1157131.36521
 92  5 27 17 22 59.9990000  0  6G18G 2G11G16G19G28
  20978981.1284    1612298.22347   1152189.33963
  22104865.026    -6442017.804 7  -4855256.89322
  22985481.2454   -4050352.57646  -3037753.57361
  23519907.878    -3545056.086 5  -2708427.15321
  20720225.370    -1359935.260 6  -1040090.07222
  24178189.0264    1657994.84945   1187478.17561
 92  5 27 17 23 29.9990000  0  6G18G 2G11G16G19G28
  20986283.5344    1650672.66547   1182091.42263
  22087458.597    -6533490.048 7  -4926533.93522
  22976690.5814   -4096544.29946  -3073747.13061
  23512563.4564   -3583658.86145  -2738507.32461
  20717167.714    -1376008.751 6  -1052614.90022
  24185676.1904    1697343.73945   1218139.62261
 92  5 27 17 23 59.9990000  0  6G18G 2G11G16G19G28
  20993661.8004    1689447.98947   1212305.88263
  22070100.409    -6624704.696 7  -4997610.24722
  22968002.9874   -4142198.73446  -3109322.01261
  23505314.7064   -3621757.14945  -2768194.37261
  20714140.925    -1391919.078 6  -1065012.59722
  24193245.323     1737101.948 5   1249120.01021
 92  5 27 17 24 29.9990000  0  6G18G 2G11G16G19G28
  21001114.5974    1728607.43147   1242819.65663
  22052790.878    -6715665.749 7  -5068488.95422
  22959416.1754   -4187322.50446  -3144483.38661
  23498157.940    -3659359.193 5  -2797494.76221
  20711141.769    -1407674.539 6  -1077289.62022
  24200886.0894    1777265.53845   1280416.29361
 92  5 27 17 24 59.9990000  0  6G18G 2G11G16G19G28
  21008638.636     1768148.816 7   1273631.03723
  22035530.862    -6806368.386 7  -5139166.29922
  22950931.8784   -4231904.29146  -3179222.43761
  23491099.6594   -3696451.66145  -2826398.06061
  20708176.128    -1423259.910 6  -1089434.10522
  24208606.7374    1817830.82145   1312025.58761
 92  5 27 17 25 29.9990000  0  6G18G 2G11G16G19G28
  21016233.620     1808057.390 7   1304728.53723
  22018317.394    -6896823.989 7  -5209651.14122
  22942551.2064   -4275944.42846  -3213539.42061
  23484134.8944   -3733044.50845  -2854912.04661
  20705241.644    -1438679.015 6  -1101449.03022
  24216402.862     1858794.246 5   1343945.10921
 92  5 27 17 25 59.9990000  0  6G18G 2G11G16G19G28
  21023897.620     1848330.875 7   1336110.37523
  22001146.917    -6987058.264 7  -5279963.52922
  22934271.9174   -4319456.86146  -3247445.20761
  23477261.448    -3769160.589 5  -2883054.54121
  20702336.073    -1453950.328 6  -1113348.79222
  24224265.2534    1900130.49845   1376155.15061
 92  5 27 17 26 29.9990000  0  6G18G 2G11G16G19G28
  21031638.261     1889009.819 7   1367808.16223
  21984024.847    -7077034.659 7  -5350074.97122
  22926096.3004   -4362421.50446  -3280924.15261
  23470486.948    -3804776.007 5  -2910806.88421
  20699462.409    -1469051.506 6  -1125115.98422
  24232210.792     1941865.732 5   1408676.08121
 92  5 27 17 26 59.9990000  0  6G18G 2G11G16G19G28
  21039455.230     1930090.021 7   1399818.61123
  21966951.636    -7166762.205 7  -5419992.50622
  22918021.8864   -4404845.63046  -3313981.91161
  23463803.9644   -3839896.85545  -2938173.87361
  20696616.456    -1484007.800 6  -1136770.27622
  24240227.253     1983985.904 5   1441496.96821
 92  5 27 17 27 29.9990000  0  6G18G 2G11G16G19G28
  21047352.245     1971585.522 7   1432152.67223
  21949926.894    -7256225.072 7  -5489703.79022
  22910053.7064   -4446723.97246  -3346614.38361
  23457215.558    -3874524.100 5  -2965156.22421
  20693795.198    -1498831.396 6  -1148321.17222
  24248311.7614    2026493.44745   1474619.70661
 92  5 27 17 27 59.9990000  0  6G18G 2G11G16G19G28
  21055323.6514    2013476.39647   1464794.82363
  21932952.667    -7345419.916 7  -5559206.23222
  22902186.4174   -4488067.40546  -3378830.04061
  23450714.9484   -3908668.40845  -2991762.26261
  20690998.480    -1513527.533 6  -1159772.74822
  24256473.2454    2069372.61945   1508032.01061
 92  5 27 17 28 29.9990000  0  6G18G 2G11G16G19G28
  21063366.503     2055739.545 7   1497727.06823
  21916031.331    -7434342.764 7  -5628496.72122
  22894421.6754   -4528868.47746  -3410623.06761
  23444311.4874   -3942327.67345  -3017990.33561
  20688229.276    -1528084.525 6  -1171115.89922
  24264703.9254    2112612.85245   1541725.67961
 92  5 27 17 28 59.9990000  0  6G18G 2G11G16G19G28
  21071478.6594    2098368.87747   1530944.64663
  21899161.620    -7522991.665 7  -5697573.74722
  22886763.5264   -4569114.51946  -3441983.60361
  23437998.526    -3975506.340 5  -3043843.90221
  20685489.894    -1542484.392 6  -1182336.61722
  24272995.378     2156208.062 5   1575695.93121
 92  5 27 17 29 29.9990000  0  6G18G 2G11G16G19G28
  21079659.6054    2141360.79247   1564444.75863
  21882344.644    -7611367.452 7  -5766437.95522
  22879209.8474   -4608809.98746  -3472915.12361
  23431772.9874   -4008221.01445  -3069335.94361
  20682781.245    -1556713.420 6  -1193424.21422
  24281360.8154    2200147.25545   1609934.24961
 92  5 27 17 29 59.9990000  0  6G18G 2G11G16G19G28
  21087909.222     2184711.610 7   1598224.52423
  21865576.980    -7699484.824 7  -5835100.80522
  22871760.1904   -4647956.24546  -3503418.69061
  23425638.6834   -4040466.69445  -3094462.52361
  20680109.550    -1570757.223 6  -1204367.47622
  24289785.026     2244426.730 5   1644437.71021
 92  5 27 17 30 29.9990000  0  6G18G 2G11G16G19G28
  21096229.300     2228431.493 7   1632291.87823
  21848854.222    -7787363.659 7  -5903577.79122
  22864413.5034   -4686562.76246  -3533501.68861
  23419589.4724   -4072247.34645  -3119226.73961
  20677469.534    -1584629.666 6  -1215177.20722
  24298270.8864    2289032.99845   1679195.84261
 92  5 27 17 30 59.9990000  0  6G18G 2G11G16G19G28
  21104624.9404    2272554.55447   1666673.39863
  21832179.089    -7874991.035 7  -5971858.82122
  22857173.5194   -4724613.25246  -3563151.41961
  23413634.7764   -4103538.39345  -3143609.42761
  20674864.214    -1598320.082 6  -1225845.10022
  24306831.3004    2333996.88145   1714232.62561
 92  5 27 17 31 29.9990000  0  6G18G 2G11G16G19G28
  21113096.909     2317070.898 7   1701361.37223
  21815550.073    -7962376.408 7  -6039951.28722
  22850036.6834   -4762113.40646  -3592372.31361
  23407775.378    -4134323.901 5  -3167598.19621
  20672291.980    -1611833.516 6  -1236375.07822
  24315453.6904    2379310.19445   1749541.69561
 92  5 27 17 31 59.9990000  0  6G18G 2G11G16G19G28
  21121642.542     2361981.076 7   1736356.22523
  21798970.105    -8049505.324 7  -6107843.91422
  22843008.7764   -4799048.28546  -3621152.73261
  23402021.8704   -4164571.76745  -3191168.01961
  20669755.972    -1625161.111 6  -1246760.25923
  24324145.9724    2424988.74545   1785135.34461
 92  5 27 17 32 29.9990000  0  6G18G 2G11G16G19G28
  21130259.190     2407257.069 7   1771636.12423
  21782437.870    -8136380.751 7  -6175539.01222
  22836084.5034   -4835432.74746  -3649504.25361
  23396364.2764   -4194297.33445  -3214330.85561
  20667252.980    -1638333.561 6  -1257024.53323
  24332903.167     2471016.065 5   1821000.77721
 92  5 27 17 32 59.9990000  0  6G18G 2G11G16G19G28
  21138941.769     2452886.244 7   1807191.22723
  21765958.901    -8222978.752 7  -6243017.94122
  22829268.0424   -4871254.04346  -3677416.95161
  23390810.167    -4223492.217 5  -3237080.19321
  20664776.565    -1651340.830 6  -1267160.09623
  24341733.706     2517410.636 4   1857152.35421
 92  5 27 17 33 29.9990000  0  6G18G 2G11G16G19G28
  21147690.292     2498858.953 7   1843014.03122
  21749534.128    -8309292.639 7  -6310275.46022
  22822558.3704   -4906514.25246  -3704892.45361
  23385353.2764   -4252160.60845  -3259419.26061
  20662329.480    -1664187.742 6  -1277170.70023
  24350628.4954    2564165.13045   1893584.42961
 92  5 27 17 33 59.9990000  0  6G18G 2G11G16G19G28
  21156503.7614    2545177.23947   1879106.11763
  21733161.940    -8395330.575 7  -6377317.98022
  22815954.1984   -4941218.88746  -3731935.02161
  23379991.0814   -4280331.30945  -3281370.52461
  20659912.464    -1676891.680 6  -1287069.89323
  24359593.0344    2611278.37645   1930296.05161
 92  5 27 17 34 29.9990000  0  6G18G 2G11G16G19G28
  21165385.019     2591848.558 7   1915473.29422
  21716841.597    -8481090.314 7  -6444143.70922
  22809456.3864   -4975366.06446  -3758543.21361
  23374721.9874   -4308026.50245  -3302951.24761
  20657521.011    -1689453.076 6  -1296858.01723
  24368629.917     2658761.317 5   1967295.76221
 92  5 27 17 34 59.9990000  0  6G18G 2G11G16G19G28
  21174333.362     2638874.841 7   1952117.05223
  21700572.495    -8566586.877 7  -6510764.37222
  22803064.7534   -5008958.65146  -3784719.26561
  23369539.6284   -4335260.74045  -3324172.79161
  20655161.276    -1701855.822 6  -1306522.52123
  24377737.8394    2706604.44144   2004576.11461
 92  5 27 17 35 29.9990000  0  6G18G 2G11G16G19G28
  21183355.956     2686279.389 7   1989055.56322
  21684350.019    -8651831.531 7  -6577188.74522
  22796778.5894   -5041984.19346  -3810453.46161
  23364445.2764   -4362028.92545  -3345031.18261
  20652834.183    -1714084.291 6  -1316051.22423
  24386904.0114    2754805.96544   2042135.75461
 92  5 27 17 35 59.9990000  0  6G18G 2G11G16G19G28
  21192445.347     2734050.710 7   2026279.87122
  21668175.183    -8736834.870 7  -6643425.06922
  22790600.7764   -5074448.82046  -3835750.58061
  23359436.7224   -4388346.43645  -3365538.40661
  20650544.105    -1726134.388 6  -1325440.93423
  24396146.5974    2803349.90544   2079962.20861
 92  5 27 17 36 29.9990000  0  6G18G 2G11G16G19G28
  21201605.339     2782184.090 7   2063786.29822
  21652046.019    -8821594.251 7  -6709471.29622
  22784530.5114   -5106349.71446  -3860608.42461
  23354519.2764   -4414198.81645  -3385683.17061
  20648287.144    -1737983.938 6  -1334674.37823
  24405445.730     2852226.863 5   2118048.18121
 92  5 27 17 36 59.9990000  0  6G18G 2G11G16G19G28
  21210832.940     2830679.333 7   2101574.70622
  21635959.886    -8906124.464 7  -6775338.95622
  22778568.1834   -5137687.10546  -3885027.17061
  23349690.0264   -4439572.35045  -3405454.81261
  20646071.214    -1749633.975 6  -1343752.35923
  24414807.526     2901415.699 5   2156377.16221
 92  5 27 17 37 29.9990000  0  6G18G 2G11G16G19G28
  21220130.730     2879538.246 7   2139646.48522
  21619920.714    -8990411.273 7  -6841016.94822
  22772712.4334   -5168461.03946  -3909006.85961
  23344953.4484   -4464460.58645  -3424848.30961
  20643889.159    -1761094.745 6  -1352682.85423
  24424227.409     2950917.929 5   2194950.34321
 92  5 27 17 37 59.9990000  0  6G18G 2G11G16G19G28
  21229499.190     2928764.945 7   2178004.85723
  21603934.409    -9074419.295 7  -6906477.69722
  22766963.9174   -5198666.33546  -3932543.45961
  23340310.9954   -4488857.38545  -3443858.85361
  20641745.089    -1772364.406 6  -1361464.43823
  24433708.190     3000743.704 5   2233775.65321
 92  5 27 17 38 29.9990000  0  6G18G 2G11G16G19G28
  21238937.980     2978368.571 7   2216656.92522
  21588003.870    -9158137.501 7  -6971712.61922
  22761324.0264   -5228299.08546  -3955633.91861
  23335765.8234   -4512751.65945  -3462477.81961
  20639633.659    -1783454.632 6  -1370106.20023
  24443255.8784    3050909.16344   2272865.62861
 92  5 27 17 38 59.9990000  0  6G18G 2G11G16G19G28
  21248448.269     3028345.696 7   2255600.04122
  21572131.011    -9241554.051 7  -7036712.48222
  22755793.3554   -5257366.89046  -3978284.15461
  23331312.4724   -4536152.79145  -3480712.53561
  20637552.526    -1794394.492 6  -1378630.79923
  24452863.0734    3101410.11444   2312217.03661
 92  5 27 17 39 29.9990000  0  6G18G 2G11G16G19G28
  21258030.370     3078699.602 7   2294836.74522
  21556319.417    -9324637.319 7  -7101452.64622
  22750370.6594   -5285860.01346  -4000486.59461
  23326952.417    -4559061.899 5  -3498563.85021
  20635501.823    -1805172.387 6  -1387029.18922
  24462538.5734    3152255.03944   2351836.47361
 92  5 27 17 39 59.9990000  0  6G18G 2G11G16G19G28
  21267680.308     3129407.523 7   2334349.30522
  21540569.417    -9407407.302 7  -7165948.69622
  22745056.9254   -5313787.82046  -4022248.51661
  23322683.9334   -4581494.58945  -3516043.92761
  20633478.112    -1815804.237 6  -1395313.77122
  24472279.464     3203429.385 5   2391712.62121
 92  5 27 17 40 29.9990000  0  6G18G 2G11G16G19G28
  21277396.448     3180467.632 7   2374136.29522
  21524874.7764   -9489877.83947  -7230211.40363
  22739851.4564   -5341142.71546  -4043564.01561
  23318506.769    -4603438.879 5  -3533143.43921
  20631486.800    -1826276.972 6  -1403474.37622
  24482077.878     3254927.916 4   2431841.36621
 92  5 27 17 40 59.9990000  0  6G18G 2G11G16G19G28
  21287176.6054    3231862.33747   2414184.00262
  21509236.1984   -9572061.56647  -7294250.62063
  22734753.1444   -5367927.55146  -4064435.31061
  23314422.2764   -4624903.32045  -3549869.03261
  20629526.542    -1836576.203 6  -1411499.78222
  24491932.5584    3306729.98244   2472206.65261
 92  5 27 17 41 29.9990000  0  6G18G 2G11G16G19G28
  21297019.737     3283586.784 7   2454488.64822
  21493649.753    -9653969.725 7  -7358075.11523
  22729769.0344   -5394127.28746  -4084850.67761
  23310432.1834   -4645882.93745  -3566216.85761
  20627606.425    -1846668.961 6  -1419364.29722
  24501854.261     3358852.372 4   2512821.52921
 92  5 27 17 41 59.9990000  0  6G18G 2G11G16G19G28
  21306922.995     3335628.655 7   2495040.64722
  21478107.862    -9735642.069 7  -7421715.85023
  22724892.8944   -5419754.51246  -4104819.93461
  23306526.9254   -4666389.68845  -3582196.20961
  20625721.394    -1856567.368 6  -1427077.37522
  24511833.808     3411288.584 4   2553680.96221
 92  5 27 17 42 29.9990000  0  6G18G 2G11G16G19G28
  21316889.308     3388002.981 7   2535851.70222
  21462610.315    -9817080.250 7  -7485174.12622
  22720126.2304   -5444805.91346  -4124340.50361
  23302720.769    -4686405.838 5  -3597793.29821
  20623877.386    -1866257.369 6  -1434628.06122
  24521871.6514    3464044.51844   2594789.53561
 92  5 27 17 42 59.9990000  0  6G18G 2G11G16G19G28
  21326922.315     3440722.460 7   2576931.70322
  21447159.3784   -9898275.15147  -7548442.82762
  22715469.4174   -5469269.85846  -4143403.31761
  23299007.105    -4705927.363 5  -3613004.96421
  20622076.159    -1875728.133 6  -1442007.90622
  24531972.425     3517144.261 3   2636165.99621
 92  5 27 17 43 29.9990000  0  6G18G 2G11G16G19G28
  21337017.862     3493781.434 7   2618276.25622
  21431752.6364   -9979241.97047  -7611533.79963
  22710923.7764   -5493157.64946  -4162017.19061
  23295382.7614   -4724970.05445  -3627843.50061
  20620309.683    -1885001.151 6  -1449233.66422
  24542145.792     3570585.140 4   2677808.29221
 92  5 27 17 43 59.9990000  0  6G18G 2G11G16G19G28
  21347182.1674    3547193.75347   2659896.12262
  21416390.1124  -10059965.20747  -7674434.96963
  22706487.0264   -5516471.60346  -4180183.91061
  23291853.7064   -4743517.36645  -3642296.02661
  20618582.003    -1894085.892 6  -1456312.71522
  24552379.183     3624357.727 4   2719709.04921
 92  5 27 17 44 29.9990000  0  6G18G 2G11G16G19G28
  21357414.0264    3600959.40947   2701791.32962
  21401081.0974  -10140419.72047  -7737126.74563
  22702160.4014   -5539207.27646  -4197900.02161
  23288419.1284   -4761559.68445  -3656355.03361
  20616889.511    -1902977.293 6  -1463241.10422
  24562674.2064    3678467.42044   2761872.50161
 92  5 27 17 44 59.9990000  0  6G18G 2G11G16G19G28
  21367711.7844    3655073.32147   2743957.89762
  21385826.784   -10220580.990 7  -7799590.02823
  22697945.4254   -5561358.20846  -4215160.48361
  23285077.2844   -4779118.45545  -3670037.26861
  20615237.5734   -1911673.30146  -1470017.23762
  24573033.276     3732913.857 4   2804298.35621
 92  5 27 17 45 29.9990000  0  6G18G 2G11G16G19G28
  21378076.4564    3709540.32747   2786399.60662
  21370632.472   -10300432.664 7  -7861812.06723
  22693842.1984   -5582923.47446  -4231964.59361
  23281828.7224   -4796191.62245  -3683341.09261
  20613617.956    -1920182.612 6  -1476647.89122
  24583456.269     3787680.662 5   2846973.85421
 92  5 27 17 45 59.9990000  0  6G18G 2G11G16G19G28
  21388507.409     3764357.895 7   2829114.47922
  21355496.511   -10379969.287 7  -7923788.61223
  22689848.8864   -5603911.61346  -4248318.99461
  23278673.7924   -4812781.64145  -3696268.44061
  20612028.159    -1928522.800 6  -1483146.76322
  24593935.558     3842744.688 4   2889880.94921
 92  5 27 17 46 29.9990000  0  6G18G 2G11G16G19G28
  21399004.589     3819517.456 7
  21340418.8944  -10459199.46447  -7985526.36063
  22685965.0654   -5624322.43546  -4264223.54261
  23275602.0894   -4828915.80445  -3708840.58161
  20610473.206    -1936696.078 6  -1489515.57922
  24604469.894     3898095.400 5
 92  5 27 17 46 59.9990000  0  6G18G 2G11G16G19G28
  21409566.862     3875027.335 7
  21325401.026   -10538122.445 7  -8047024.73823
  22682191.2764   -5644147.75246  -4279671.84761
  23272618.1514   -4844595.42545  -3721058.53361
  20608949.7374   -1944701.51546  -1495753.60162
  24615055.284     3953723.156 5
 92  5 27 17 47 29.9990000  0  6G18G 2G11G16G19G28
  21420194.940     3930874.120 7
  21310434.065   -10616768.602 7  -8108307.41623
  22678530.003    -5663394.401 6  -4294669.24921
  23269723.308    -4859811.937 5  -3732915.62621
  20607456.761    -1952544.469 6  -1501865.01622
  24625692.034     4009614.409 4
 92  5 27 17 47 59.9990000  0  6G18G 2G11G16G19G28
  21430884.808     3987045.823 7
  21295518.292   -10695151.476 7  -8169384.91823
  22674977.4094   -5682059.98846  -4309213.86961
  23266916.6904   -4874556.46145  -3744404.91861
  20605999.3394   -1960206.60146  -1507835.53062
  24636376.519     4065775.581 4
 92  5 27 17 48 29.9990000  0  6G18G 2G11G16G19G28
  21441633.0654    4043532.36847
  21280652.034   -10773275.189 7  -8230260.48723
  22671536.8394   -5700144.83246  -4323305.95561
  23264199.972    -4888838.144 5  -3755533.56221
  20604577.1364   -1967679.66546  -1513658.71462
  24647117.183     4122211.441 4
 92  5 27 17 48 59.9990000  0  6G18G 2G11G16G19G28
  21452440.5424    4100323.86547
  21265833.7304  -10851146.97747  -8290939.74663
  22668203.4874   -5717655.43746  -4336950.58961
  23261571.964    -4902644.275 5  -3766291.64221
  20603192.4254   -1974962.24446  -1519333.47462
  24657909.808     4178922.800 4
 92  5 27 17 49 29.9990000  0  6G18G 2G11G16G19G28
  21463304.2924    4157417.84647
  21251065.9174  -10928755.53647  -8351413.89663
  22664981.0814   -5734586.90546  -4350143.94161
  23259038.206    -4915962.373 5  -3776669.43521
  20601843.792    -1982040.674 6  -1524849.15722
  24668755.761     4235929.154 4
 92  5 27 17 49 59.9990000  0  6G18G 2G11G16G19G28
  21474231.1204    4214831.21347
  21236349.089   -11006091.379 7  -8411675.53923
  22661870.4334   -5750939.08246  -4362885.91061
  23256594.0034   -4928800.95545  -3786673.59761
  20600535.1054   -1988919.76746  -1530209.50662
  24679662.073     4293239.077 4
 92  5 27 17 50 29.9990000  0  6G18G 2G11G16G19G28
  21485215.6834    4272559.24047
  21221683.284   -11083158.270 7  -8471727.61623
  22658869.2614   -5766715.27746  -4375179.05261
  23254237.8394   -4941178.01545  -3796318.11161
  20599261.065    -1995615.420 6  -1535426.92022
  24690623.003     4350843.831 4
 92  5 27 17 50 59.9990000  0  6G18G 2G11G16G19G28
  21496261.0344    4330597.27447
  21207067.503   -11159962.324 7  -8531574.88523
  22655976.4724   -5781915.38146  -4387023.29361
  23251972.7844   -4953089.98045  -3805600.23461
  20598023.6514   -2002119.38846  -1540494.96062
  24701639.948     4408738.688 4
 92  5 27 17 51 29.9980000  0  6G18G 2G11G16G19G28
  21507365.0614    4388951.32447   3315809.40862
  21192503.779   -11236497.119 7  -8591212.34123
  22653193.3504   -5796539.01246  -4398418.33861
  23249789.318    -4964552.064 5  -3814531.78421
  20596821.3894   -2008437.44146  -1545418.13962
  24712708.100     4466907.537 4   3129636.04321
 92  5 27 17 51 59.9980000  0  6G18G 2G11G16G19G28
  21518534.4904    4447644.44447   3361544.18062
  21177992.107   -11312758.862 7  -8650637.03323
  22650521.5534   -5810575.52346  -4409355.88561
  23247695.1704   -4975555.96645  -3823106.32361
  20595656.4754   -2014561.75246  -1550190.34262
  24723826.451     4525336.882 4   3175165.47621
 92  5 27 17 52 29.9980000  0  6G18G 2G11G16G19G28
  21529764.1474    4506660.24247   3407530.39562
  21163537.326   -11388716.003 7  -8709824.37123
  22647963.4984   -5824022.08346  -4419833.73161
  23245691.2014   -4986094.22745  -3831318.00261
  20594531.826    -2020471.533 6  -1554795.38722
  24734994.0764    4584012.36244   3220886.71461
 92  5 27 17 52 59.9980000  0  6G18G 2G11G16G19G28
  21541056.1154    4565998.64547   3453767.98562
  21149141.467   -11464367.052 7  -8768773.19523
  22645515.0144   -5836888.72946  -4429859.68961
  23243774.8034   -4996170.67845  -3839169.85061
  20593446.3504   -2026171.66446  -1559237.06962
  24746204.0374    4642918.31944   3266787.57861
 92  5 27 17 53 29.9980000  0  5G18G 2G11G16G19
  21552407.5144    4625650.20547   3500249.59162
  21134802.232   -11539718.831 7  -8827488.82823
  22643176.0064   -5849177.66246  -4439435.48961
  23241946.436    -5005787.444 5  -3846663.49921
  20592401.2324   -2031672.73846  -1563523.63762
 92  5 27 17 53 59.9980000  0  5G18G 2G11G16G19
  21563816.6864    4685601.11547   3546964.45362
  21120520.647   -11614772.967 7  -8885972.53023
  22640947.2094   -5860885.70446  -4448558.62661
  23240201.0684   -5014937.83045  -3853793.72661
  20591395.311    -2036966.172 6  -1567648.41522
 92  5 27 17 54 29.9980000  0  5G18G 2G11G16G19
  21575279.1004    4745839.83047   3593903.57862
  21106292.568   -11689542.120 7  -8944234.16223
  22638829.6004   -5872012.58946  -4457228.93961
  23238550.6544   -5023631.41545  -3860568.00161
  20590426.678    -2042047.469 6  -1571607.89022
 92  5 27 17 54 59.9980000  0  5G18G 2G11G16G19
  21586794.1934    4806351.13647   3641055.11062
  21092108.897   -11764075.119 7  -9002311.78423
  22636822.732    -5882568.595 6  -4465454.41621
  23236979.826    -5031885.544 5  -3866999.84921
  20589492.670    -2046944.160 6  -1575423.51822
 92  5 27 17 55 29.9980000  0  5G18G 2G11G16G19
  21598359.2794    4867125.61547   3688411.71762
  21077970.482   -11838374.766 7  -9060207.57523
  22634919.795    -5892555.967 6  -4473236.79921
  23235493.639    -5039704.381 5  -3873092.50921
  20588600.1864   -2051649.89746  -1579090.34862
 92  5 27 17 55 59.9980000  0  5G18G 2G11G16G19
  21609978.3114    4928181.10447   3735987.29062
  21063881.240   -11912413.600 7  -9117900.13823
  22633129.7174   -5901970.29646  -4480572.65161
  23234088.272    -5047086.381 5  -3878844.77421
  20587741.803    -2056154.574 6  -1582600.51522
 92  5 27 17 56 29.9980000  0  5G18G 2G11G16G19
  21621653.8184    4989537.61947   3783797.42562
  21049845.490   -11986172.585 7  -9175374.63623
  22631448.0064   -5910804.21446  -4487456.23261
  23232765.1934   -5054023.75045  -3884250.58561
  20586924.365    -2060457.643 6  -1585953.57722
 92  5 27 17 56 59.9980000  0  5G18G 2G11G16G19
  21633386.6624    5051195.14747   3831842.11962
  21035865.061   -12059639.600 7  -9232621.61823
  22629876.8654   -5919064.83046  -4493893.09661
  23231533.2094   -5060509.01445  -3889304.09961
  20586141.686    -2064561.624 6  -1589151.51322
 92  5 27 17 57 29.9980000  0  5G18G 2G11G16G19
  21645181.0374    5113169.95847   3880134.04462
  21021944.772   -12132792.042 7  -9289623.47523
  22628413.8734   -5926751.41346  -4499882.65061
  23230384.045    -5066535.763 5  -3894000.33821
  20585403.482    -2068457.469 6  -1592187.25722
 92  5 27 17 57 59.9980000  0  5G18G 2G11G16G19
  21657036.2094    5175471.68647   3928680.71562
  21008084.490   -12205623.552 7  -9346375.25423
  22627064.0294   -5933849.69046  -4505413.78861
  23229331.3894   -5072088.37145  -3898327.11661
  20584699.967    -2072141.325 6  -1595057.82022
 92  5 27 17 58 29.9980000  0  5G18G 2G11G16G19
  21668948.2404    5238068.82447   3977457.56962
  20994278.537   -12278173.465 7  -9402907.60523
  22625822.9754   -5940374.48946  -4510498.06761
  23228360.5614   -5077186.24945  -3902299.55261
  20584036.029    -2075624.367 6  -1597771.91322
 92  5 27 17 58 59.9980000  0  5G18G 2G11G16G19
  21680913.8114    5300945.81047   4026452.48162
  20980524.490   -12350454.759 7  -9459230.65023
  22624688.5374   -5946328.04146  -4515137.21361
  23227472.998    -5081832.775 5  -3905920.27621
  20583411.326    -2078908.417 6  -1600330.94822
 92  5 27 17 59 29.9980000  0  5G18G 2G11G16G19
  21692930.1004    5364089.69747   4075655.37362
  20966820.756   -12422469.828 7  -9515346.24423
  22623664.990    -5951715.006 6  -4519334.87321
  23226673.4984   -5086045.83145  -3909203.21361
  20582820.256    -2082009.669 6  -1602747.53222
 92  5 27 17 59 59.9980000  0  5G18G 2G11G16G19
  21704993.4434    5427488.48647   4125056.88962
  20953167.857   -12494214.047 7  -9571250.78423
  22622747.0374   -5956525.60546  -4523083.41861
  23225955.623    -5089821.602 5  -3912145.43121
  20582269.857    -2084912.111 6  -1605009.19822
 92  5 27 18  0 29.9980000  0  5G18G 2G11G16G19
  21717106.9204    5491143.68847   4174658.20762
  20939567.225   -12565687.463 7  -9626944.30823
  22621940.7094   -5960761.49446  -4526384.12461
  23225315.9284   -5093170.14145  -3914754.71861
  20581757.717    -2087605.429 6  -1607107.92222
 92  5 27 18  0 59.9980000  0  5G18G 2G11G16G19
  21729271.545     5555063.528 7   4224465.73022
  20926018.889   -12636882.215 7  -9682420.69223
  22621244.3184   -5964427.72246  -4529240.93961
  23224762.397    -5096098.254 5  -3917036.41221
  20581283.436    -2090093.838 6  -1609046.97122
 92  5 27 18  1 29.9980000  0  5G18G 2G11G16G19
  21741483.857     5619242.688 7   4274475.32622
  20912521.240   -12707812.454 7  -9737690.96123
  22620653.7484   -5967530.38546  -4531658.60961
  23224279.5924   -5098622.81945
  20580851.068    -2092373.562 6
 92  5 27 18  1 59.9980000  0  5G18G 2G11G16G19
  21753745.998     5683683.834 7   4324689.06921
  20899069.615   -12778497.411 7  -9792770.10523
  22620171.3654   -5970068.80446  -4533636.61161
  23223877.9674   -5100748.20845
  20580455.850    -2094434.877 6
 92  5 27 18  2 29.9980000  0  5G18G 2G11G16G19
  21766063.334     5748410.859 6   4375125.56522
  20885668.865   -12848923.292 7  -9847647.37023
  22619797.029    -5972038.009 6
  23223548.4824   -5102468.52045
  20580104.889    -2096287.851 6
 92  5 27 18  2 59.9980000  0  5G18G 2G11G16G19
  21778431.998     5813402.998 6   4425768.64122
  20872317.092   -12919085.338 7  -9902319.05223
  22619529.850    -5973447.902 6
  23223302.7404   -5103780.96045
  20579787.803    -2097951.010 6  -1615169.60322
 92  5 27 18  3 29.9980000  0  5G18G 2G11G16G19
  21790850.123     5878662.514 6   4476620.06021
  20859018.693   -12988968.325 7  -9956773.27523
  22619365.4044   -5974288.62946
  23223131.0064   -5104666.17045
  20579511.4284   -2099416.11046  -1616311.28762
 92  5 27 18  3 59.9980000  0  5G18G 2G11G16G19
  21803321.787     5944200.356 6   4527688.35921
  20845778.889   -13058545.306 7 -10010989.06223
  22619317.7564   -5974558.69246
  23223045.772    -5105108.952 5
  20579268.279    -2100684.333 6  -1617299.56122
 92  5 27 18  4 29.9980000  0  5G18G 2G11G16G19
  21815841.5454    6009993.10246   4578955.28861
  20832596.201   -13127819.918 7 -10064969.23523
  22619370.6154   -5974275.88946
  23223046.147    -5105113.673 5
  20579058.686    -2101776.454 6  -1618150.60122
 92  5 27 18  4 59.9980000  0  5G18G 2G11G16G19
  21828409.9044    6076037.24746   4630418.11561
  20819469.576   -13196801.124 7 -10118720.77923
  22619533.3504   -5973432.79646  -4536258.00361
  23223129.4984   -5104677.11945
  20578888.982    -2102675.580 6  -1618851.26022
 92  5 27 18  5 29.9980000  0  5G18G 2G11G16G19
  21841025.053     6142332.244 6   4682076.40021
  20806393.287   -13265517.150 7 -10172265.68923
  22619795.779    -5972038.743 6  -4535171.76221
  23223292.8114   -5103816.99845  -3923051.21361
  20578751.592    -2103396.853 6  -1619413.32522
 92  5 27 18  5 59.9980000  0  5G18G 2G11G16G19
  21853690.006     6208887.929 6   4733937.80921
  20793365.607   -13333977.793 7 -10225611.61223
  22620168.3424   -5970083.11846  -4533647.91661
  23223539.0144   -5102528.55445  -3922047.30461
  20578649.998    -2103934.281 6  -1619832.14222
 92  5 27 18  6 29.9980000  0  5G18G 2G11G16G19
  21866400.912     6275682.027 6   4785985.00221
  20780379.826   -13402217.425 7 -10278785.32323
  22620645.2014   -5967579.85146  -4531697.34261
  23223861.6234   -5100835.91945  -3920728.43861
  20578583.420    -2104293.762 6
 92  5 27 18  6 59.9980000  0  5G18G 2G11G16G19
  21879159.193     6342726.096 6   4838226.97421
  20767437.842   -13470228.752 7 -10331781.13023
  22621228.670    -5964518.945 6  -4529312.24621
  23224255.232    -5098740.785 5  -3919095.93421
  20578549.615    -2104453.257 6
 92  5 27 18  7 29.9980000  0  5G18G 2G11G16G19
  21891963.678     6410011.010 6   4890656.62221
  20754542.147   -13537999.598 7 -10384589.54423
  22621914.7404   -5960903.66346  -4526495.16061
  23224728.3034   -5096258.25845  -3917161.55361
  20578562.428    -2104407.833 6
 92  5 27 18  7 59.9980000  0  5G18G 2G11G16G19
  21904810.303     6477518.744 6   4943259.89021
  20741694.279   -13605515.525 7 -10437199.31823
  22622708.6004   -5956737.36046  -4523248.72561
  23225272.8504   -5093408.06145  -3914940.67661
  20578611.6474   -2104135.32546
 92  5 27 18  8 29.9980000  0  5G18G 2G11G16G19
  21917698.303     6545248.207 6   4996035.93521
  20728900.490   -13672744.164 7 -10489585.24023
  22623605.787    -5952012.407 6  -4519566.97821
  23225886.295    -5090190.667 5  -3912433.67521
  20578708.936    -2103624.596 6  -1619591.00922
 92  5 27 18  8 59.9980000  0  5G18G 2G11G16G19
  21930626.787     6613187.674 6   5048975.61221
  20716162.522   -13739680.032 7 -10541743.02223
  22624610.420    -5946737.231 6  -4515456.47221
  23226565.2724   -5086615.68445  -3909648.02461
  20578850.459    -2102886.353 6  -1619015.78522
 92  5 27 18  9 29.9980000  0  5G18G 2G11G16G19
  21943597.100     6681346.350 6   5102086.10321
  20703481.842   -13806317.989 7 -10593668.66823
  22625721.9824   -5940903.36746  -4510910.61861
  23227314.7564   -5082670.06145  -3906573.56561
  20579034.701    -2101912.012 6  -1618256.58722
 92  5 27 18  9 59.9980000  0  5G18G 2G11G16G19
  21956609.647     6749725.660 6   5155368.52521
  20690855.186   -13872673.273 7 -10645374.03923
  22626936.7644   -5934521.31746  -4505937.60961
  23228138.272    -5078337.479 5  -3903197.58121
  20579266.084    -2100713.656 6  -1617322.83422
 92  5 27 18 10 29.9980000  0  5G18G 2G11G16G19
  21969666.600     6818344.417 6   5208837.52321
  20678281.529   -13938751.849 7 -10696863.79623
  22628254.436    -5927589.274 6  -4500536.04021
  23229046.639    -5073585.282 5  -3899494.63121
  20579533.600    -2099301.479 6  -1616222.46822
 92  5 27 18 10 59.9980000  0  5G18G 2G11G16G19
  21982769.686     6887196.489 6   5262488.32921
  20665756.334   -14004570.590 7 -10748151.07223
  22629676.6474   -5920115.12646  -4494712.04561
  23230030.912    -5068412.179 5  -3895463.70621
  20579840.717    -2097676.891 6  -1614956.58322
 92  5 27 18 11 29.9980000  0  5G18G 2G11G16G19
  21995917.1314    6956286.92246   5316324.85961
  20653280.756   -14070129.096 7 -10799235.57423
  22631202.850    -5912094.492 6  -4488462.23021
  23231094.6864   -5062815.13945  -3891102.43761
  20580191.772    -2095838.652 6  -1613524.22022
 92  5 27 18 11 59.9980000  0  5G18G 2G11G16G19
  22009109.889     7025614.406 6   5370346.10721
  20640856.022   -14135417.005 7 -10850109.22423
  22632834.061    -5903526.356 6  -4481785.78721
  23232239.647    -5056805.224 5  -3886419.47821
  20580579.037    -2093796.609 6  -1611933.04722
 92  5 27 18 12 29.9980000  0  5G18G 2G11G16G19
  22022344.061     7095157.757 6   5424535.56221
  20628480.342   -14200454.590 7 -10900787.82323
  22634566.3114   -5894421.50346  -4474691.10961
  23233454.5614   -5050416.41245  -3881441.24961
  20581004.475    -2091559.819 6  -1610190.12622
 92  5 27 18 12 59.9980000  0  5G18G 2G11G16G19
  22035620.1474    7164923.50846   5478898.30661
  20616152.889   -14265239.186 7 -10951269.28523
  22636405.0224   -5884764.76046  -4467166.38861
  23234738.928    -5043658.236 5  -3876175.22621
  20581470.131    -2089113.884 6  -1608284.23422
 92  5 27 18 13 29.9980000  0  5G18G 2G11G16G19
  22048934.3424    7234895.84546   5533422.03461
  20603866.748   -14329800.060 7 -11001576.42023
  22638344.1544   -5874579.14746  -4459229.55461
  23236091.1474   -5036560.66545  -3870644.72161
  20581971.639    -2086483.062 6  -1606234.27022
 92  5 27 18 13 59.9980000  0  5G18G 2G11G16G19
  22062292.8344    7305090.28746   5588118.82861
  20591625.795   -14394128.048 8 -11051702.08323
  22640385.0224   -5863851.88446  -4450870.65761
  23237511.7404   -5029093.05745  -3864825.89561
  20582510.303    -2083652.276 6  -1604028.49122
 92  5 27 18 14 29.9980000  0  5G18G 2G11G16G19
  22075692.7014    7375506.55446   5642988.47761
  20579429.365   -14458219.909 8 -11101643.75023
  22642528.3654   -5852579.73146  -4442087.15961
  23239008.6544   -5021233.91945  -3858701.96661
  20583091.0684   -2080606.92046  -1601655.51262
 92  5 27 18 14 59.9980000  0  5G18G 2G11G16G19
  22089134.0534    7446139.19946   5698026.72861
  20567282.732   -14522052.920 8 -11151383.71423
  22644776.2014   -5840769.76746  -4432884.60561
  23240582.9674   -5012986.23345  -3852275.26661
  20583707.4674   -2077357.46846  -1599123.49762
 92  5 27 18 15 29.9980000  0  5G18G 2G11G16G19
  22102615.3504    7516985.14346   5753231.18261
  20555188.545   -14585604.343 8 -11200904.26523
  22647126.3654   -5828420.12546  -4423261.51361
  23242223.5764   -5004341.62145  -3845539.26961
  20584368.631    -2073889.576 6  -1596421.27522
 92  5 27 18 15 59.9980000  0  5G18G 2G11G16G19
  22116135.4824    7588027.76246   5808588.88961
  20543151.529   -14648860.499 8 -11250194.73823
  22649576.4044   -5815540.80746  -4413225.68661
  23243942.732    -4995308.811 5  -3838500.79721
  20585069.420    -2070209.767 6  -1593553.91622
 92  5 27 18 16 29.9980000  0  5G18G 2G11G16G19
  22129689.1544    7659255.22846   5864090.62861
  20531172.561   -14711812.066 8 -11299247.86723
  22652128.2484   -5802137.97546  -4402781.92261
  23245727.678    -4985915.759 5  -3831181.63021
  20585808.365    -2066320.784 6  -1590523.56622
 92  5 27 18 16 59.9980000  0  5G18G 2G11G16G19
  22143282.0294    7730683.01246   5919748.46561
  20519251.529   -14774454.120 8 -11348059.81123
  22654779.6934   -5788204.51346  -4391924.68461
  23247581.514    -4976170.815 5  -3823588.25521
  20586587.287    -2062222.710 6  -1587330.29322
 92  5 27 18 17 29.9980000  0  5G18G 2G11G16G19
  22156913.420     7802313.785 6   5975564.48121
  20507387.584   -14836802.800 8 -11396643.15823
  22657532.7794   -5773738.12346  -4380652.17261
  23249507.5294   -4966067.18245  -3815715.37461
  20587408.561    -2057913.600 6  -1583972.57422
 92  5 27 18 17 59.9980000  0  5G18G 2G11G16G19
  22170584.0144    7874155.69946   6031545.01261
  20495579.381   -14898852.386 8 -11444993.44023
  22660386.6474   -5758730.71146  -4368958.07861
  23251498.1234   -4955603.03945  -3807561.57461
  20588268.600    -2053394.202 6  -1580450.99522
 92  5 27 18 18 29.9970000  0  5G18G 2G11G16G19
  22184292.5174    7946193.46446   6087678.14461
  20483822.415   -14960635.468 8 -11493136.06323
  22663343.7984   -5743192.60746  -4356850.46661
  23253552.517    -4944804.254 5  -3799147.02821
  20589168.228    -2048675.386 6  -1576774.02822
 92  5 27 18 18 59.9970000  0  5G18G 2G11G16G19
  22198038.0954    8018427.89446   6143964.52061
  20472112.462   -15022169.399 8 -11541084.53723
  22666403.0564   -5727122.76846  -4344328.53061
  23255670.4314   -4933667.75945  -3790469.32761
  20590106.017    -2043743.947 6  -1572931.38522
 92  5 27 18 19 29.9970000  0  5G18G 2G11G16G19
  22211818.5244    8090839.59446   6200389.02861
  20460451.970   -15083446.378 8 -11588832.78823
  22669562.6264   -5710516.47546  -4331388.56661
  23257855.2514   -4922184.70245  -3781521.55761
  20591087.220    -2038581.094 6  -1568908.42122
 92  5 27 18 19 59.9970000  0  5G18G 2G11G16G19
  22225629.6574    8163418.99246   6256944.19861
  20448838.837   -15144475.675 8 -11636388.05023
  22672824.4154   -5693378.25246  -4318034.11461
  23260107.892    -4910361.724 5  -3772308.93821
  20592113.923    -2033178.129 6  -1564698.36522
 92  5 27 18 20 29.9970000  0  5G18G 2G11G16G19
  22239471.4234    8236165.00346   6313629.21761
  20437271.032   -15205266.326 8 -11683757.34823
  22676185.4314   -5675714.23346  -4304269.94761
  23262424.0244   -4898198.75845  -3762831.40461
  20593190.204    -2027532.994 6  -1560299.59922
 92  5 27 18 20 59.9970000  0  5G18G 2G11G16G19
  22253352.4784    8309103.22446   6370464.00161
  20425754.399   -15265784.232 8 -11730914.11423
  22679649.7744   -5657509.29446  -4290084.27861
  23264808.2744   -4885656.63245  -3753058.39261
  20594314.103    -2021623.911 6  -1555695.15122
 92  5 27 18 21 29.9970000  0  5G18G 2G11G16G19
  22267271.3994    8382246.62646   6427458.64661
  20414291.454   -15326022.051 8 -11777852.63623
  22683218.2284   -5638759.79446  -4275474.28661
  23267268.665    -4872733.602 5  -3742988.59421
  20595488.993    -2015451.133 6  -1550885.24422
 92  5 27 18 21 59.9970000  0  5G18G 2G11G16G19
  22281232.939     8455610.367 6   6484624.98621
  20402882.306   -15385978.023 8 -11824571.53523
  22686888.5244   -5619471.72146  -4260444.62261
  23269797.0484   -4859433.41945  -3732624.91861
  20596712.509    -2009022.363 6  -1545875.85722
 92  5 27 18 22 29.9970000  0  5G18G 2G11G16G19
  22295233.173     8529187.235 6   6541957.39121
  20391529.079   -15445641.587 8 -11871062.59023
  22690659.1104   -5599652.01846  -4245000.71061
  23272397.939    -4845767.696 5  -3721976.39921
  20597986.360    -2002342.115 6  -1540670.51422
 92  5 27 18 22 59.9970000  0  5G18G 2G11G16G19
  22309276.556     8602982.147 6   6599459.70321
  20380233.603   -15504996.463 8 -11917313.10123
  22694533.0484   -5579289.11146  -4229133.52161
  23275069.3684   -4831730.09445  -3711038.11161
  20599306.196    -1995405.771 6  -1535265.62022
 92  5 27 18 23 29.9970000  0  5G18G 2G11G16G19
  22323360.274     8676989.003 6   6657127.16921
  20368998.267   -15564041.799 8 -11963322.42023
  22698514.2594   -5558375.41346  -4212837.15061
  23277812.9624   -4817324.26545  -3699812.89161
  20600673.610    -1988207.453 6  -1529656.59222
 92  5 27 18 23 59.9970000  0  5G18G 2G11G16G19
  22337480.009     8751191.693 6   6714947.23121
  20357820.282   -15622780.342 8 -12009092.66623
  22702595.798    -5536920.908 6  -4196119.39021
  23280625.720    -4802556.471 5  -3688305.60021
  20602089.024    -1980766.899 6  -1523858.79422
 92  5 27 18 24 29.9970000  0  5G18G 2G11G16G19
  22351636.3214    8825584.00546   6772915.04461
  20346700.767   -15681214.879 8 -12054626.03123
  22706783.6344   -5514917.43446  -4178973.85561
  23283500.962    -4787429.359 4  -3676518.33121
  20603552.220    -1973081.068 6  -1517869.86722
 92  5 27 18 24 59.9970000  0  5G18G 2G11G16G19
  22365833.220     8900183.239 6   6831044.09521
  20335636.876   -15739352.749 8 -12099928.23123
  22711078.5714   -5492353.51146  -4161391.59961
  23286451.564    -4771931.245 5  -3664441.98021
  20605062.884    -1965142.945 6  -1511684.35422
 92  5 27 18 25 29.9970000  0  5G18G 2G11G16G19
  22380067.181     8974984.731 6   6889330.74021
  20324628.837   -15797202.667 8 -12145006.05023
  22715477.4704   -5469237.41046  -4143379.07061
  23289467.4854   -4756073.22845  -3652085.19861
  20606622.884    -1956947.358 6  -1505298.22022
 92  5 27 18 25 59.9970000  0  5G18G 2G11G16G19
  22394340.2354    9049992.56146   6947778.16861
  20313675.689   -15854758.435 8 -12189854.66323
  22719981.392    -5445563.099 6  -4124931.58421
  23292552.462    -4739847.589 5  -3639441.94021
  20608232.720    -1948487.657 6  -1498706.28622
 92  5 27 18 26 29.9970000  0  5G18G 2G11G16G19
  22408652.345     9125207.840 6   7006387.25121
  20302780.001   -15912017.974 8 -12234472.44723
  22724594.423    -5421326.673 6  -4106046.09221
  23295712.6034   -4723249.23245  -3626508.26261
  20609895.587    -1939744.649 6  -1491893.59022
 92  5 27 18 26 59.9970000  0  5G18G 2G11G16G19
  22423007.470     9200635.214 6   7065161.60321
  20291943.173   -15968967.195 8 -12278848.42523
  22729313.2514   -5396531.66846  -4086725.33561
  23298945.321    -4706268.911 5  -3613276.93321
  20611613.048    -1930710.403 6  -1484853.95422
 92  5 27 18 27 29.9970000  0  5G18G 2G11G16G19
  22437397.767     9276258.292 6   7124088.44221
  20281166.259   -16025596.754 8 -12322975.31423
  22734135.665    -5371183.094 6  -4066973.22821
  23302250.532    -4688894.042 5  -3599738.19221
  20613389.876    -1921389.190 6  -1477590.70822
 92  5 27 18 27 59.9970000  0  5G18G 2G11G16G19
  22451823.431     9352062.138 6   7183156.13721
  20270448.446   -16081920.600 8 -12366863.98923
  22739063.743    -5345295.444 6  -4046801.07421
  23305631.9624   -4671135.18445  -3585900.22061
  20615215.298    -1911796.080 6  -1470115.59222
 92  5 27 18 28 29.9970000  0  6G18G 2G11G16G19G15
  22466285.985     9428061.610 6   7242376.27421
  20259789.110   -16137934.080 8 -12410510.81423
  22744091.759    -5318870.322 6  -4026210.09521
  23309081.860    -4653006.466 5  -3571774.05121
  20617093.345    -1901923.376 6  -1462422.61322
  24546191.6494         -0.75953
 92  5 27 18 28 59.9970000  0  6G18G 2G11G16G19G15
  22480785.3064    9504255.14546   7301747.60961
  20249188.110   -16193644.354 8 -12453921.37423
  22749220.071    -5291913.450 6  -4005204.77321
  23312599.556    -4634520.638 5  -3557369.61721
  20619024.376    -1891777.649 6  -1454516.88722
  24527772.5644     -96775.48644
 92  5 27 18 29 29.9970000  0  6G18G 2G11G16G19G15
  22495316.1264    9580615.48746   7361248.93561
  20238639.360   -16249079.167 8 -12497117.29223
  22754448.845    -5264443.193 6  -3983799.41621
  23316177.743    -4615717.143 5  -3542717.64221
  20621002.837    -1881379.156 6  -1446414.20922
  24509382.8844    -193430.35744
 92  5 27 18 29 59.9970000  0  6G18G 2G11G16G19G15
  22509877.9394    9657135.27446   7420874.49161
  20228139.774   -16304256.283 8 -12540112.41123
  22759770.548    -5236481.041 6  -3962010.75921
  23319808.298    -4596638.685 5  -3527851.40621
  20623027.728    -1870739.492 6  -1438123.59922
  24491005.1034    -289996.26943        -0.27271
 92  5 27 18 30 29.9970000  0  6G18G 2G11G16G19G15
  22524464.259     9733783.872 6   7480600.42621
  20217683.579   -16359204.442 8 -12582929.11923
  22765178.5404   -5208053.75346  -3939859.66061
  23323487.501    -4577304.129 5  -3512785.62221
  20625094.173    -1859882.049 6  -1429663.29922
  24472642.0644    -386497.76343    -75196.01961
 92  5 27 18 30 59.9970000  0  6G18G 2G11G16G19G15
  22539070.689     9810541.094 6   7540410.99721
  20207267.814   -16413937.547 8 -12625578.24923
  22770675.806    -5179170.132 6  -3917352.97521
  23327217.306    -4557706.341 5  -3497514.71121
  20627198.064    -1848823.665 6  -1421046.41922
  24454290.571     -482945.905 3   -150350.11721
 92  5 27 18 31 29.9970000  0  6G18G 2G11G16G19G15
  22553697.9234    9887410.33246   7600308.86061
  20196892.806   -16468457.837 8 -12668061.55323
  22776257.704    -5149835.940 6  -3894495.19921
  23330997.2674   -4537844.74245  -3482038.24861
  20629341.540    -1837568.730 6  -1412276.38022
  24435945.8454    -579345.42243   -225466.38361
 92  5 27 18 31 59.9970000  0  6G18G 2G11G16G19G15
  22568346.1034    9964387.02946   7660290.45261
  20186555.610   -16522778.604 8 -12710389.38023
  22781922.6494   -5120063.19346  -3871295.68561
  23334828.5014   -4517706.35345  -3466346.09461
  20631519.157    -1826123.679 6  -1403358.19722
  24417608.978     -675689.120 3   -300539.14221
 92  5 27 18 32 29.9970000  0  6G18G 2G11G16G19G15
  22583008.946    10041441.323 6   7720332.50021
  20176252.610   -16576921.565 8 -12752578.66123
  22787669.157    -5089866.669 6  -3847765.95821
  23338711.4784   -4497305.09345  -3450449.12061
  20633727.454    -1814515.660 6  -1394313.02422
  24399284.7594    -771977.90843   -375569.14061
 92  5 27 18 32 59.9970000  0  6G18G 2G11G16G19G15
  22597687.829    10118576.326 6   7780437.43321
  20165985.165   -16630878.102 8 -12794622.67523
  22793496.454    -5059246.877 6  -3823906.40721
  23342640.759    -4476667.993 5  -3434368.39121
  20635965.392    -1802754.178 6  -1385148.26922
  24380977.5954    -868211.81644   -450556.36661
 92  5 27 18 33 29.9970000  0  6G18G 2G11G16G19G15
  22612381.306    10195788.618 6   7840602.58021
  20155753.360   -16684646.092 8 -12836519.77323
  22799403.407    -5028209.108 6  -3799721.16321
  23346609.462    -4455809.220 5  -3418114.93621
  20638235.689    -1790826.499 6  -1375854.00922
  24362671.6494    -964393.50044   -525502.90161
 92  5 27 18 33 59.9970000  0  6G18G 2G11G16G19G15
  22627082.821    10273051.613 6   7900807.24021
  20145555.157   -16738239.840 8 -12878281.09923
  22805385.610    -4996769.770 6  -3775223.01521
  23350616.0644   -4434750.78945  -3401705.89861
  20640533.923    -1778745.326 6  -1366440.13522
  24344377.306    -1060539.160 3   -600421.38621
 92  5 27 18 34 29.9970000  0  6G18G 2G11G16G19G15
  22641795.985    10350364.823 6   7961051.03521
  20135395.212   -16791627.462 8 -12919881.80623
  22811447.1894   -4964917.67046  -3750403.22761
  23354656.7204   -4413507.11245  -3385152.51361
  20642863.837    -1766495.014 6  -1356894.47122
  24326087.1264   -1156653.17743   -675315.17261
 92  5 27 18 34 59.9970000  0  6G18G 2G11G16G19G15
  22656517.368    10427718.745 6   8021326.54821
  20125274.673   -16844812.746 8 -12961324.84623
  22817582.587    -4932669.715 6  -3725274.98921
  23358735.6964   -4392083.23845  -3368458.68661
  20645233.204    -1754068.020 6  -1347211.13922
  24307799.759    -1252741.900 3   -750189.30721
 92  5 27 18 35 29.9970000  0  6G18G 2G11G16G19G15
  22671245.5404   10505118.85946   8081638.06761
  20115193.399   -16897790.490 8 -13002606.17323
  22823796.290    -4900019.891 6  -3699833.60621
  23362852.8684   -4370449.27245  -3351601.17461
  20647633.024    -1741446.198 6  -1337375.99222
  24289523.1104   -1348779.71943   -825023.73061
 92  5 27 18 35 59.9970000  0  6G18G 2G11G16G19G15
  22685983.431    10582561.646 6   8141982.82521
  20105153.774   -16950545.951 8 -13043714.29723
  22830087.860    -4866957.309 6  -3674070.59721
  23367010.2514   -4348600.56445  -3334576.34561
  20650072.024    -1728626.442 6  -1327386.61722
  24271263.4074   -1444738.40843   -899796.52761
 92  5 27 18 36 29.9970000  0  6G18G 2G11G16G19G15
  22700727.0714   10660040.58346   8202355.75661
  20095155.2514  -17003087.49948 -13084655.73963
  22836457.399    -4833491.395 6  -3647993.30321
  23371208.3294   -4326540.84645  -3317387.05761
  20652545.517    -1715619.163 6  -1317251.12022
  24253020.2284   -1540609.57743   -974501.15961
 92  5 27 18 36 59.9970000  0  6G18G 2G11G16G19G15
  22715480.876    10737574.179 6   8262771.29021
  20085194.665   -17055435.453 8 -13125446.32523
  22842901.446    -4799620.985 6  -3621600.80621
  23375450.9464   -4304250.70045  -3300018.25461
  20655057.649    -1702420.224 6  -1306966.27322
  24234799.0244   -1636371.23243  -1049120.38961
 92  5 27 18 37 29.9970000  0  6G18G 2G11G16G19G15
  22730244.423    10815156.725 6   8323224.93621
  20075267.931   -17107598.143 8 -13166092.54423
  22849425.009    -4765342.307 6  -3594890.19321
  23379736.0404   -4281726.35045  -3282466.92761
  20657605.274    -1689037.343 6  -1296538.08822
  24216594.610    -1732031.914 4  -1123661.02921
 92  5 27 18 37 59.9970000  0  6G18G 2G11G16G19G15
  22745014.665    10892772.135 5   8383704.20221
  20065374.5644  -17159590.11448 -13206605.74163
  22856023.939    -4730665.262 6  -3567869.16221
  23384059.946    -4258994.530 4  -3264753.92721
  20660185.517    -1675476.137 6  -1285970.95922
  24198403.610    -1827612.306 3  -1198139.07721
 92  5 27 18 38 29.9970000  0  6G18G 2G11G16G19G15
  22759795.8764   10970444.89345   8444228.13661
  20055511.774   -17211417.459 8 -13246990.65923
  22862698.587    -4695583.152 6  -3540532.49521
  23388429.7594   -4236035.95644  -3246864.23461
  20662803.079    -1661731.007 6  -1275260.50422
  24180233.478    -1923110.972 3  -1272553.46021
 92  5 27 18 38 59.9970000  0  6G18G 2G11G16G19G15
  22774584.681    11048155.366 5   8504781.45021
  20045679.118   -17263090.809 8 -13287255.58123
  22869451.298    -4660106.466 6  -3512888.36021
  23392839.5094   -4212873.00245  -3228815.30561
  20665449.642    -1647816.872 6  -1264418.37522
  24162071.017    -2018546.679 3  -1346918.73821
 92  5 27 18 39 29.9970000  0  6G18G 2G11G16G19G15
  22789377.4544   11125901.23045   8565362.34861
  20035879.954   -17314583.168 8 -13327379.45923
  22876276.392    -4624233.850 6  -3484935.71321
  23397281.5174   -4189517.87545  -3210616.63561
  20668129.1264   -1633732.28746  -1253443.43262
  24143924.876    -2113910.870 3  -1421228.33321
 92  5 27 18 39 59.9970000  0  6G18G 2G11G16G19G15
  22804182.5174   11203700.52245   8625984.87961
  20026118.290   -17365882.285 8 -13367352.77323
  22883177.970    -4587966.552 6  -3456675.51621
  23401759.3064   -4165980.79545  -3192276.16061
  20670843.001    -1619469.884 6  -1242329.92922
  24125793.735    -2209182.108 3  -1495465.47121
 92  5 27 18 40 29.9970000  0  6G18G 2G11G16G19G15
  22818999.126    11281563.260 5   8686656.86121
  20016396.329   -17416971.417 8 -13407162.46323
  22890155.087    -4551304.031 6  -3428107.36221
  23406276.0094   -4142251.54744  -3173785.96861
  20673592.7124   -1605025.20446  -1231074.39262
  24107684.243    -2304352.087 3  -1569623.72521
 92  5 27 18 40 59.9970000  0  6G18G 2G11G16G19G15
  22833826.743    11359476.553 5   8747368.21521
  20006716.962   -17467837.262 8 -13446798.15723
  22897205.095    -4514252.670 6  -3399236.20621
  23410824.212    -4118349.546 4  -3155161.16721
  20676377.532    -1590389.942 6  -1219670.34522
  24089592.064    -2399412.171 3  -1643696.35221
 92  5 27 18 41 29.9970000  0  6G18G 2G11G16G19G15
  22848666.5954   11437457.86745   8808132.59961
  19997080.751   -17518477.012 8 -13486257.67923
  22904331.603    -4476806.056 6  -3370057.05121
  23415409.649    -4094261.344 5  -3136391.30521
  20679202.4854   -1575544.55446  -1208102.55662
  24071528.626    -2494339.812 3  -1717665.81321
 92  5 27 18 41 59.9970000  0  6G18G 2G11G16G19G15
  22863516.1654   11515495.66445   8868940.95761
  19987481.9624  -17568914.87748 -13525559.89163
  22911532.892    -4438966.699 6  -3340571.86821
  23420029.665    -4069985.406 4  -3117475.10721
  20682067.5874   -1560491.47146  -1196372.93862
  24053489.3374   -2589147.70243  -1791541.94161
 92  5 27 18 42 29.9970000  0  6G18G 2G11G16G19G15
  22878372.0324   11593562.89545   8929772.27261
  19977922.7124  -17619156.29548 -13564709.02863
  22918806.399    -4400740.015 6  -3310784.87921
  23424680.8924   -4045532.14144  -3098420.79361
  20684969.0794   -1545236.53146  -1184486.02562
  24035469.1424   -2683844.41743  -1865331.44861
 92  5 27 18 42 59.9970000  0  6G18G 2G11G16G19G15
  22893230.8684   11671639.95845   8990611.22961
  19968397.6734  -17669204.17748 -13603707.35663
  22926154.056    -4362125.674 6  -3280695.81621
  23429369.509    -4020895.248 4  -3079223.40621
  20687910.1654   -1529782.64246  -1172444.09162
  24017470.774    -2778419.532 4  -1939026.17921
 92  5 27 18 43 29.9970000  0  6G18G 2G11G16G19G15
  22908087.462    11749719.575 5   9051452.18521
  19958909.9934  -17719064.14148 -13642559.25464
  22933576.556    -4323121.752 6  -3250303.18421
  23434095.134    -3996061.819 4  -3059872.84121
  20690890.259    -1514125.981 6  -1160244.14522
  23999496.587    -2872876.199 4  -2012628.60821
 92  5 27 18 43 59.9960000  0  6G18G 2G11G16G19G15
  22922942.6214   11827778.61645   9112277.10661
  19949459.7234  -17768725.78048 -13681256.61563
  22941070.059    -4283740.679 6  -3219616.68521
  23438858.715    -3971040.804 4  -3040376.12821
  20693908.231    -1498280.893 6  -1147897.37622
  23981545.7074   -2967212.45044  -2086137.23061
 92  5 27 18 44 29.9960000  0  6G18G 2G11G16G19G15
  22937797.3634   11905833.15445   9173098.50761
  19940051.0204  -17818171.57048 -13719785.78163
  22948637.8634   -4243975.53046  -3188630.88561
  23443655.9574   -3945820.13044  -3020723.82761
  20696957.527    -1482240.749 6  -1135398.60322
  23963620.066    -3061414.285 4  -2159541.08221
 92  5 27 18 44 59.9960000  0  6G18G 2G11G16G19G15
  22952651.285    11983895.220 5   9233925.76021
  19930680.1214  -17867415.24348 -13758157.45363
  22956276.871    -4203832.842 6  -3157350.90921
  23448494.145    -3920401.825 4  -3000917.52621
  20700047.410    -1466014.484 6  -1122754.80822
  23945720.4654   -3155478.38844  -2232837.63661
 92  5 27 18 45 29.9960000  0  6G18G 2G11G16G19G15
  22967513.684    12061997.316 5   9294784.21621
  19921348.2544  -17916454.92948 -13796370.17564
  22963987.7774   -4163303.03546  -3125769.26361
  23453365.1994   -3894797.85544  -2980966.55961
  20703171.402    -1449591.009 6  -1109957.34322
  23927848.348    -3249394.165 4  -2306018.59421
 92  5 27 18 45 59.9960000  0  6G18G 2G11G16G19G15
  22982386.6214   12140141.21545   9355675.23761
  19912051.4184  -17965308.95748 -13834438.23463
  22971773.793    -4122397.805 6  -3093895.09321
  23458270.090    -3869026.017 4  -2960884.79821
  20706332.020    -1432983.030 6  -1097016.11322
  23910001.613    -3343171.372 4  -2379091.57221
 92  5 27 18 46 29.9960000  0  6G18G 2G11G16G19G15
  22997266.410    12218335.145 5   9416605.23521
  19902786.6214  -18013996.13448 -13872376.27563
  22979629.223    -4081114.215 6  -3061726.10421
  23463210.371    -3843085.713 4  -2940671.69021
  20709530.332    -1416173.230 6  -1083917.62022
  23892183.707    -3436812.653 4  -2452058.63021
 92  5 27 18 46 59.9960000  0  6G18G 2G11G16G19G15
  23012155.168    12296585.117 5   9477578.89221
  19893553.379   -18062513.940 8 -13910182.33423
  22987559.918    -4039445.244 6  -3029256.82721
  23468175.465    -3816979.090 4  -2920329.01321
  20712771.020    -1399140.728 6  -1070645.58922
  23874393.9734   -3530301.58344  -2524906.98361
 92  5 27 18 47 29.9960000  0  6G18G 2G11G16G19G15
  23027055.6994   12374875.27345   9538583.87461
  19884354.2854  -18110855.32348 -13947850.92463
  22995558.668    -3997404.236 6  -2996497.64121
  23473174.488    -3790721.918 4  -2899868.96421
  20716059.191    -1381882.375 6  -1057197.57122
  23856632.527    -3623638.779 4  -2597637.09421
 92  5 27 18 47 59.9960000  0  6G18G 2G11G16G19G15
  23041960.215    12453201.807 5   9599617.21121
  19875193.3324  -18158997.11448 -13985363.98763
  23003630.043    -3954987.144 6  -2963445.40121
  23478202.090    -3764291.794 4  -2879274.18821
  20719385.9574   -1364388.45446  -1043566.00062
  23838900.8634   -3716808.36144  -2670236.62861
 92  5 27 18 48 29.9960000  0  6G18G 2G11G16G19G15
  23056869.488    12531547.905 5   9660665.79621
  19866071.8714  -18206931.68948 -14022715.58363
  23011769.9654   -3912209.47446  -2930112.18761
  23483258.8404   -3737711.60044  -2858562.47661
  20722756.5124   -1346673.42046  -1029762.14062
  23821203.4024   -3809807.97544  -2742703.71061
 92  5 27 18 48 59.9960000  0  6G18G 2G11G16G19G15
  23071784.0904   12609926.38245   9721739.58461
  19856997.418   -18254622.096 8 -14059876.91923
  23019983.848    -3869052.901 6  -2896483.72621
  23488349.145    -3710964.040 4  -2837720.38621
  20726167.6604   -1328738.36146  -1015786.82562
  23803544.246    -3902608.932 5  -2815015.97421
 92  5 27 18 49 29.9960000  0  6G18G 2G11G16G19G15
  23086699.848    12688309.127 5   9782816.68921
  19847965.9654  -18302078.69848 -14096856.06664
  23028264.5044   -3825535.59046  -2862574.15861
  23493474.332    -3684052.045 4  -2816750.17121
  20729617.1604   -1310614.14946  -1001664.12862
  23785921.121    -3995230.712 5  -2887188.68321
 92  5 27 18 49 59.9960000  0  6G18G 2G11G16G19G15
  23101615.051    12766686.530 5   9843889.66121
  19838978.1914  -18349307.63048 -14133657.81664
  23036615.285    -3781650.838 6  -2828378.28021
  23498626.113    -3656957.716 3  -2795637.86421
  20733101.4884   -1292302.22146   -987395.15562
  23768327.738    -4087668.383 5  -2959217.91021
 92  5 27 18 50 29.9960000  0  6G18G 2G11G16G19G15
  23116527.0984   12845048.82545   9904950.85361
  19830033.3954  -18396318.09148 -14170289.32463
  23045037.082    -3737400.951 6  -2793897.87521
  23503817.7934   -3629684.97744  -2774386.57861
  20736621.1844   -1273808.85346   -972984.80262
  23750772.1764   -4179926.37745  -3031107.13461
 92  5 27 18 50 59.9960000  0  6G18G 2G11G16G19G15
  23131432.856    12923378.794 5   9965986.83021
  19821122.8874  -18443138.96948 -14206773.11064
  23053522.5984   -3692795.64746  -2759140.52561
  23509043.356    -3602227.876 4  -2752991.62121
  20740175.5824   -1255139.64246   -958437.43062
  23733251.2704   -4272005.64645  -3102857.10361
 92  5 27 18 51 29.9960000  0  6G18G 2G11G16G19G15
  23146337.3564   13001699.94145  10027015.95261
  19812250.1134  -18489768.07448 -14243107.46564
  23062081.629    -3647830.178 6  -2724102.53621
  23514301.801    -3574585.524 4  -2731452.27821
  20743765.5514   -1236267.18846   -943731.69462
  23715763.4104   -4363893.58945  -3174457.97561
 92  5 27 18 51 59.9960000  0  6G18G 2G11G16G19G15
  23161242.387    13080021.991 5  10088045.76321
  19803409.9494  -18536218.78248 -14279302.80363
  23070703.7464   -3602514.31546  -2688791.50161
  23519594.738    -3546783.485 4  -2709788.53921
  20747396.9024   -1217183.31346   -928861.20762
  23698313.9734   -4455598.64745  -3245916.33861
 92  5 27 18 52 29.9960000  0  6G18G 2G11G16G19G15
  23176148.277    13158353.219 5  10149082.72121
  19794604.8324  -18582493.77948 -14315361.22663
  23079393.1064   -3556856.65346  -2653214.12461
  23524909.8954   -3518845.86644  -2688019.13061
  20751068.0434   -1197886.82346   -913825.04862
  23680900.0904   -4547110.30945  -3317224.02961
 92  5 27 18 52 59.9960000  0  6G18G 2G11G16G19G15
  23191059.824    13236712.141 5  10210141.25621
  19785830.4494  -18628604.49548 -14351291.64264
  23088146.4104   -3510863.50246  -2617375.32161
  23530245.8324   -3490794.90144  -2666161.37161
  20754784.2464   -1178371.05546   -898618.02662
  23663520.6294   -4638425.03245  -3388378.25061
 92  5 27 18 53 29.9960000  0  6G18G 2G11G16G19G15
  23205978.395    13315106.030 5  10271227.06321
  19777091.8164  -18674524.00948 -14387073.06663
  23096963.902    -3464524.621 6  -2581267.14121
  23535607.6134   -3462634.55144  -2644218.42861
  20758542.4574   -1158616.05546   -883224.59762
  23646182.8874   -4729541.60945  -3459378.06161
 92  5 27 18 53 59.9960000  0  6G18G 2G11G16G19G15
  23220896.668    13393503.587 5  10332315.67821
  19768388.7624  -18720259.94348 -14422711.45064
  23105846.301    -3417845.033 6  -2544893.45921
  23540986.082    -3434366.196 4  -2622191.32121
  20762344.3874   -1138633.39346   -867653.76862
  23628880.793    -4820468.004 5  -3530229.66321
 92  5 27 18 54 29.9960000  0  6G18G 2G11G16G19G15
  23235815.691    13471901.870 5  10393404.82521
  19759723.4264  -18765796.51548 -14458194.48564
  23114796.473    -3370815.729 6  -2508247.28721
  23546390.0044   -3405978.57644  -2600071.23661
  20766192.4104   -1118417.56746   -851901.25662
  23611616.9344   -4911187.80245  -3600920.30061
 92  5 27 18 54 59.9960000  0  6G18G 2G11G16G19G15
  23250730.3244   13550280.84045  10454478.97661
  19751095.0664  -18811137.69048 -14493525.26164
  23123810.840    -3323441.715 6  -2471332.49521
  23551816.731    -3377458.604 4  -2577848.00321
  20770083.7934   -1097974.78846   -835971.89462
  23594389.098    -5001717.353 5  -3671462.66821
 92  5 27 18 55 29.9960000  0  6G18G 2G11G16G19G15
  23265637.5664   13628615.12144  10515518.30961
  19742507.5984  -18856265.53148 -14528689.80764
  23132890.793    -3275723.009 6  -2434149.11221
  23557270.7074   -3348799.22944  -2555516.14561
  20774014.4654   -1077307.86446   -819867.88062
  23577197.6604   -5092052.77845  -3741853.75061
 92  5 27 18 55 59.9960000  0  6G18G 2G11G16G19G15
  23280537.020    13706911.768 4  10576528.29121
  19733959.5204  -18901188.07548 -14563694.37964
  23142035.6684   -3227667.65046  -2396703.40661
  23562748.652    -3320010.957 4  -2533083.87221
  20777989.8324   -1056426.25846   -803596.57962
  23560047.8244   -5182198.10645  -3812096.73361
 92  5 27 18 56 29.9960000  0  6G18G 2G11G16G19G15
  23295436.8564   13785202.15144  10637533.39461
  19725452.8484  -18945889.06248 -14598526.31464
  23151246.707    -3179265.769 6  -2358987.68021
  23568252.785    -3291085.823 4  -2510544.97221
  20782009.2774   -1035310.11446   -787142.51562
  23542933.379    -5272128.695 5  -3882172.34221
 92  5 27 18 56 59.9960000  0  6G18G 2G11G16G19G15
  23310332.145    13863487.968 4  10698534.89721
  19716987.8954  -18990372.26748 -14633188.54264
  23160524.6914   -3130518.03246  -2321002.45561
  23573781.9184   -3262023.33243  -2487899.02161
  20786070.0434   -1013960.99146   -770506.91062
  23525862.332    -5361835.988 5  -3952073.97021
 92  5 27 18 57 29.9960000  0  6G18G 2G11G16G19G15
  23325231.5124   13941780.74945  10759541.88561
  19708565.0594  -19034636.32448 -14667680.00964
  23169865.488    -3081423.606 6  -2282747.08821
  23579339.543    -3232840.029 4  -2465158.90121
  20790177.5984    -992375.36046   -753687.01262
  23508834.418    -5451311.379 5  -4021794.90321
 92  5 27 18 57 59.9960000  0  6G18G 2G11G16G19G15
  23340135.121    14020089.278 5  10820561.13121
  19700181.6604  -19078691.26448 -14702008.52663
  23179275.0434   -3031982.35746  -2244221.46961
  23584918.8484   -3203522.83644  -2442314.51561
  20794331.0274    -970553.25246   -736682.84762
  23491857.707    -5540533.394 5  -4091318.36321
 92  5 27 18 58 29.9960000  0  6G18G 2G11G16G19G15
  23355034.215    14098391.861 5  10881575.76521
  19691833.7074  -19122557.87148 -14736190.29164
  23188745.1374   -2982212.44045  -2205439.73861
  23590518.1214   -3174087.41343  -2419377.94761
  20798522.2234    -948527.37646   -719519.90762
  23474927.4494   -5629489.99745  -4160635.04461
 92  5 27 18 58 59.9960000  0  6G18G 2G11G16G19G15
  23369937.7464   14176695.83245  10942591.44161
  19683528.0824  -19166203.54048 -14770199.89964
  23198281.8714   -2932092.13945  -2166384.99261
  23596144.707    -3144513.362 3  -2396333.39221
  20802755.3954    -926283.95246   -702187.44762
  23458055.4494   -5718153.28745  -4229723.14461
 92  5 27 18 59 29.9960000  0  6G18G 2G11G16G19G15
  23384837.7544   14254999.39445  11003606.81761
  19675266.0354  -19209623.96748 -14804033.99564
  23207885.4734   -2881626.87545  -2127061.44061
  23601803.5514   -3114795.05843  -2373176.43961
  20807028.840     -903819.945 6   -684683.11322
  23441240.340    -5806519.182 5  -4298579.52721
 92  5 27 18 59 59.9960000  0  6G18G 2G11G16G19G15
  23399736.6994   14333297.39445  11064617.83461
  19667047.6064  -19252814.91548 -14837689.27463
  23217552.231    -2830827.555 5  -2087477.58621
  23607484.9414   -3084928.87544  -2349904.24061
  20811346.957     -881144.031 6   -667013.65421
  23424481.863    -5894588.369 5  -4367204.68821
 92  5 27 19  0 29.9960000  0  6G18G 2G11G16G19G15
  23414637.934    14411597.461 5  11125630.47521
  19658874.5824  -19295760.72348 -14871153.53363
  23227286.809    -2779683.904 5  -2047625.41121
  23613193.934    -3054918.582 4  -2326519.74321
  20815706.1524    -858230.47646   -649159.02162
  23407777.4264   -5982372.75245  -4435607.94661
 92  5 27 19  0 59.9960000  0  6G18G 2G11G16G19G15
  23429535.6454   14489883.58445  11186632.23861
  19650748.5824  -19338461.65148 -14904426.97863
  23237082.2384   -2728199.20645  -2007507.49261
  23618935.629    -3024756.888 4  -2303017.31321
  20820115.5124    -835057.27146   -631102.06361
  23391120.4884   -6069896.97245  -4503808.47761
 92  5 27 19  1 29.9960000  0  6G18G 2G11G16G19G15
  23444430.645    14568170.296 5  11247634.46521
  19642669.7234  -19380918.63548 -14937510.33364
  23246945.457    -2676366.340 5  -1967118.27021
  23624706.5594   -2994433.55143  -2279388.88161
  20824576.5124    -811608.64246   -612830.47761
  23374515.590    -6157157.791 5  -4571803.75621
 92  5 27 19  1 59.9960000  0  6G18G 2G11G16G19G15
  23459331.395    14646460.209 5  11308639.20421
  19634637.5204  -19423129.07548 -14970401.57763
  23256875.871    -2624176.270 5  -1926450.70321
  23630504.527    -2963964.257 4  -2255646.70321
  20829093.5044    -787874.19346   -594336.18361
  23357961.5824   -6244146.64445  -4639587.12161
 92  5 27 19  2 29.9960000  0  6G18G 2G11G16G19G15
  23474228.770    14724755.879 4  11369648.39921
  19626650.1844  -19465105.41748 -15003110.41163
  23266875.5664   -2571620.89745  -1885498.50061
  23636329.1994   -2933354.22644  -2231794.88161
  20833665.3954    -763840.67146   -575608.84261
  23341465.6844   -6330842.85745  -4707142.45961
 92  5 27 19  2 59.9960000  0  6G18G 2G11G16G19G15
  23489131.7704   14803059.80644  11430664.04161
  19618705.4654  -19506854.22248 -15035641.93963
  23276946.9344   -2518703.96745  -1844264.54361
  23642181.957    -2902592.751 4  -2207824.99821
  20838293.8794    -739522.57746   -556659.75761
  23325025.496    -6417222.528 5  -4774451.12021
 92  5 27 19  3 29.9960000  0  6G18G 2G11G16G19G15
  23504035.996    14881386.185 4  11491697.18521
  19610805.5124  -19548368.83948 -15067990.98563
  23287086.5434   -2465423.08345  -1802746.99261
  23648063.4494   -2871686.33744  -2183742.19261
  20842977.7464    -714918.32546   -537487.69562
  23308652.6064   -6503260.52545  -4841493.56961
 92  5 27 19  3 59.9960000  0  6G18G 2G11G16G19G15
  23518943.785    14959727.478 4  11552741.96021
  19602949.8714  -19589648.99648 -15100157.33263
  23297293.324    -2411783.649 5  -1760950.07221
  23653970.934    -2840643.841 4  -2159553.33521
  20847713.9884    -690027.73246   -518092.50961
  23292347.449    -6588949.256 5  -4908263.85521
 92  5 27 19  4 29.9960000  0  7G18G 2G11G16G19G15G13
  23533858.1524   15038095.98544  11613807.91861
  19595143.7074  -19630670.59348 -15132122.20263
  23307569.8164   -2357777.66745  -1718867.51561
  23659906.606    -2809437.283 3  -2135236.61921
  20852505.5744    -664844.17646   -498469.03562
  23276109.113    -6674281.958 5  -4974756.72621
  23837116.8404         -0.78253
 92  5 27 19  4 59.9960000  0  7G18G 2G11G16G19G15G13
  23548775.481    15116490.052 4  11674893.77821
  19587391.4184  -19671408.42148 -15163865.94963
  23317918.9654   -2303401.75645  -1676496.70061
  23665881.2154   -2778053.05443  -2110781.45361
  20857353.6134    -639362.24446   -478613.06062
  23259937.5744   -6759265.81045  -5040977.75061
  23807618.207     -155015.776 3        -0.23431
 92  5 27 19  5 29.9960000  0  7G18G 2G11G16G19G15G13
  23563697.4814   15194909.00944  11735999.05561
  19579693.8874  -19711858.82048 -15195385.72863
  23328333.793    -2248662.419 5  -1633842.70221
  23671883.020    -2746516.040 3  -2086207.23821
  20862261.606     -613574.145 6   -458518.51821
  23243828.824    -6843915.791 5  -5106938.62121
  23778123.9494    -310035.65943   -120794.84961
 92  5 27 19  5 59.9960000  0  7G18G 2G11G16G19G15G13
  23578625.8634   15273356.46544  11797126.53861
  19572049.6064  -19752029.53548 -15226687.57663
  23338822.934    -2193556.524 5  -1590903.05521
  23677914.918    -2714822.896 3  -2061511.34021
  20867227.8564    -587476.79746   -438183.00261
  23227785.0354   -6928227.29845  -5172635.75361
  23748619.738     -465051.534 3   -241586.38321
 92  5 27 19  6 29.9960000  0  7G18G 2G11G16G19G15G13
  23593560.8714   15351831.77344  11858275.73061
  19564458.6134  -19791922.79348 -15257773.21663
  23349378.332    -2138082.469 5  -1547676.53521
  23683974.754    -2682969.580 3  -2036690.59521
  20872254.113     -561069.163 6   -417605.71721
  23211807.809    -7012188.930 5  -5238060.24521
  23719122.856     -620055.800 3
 92  5 27 19  6 59.9960000  0  7G18G 2G11G16G19G15G13
  23608500.926    15430342.716 4  11919452.66821
  19556917.9344  -19831549.70448 -15288651.31863
  23360005.074    -2082232.866 5  -1504157.38021
  23690067.395    -2650953.449 3  -2011743.01921
  20877341.340     -534334.458 6   -396773.56421
  23195902.840    -7095765.665 5  -5303184.81021
  23689633.473     -775035.791 3
 92  5 27 19  7 29.9960000  0  7G18G 2G11G16G19G15G13
  23623453.738    15508914.364 4  11980676.90321
  19549428.9104  -19870902.76648 -15319316.03263
  23370707.9184   -2025992.47145  -1460333.71961
  23696196.762    -2618755.899 3  -1986654.14121
  20882493.223     -507260.047 6   -375676.70921
  23180080.395    -7178916.371 5  -5367977.40521
  23660149.4734    -929969.97743
 92  5 27 19  7 59.9950000  0  7G18G 2G11G16G19G15G13
  23638414.163    15587522.221 4  12041929.39421
  19541991.9524  -19909983.15748 -15349768.27463
  23381482.4684   -1969370.83745  -1416212.98661
  23702355.5774   -2586374.38743  -1961421.87261
  20887704.671     -479873.856 6   -354336.91121
  23164339.8124   -7261631.30445  -5432430.44961
  23630675.499    -1084855.216 3        -0.47831
 92  5 27 19  8 29.9950000  0  7G18G 2G11G16G19G15G13
  23653385.288    15666194.429 4  12103232.00721
  19534614.5934  -19948752.74248 -15379978.33063
  23392333.718    -1912344.826 5  -1371777.16021
  23708557.960    -2553783.513 3  -1936026.50721
  20892980.163     -452157.235 6   -332739.64021
  23148683.2414   -7343893.25145  -5496530.49461
  23601212.8274   -1239676.63643   -120640.46261
 92  5 27 19  8 59.9950000  0  7G18G 2G11G16G19G15G13
  23668367.616    15744929.813 4  12164583.83721
  19527295.6244  -19987213.97748 -15409948.11263
  23403258.9134   -1854925.97545  -1327035.22761
  23714799.483    -2520990.588 4  -1910473.70121
  20898317.257     -424113.549 6   -310887.51621
  23133113.8194   -7425717.66145  -5560289.61061
  23571764.4604   -1394433.00543
 92  5 27 19  9 29.9950000  0  7G18G 2G11G16G19G15G13
  23683360.2104   15823715.45444  12225974.83761
  19520036.4524  -20025362.71848 -15439674.39163
  23414257.9834   -1797131.30845  -1282000.44061
  23721072.2964   -2488026.32343  -1884787.33961
  20903711.382     -395758.861 6   -288793.04921
  23117620.0384   -7507142.26245  -5623737.16961
  23542326.0624   -1549135.34643        -0.31771
 92  5 27 19  9 59.9950000  0  7G18G 2G11G16G19G15G13
  23698359.1164   15902535.64144  12287392.75061
  19512835.5694  -20063201.89548 -15469159.45863
  23425325.7104   -1738972.51845  -1236681.91461
  23727369.9374   -2454927.03343  -1858995.74561
  20909166.390     -367090.519 6   -266454.17421
  23102196.6714   -7588188.23245  -5686889.69061
  23512893.210    -1703789.164 3
 92  5 27 19 10 29.9950000  0  7G18G 2G11G16G19G15G13
  23713362.6164   15981369.64544  12348821.45161
  19505684.3904  -20100780.19448 -15498441.24363
  23436455.4444   -1680484.73945  -1191107.02961
  23733687.8044   -2421741.03044  -1833136.58261
  20914683.163     -338109.008 6   -243871.27621
  23086839.233    -7668889.678 5  -5749773.76921
  23483468.077    -1858424.213 3
 92  5 27 19 10 59.9950000  0  7G18G 2G11G16G19G15G13
  23728363.0074   16060191.32144  12410240.50261
  19498577.3274  -20138127.27848 -15527542.86563
  23447643.8274   -1621689.79045  -1145292.79061
  23740012.335    -2388496.324 4  -1807231.72321
  20920255.116     -308817.579 6   -221046.87821
  23071544.4054   -7749263.93345  -5812402.90361
  23454044.069    -2013056.065 3
 92  5 27 19 11 29.9950000  0  7G18G 2G11G16G19G15G13
  23743353.6874   16138977.07944  12471631.59361
  19491510.2964  -20175266.75148 -15556482.70363
  23458884.929    -1562610.611 5  -1099257.08121
  23746346.671    -2355218.605 4  -1781301.07621
  20925884.304     -279243.257 6   -198002.04921
  23056312.944    -7829311.227 5  -5874777.26321
  23424615.968    -2167702.098 3
 92  5 27 19 11 59.9950000  0  7G18G 2G11G16G19G15G13
  23758335.562    16217708.103 4  12532979.96021
  19484478.5384  -20212219.62448 -15585277.14163
  23470181.296    -1503262.368 5  -1053011.69521
  23752685.1244   -2321904.16444  -1755341.84561
  20931563.093     -249392.940 6   -174742.15721
  23041146.0234   -7909017.33445  -5936885.75561
  23395181.4684   -2322371.39243
 92  5 27 19 12 29.9950000  0  7G18G 2G11G16G19G15G13
  23773300.780    16296344.158 4  12594254.40621
  19477476.2654  -20249015.88148 -15613949.53963
  23481516.4294   -1443679.64845  -1006583.61761
  23759028.280    -2288560.046 3  -1729359.48321
  20937294.132     -219301.815 6   -151294.62521
  23026036.585    -7988405.736 5  -5998746.69021
  23365740.0774   -2477092.39543        -0.26471
 92  5 27 19 12 59.9950000  0  7G18G 2G11G16G19G15G13
  23788244.148    16374874.092 4  12655446.12321
  19470507.5304  -20285638.37148 -15642486.53063
  23492901.562    -1383862.262 5   -959972.67521
  23765382.437    -2255172.919 4  -1703343.65021
  20943057.569     -189000.175 6   -127683.05321
  23010991.577    -8067465.816 5  -6060351.81421
  23336289.819    -2631859.510 3   -120597.63521
 92  5 27 19 13 29.9950000  0  7G18G 2G11G16G19G15G13
  23803163.9834   16453270.23444  12716533.50561
  19463568.3194  -20322099.19448 -15670897.54263
  23504325.2494   -1323835.93845   -913198.90561
  23771740.6404   -2221763.47244  -1677310.39361
  20948857.991     -158518.427 6   -103931.13921
  22996008.8744   -8146219.46045  -6121718.14461
  23306823.2734   -2786692.32043   -241246.24561
 92  5 27 19 13 59.9950000  0  7G18G 2G11G16G19G15G13
  23818050.0774   16531499.31044
  19456660.7104  -20358401.13648 -15699184.75363
  23515783.015    -1263612.570 5   -866271.58421
  23778100.0384   -2188346.09843  -1651270.99361
  20954690.788     -127859.179 6    -80040.91121
  22981073.2264   -8224692.45945  -6182865.81161
  23277346.085    -2941596.400 3   -361950.35421
 92  5 27 19 14 29.9950000  0  7G18G 2G11G16G19G15G13
  23832907.273    16609571.688 4        -0.03731
  19449783.2654  -20394543.32148 -15727347.48063
  23527282.8514   -1203183.40445   -819183.92661
  23784461.569    -2154918.145 3  -1625223.30521
  20960559.585      -97022.274 6    -56012.25121
  22966192.2494   -8302890.44845  -6243799.20061
  23247858.3274   -3096557.70943
 92  5 27 19 14 59.9950000  0  6G18G 2G11G16G19G15
  23847735.2884   16687492.29944     60716.83561
  19442932.1714  -20430546.39048 -15755401.80264
  23538821.0234   -1142560.52645   -771945.32361
  23790818.5154   -2121501.85243  -1599184.76461
  20966460.616      -66012.528 6    -31848.91021
  22951361.8354   -8380826.16845  -6304528.20861
 92  5 27 19 15 29.9950000  0  7G18G 2G11G16G19G15G13
  23862536.4444   16765266.71943    121319.78961
  19436107.9994  -20466409.34348 -15783346.94863
  23550391.0304   -1081742.05145   -724554.30761
  23797179.499    -2088098.506 3  -1573156.31921
  20972400.804      -34802.714 6     -7529.67621
  22936580.999    -8458502.585 5  -6365055.19021
  23188847.6944    -155079.96944
 92  5 27 19 15 59.9950000  0  7G18G 2G11G16G19G15G13
  23877310.7734   16842911.51443
  19429309.2804  -20502135.54348 -15811185.53364
  23562005.2734   -1020718.91945   -677003.81061
  23803533.069    -2054702.184 4  -1547133.28621
  20978378.577       -3388.509 6     16948.83321
  22921853.4374   -8535901.14445  -6425365.64461
  23159328.874     -310200.026 4
 92  5 27 19 16 29.9950000  0  7G18G 2G11G16G19G15G13
  23892066.226    16920442.114 3        -0.30931
  19422534.6014  -20537735.20748 -15838925.51564
  23573652.6874    -959505.69645   -629305.18061
  23809883.991    -2021322.861 4  -1521123.59621
  20984391.671       28210.789 6     41571.56321
  22907179.523    -8613015.035 5  -6485454.28121
  23129800.7734    -465369.12144        -0.37471
 92  5 27 19 16 59.9950000  0  7G18G 2G11G16G19G15G13
  23906798.499    16997871.558 3
  19415790.0304  -20573179.41048 -15866544.36664
  23585340.874     -898091.178 5   -581449.70621
  23816236.2964   -1987945.93743  -1495115.70461
  20990442.773       60009.016 6     66349.30021
  22892562.944    -8689817.655 5  -6545300.37521
  23100266.226     -620569.875 4   -120935.65321
 92  5 27 19 17 29.9950000  0  7G18G 2G11G16G19G15G13
  23921510.3984   17075195.84643
  19409075.6944  -20608462.45148 -15894037.62764
  23597062.983     -836475.781 5   -533437.72321
  23822585.4604   -1954574.65843  -1469112.22461
  20996528.796       91994.218 6     91272.73021
  22878010.0934   -8766294.02045  -6604892.23761
  23070727.202     -775796.791 4   -241891.26121
 92  5 27 19 17 59.9950000  0  7G18G 2G11G16G19G15G13
  23936209.0154   17152419.38943
  19402393.0464  -20643581.03848 -15921402.74564
  23608829.2334    -774656.25745   -485266.66061
  23828938.335    -1921205.379 3  -1443110.25721
  21002649.921      124160.825 6    116337.50821
  22863521.726    -8842425.164 5  -6664215.11221
  23041185.8904    -931040.55244   -362860.04361
 92  5 27 19 18 29.9950000  0  7G18G 2G11G16G19G15G13
  23950884.3434   17229538.12943
  19395742.9444  -20678525.04448 -15948631.82464
  23620631.3274    -712637.68845   -436940.49961
  23835287.483    -1887838.239 3  -1417110.01021
  21008805.523      156507.813 6    141542.84121
  22849100.9524   -8918205.51345  -6723264.61061
  23011641.702    -1086300.594 4
 92  5 27 19 18 59.9950000  0  7G18G 2G11G16G19G15G13
  23965541.062    17306541.672 3
  19389126.8274  -20713294.73848 -15975725.07864
  23632473.0854    -650410.55045   -388451.81461
  23841635.507    -1854475.293 3  -1391113.01521
  21014997.5774     189040.51046    166892.88261
  22834749.9294   -8993622.90545  -6782031.28261
  22982093.835    -1241561.076 4        -0.21631
 92  5 27 19 19 29.9950000  0  7G18G 2G11G16G19G15G13
  23980168.921    17383418.210 3        -0.41831
  19382541.2654  -20747900.70048 -16002690.74764
  23644353.1244    -587975.63245   -339801.21561
  23847979.1014   -1821122.16143
  21021222.6554     221759.42946    192388.02461
  22820468.3194   -9068673.78445  -6840512.37261
  22952552.116    -1396816.837 4   -120978.31621
 92  5 27 19 19 59.9950000  0  7G18G 2G11G16G19G15G13
  23994770.2734   17460154.97343
  19375989.6404  -20782332.72448 -16029520.88164
  23656272.210     -525331.839 5   -290987.87121
  23854330.327    -1787775.150 3
  21027487.1244     254676.17146    218037.32161
  22806255.0774   -9143356.99045  -6898706.94661
  22923008.038    -1552060.991 4
 92  5 27 19 20 29.9950000  0  6G18G 2G11G19G15G13
  24009349.937    17536765.747 3
  19369472.1014  -20816581.73448 -16056208.40164
  23668237.335     -462467.625 5   -242002.75121
  21033793.3984     287813.56246    243858.54261
  22792117.538    -9217653.942 5  -6956600.53021
  22893470.733    -1707276.021 4
 92  5 27 19 20 59.9950000  0  6G18G 2G11G19G15G13
  24023900.288    17613232.739 3        -0.47731
  19362985.5934  -20850667.41148 -16082768.66264
  23680238.116     -399395.201 5   -192855.42821
  21040141.077      321171.603 6    269851.70721
  22778050.179    -9291582.764 5  -7014207.25821
  22863938.7804   -1862468.12044        -0.17471
 92  5 27 19 21 29.9950000  0  5G 2G11G19G15G13
  19356532.8044  -20884577.19348 -16109191.85464
  23692280.577     -336115.332 5   -143546.40021
  21046537.218      354778.623 6    296038.88121
  22764053.421    -9365144.999 5  -7071528.32721
  22834413.140    -2017631.732 4   -120906.41821
 92  5 27 19 21 59.9950000  0  5G 2G11G19G15G13
  19350114.8514  -20918303.94548 -16135472.42664
  23704363.9374    -272623.66345    -94072.36361
  21052983.4994     388658.49446    322438.66561
  22750123.960    -9438331.212 5  -7128556.39821
  22804892.226    -2172757.214 4   -241783.01121
 92  5 27 19 22 29.9950000  0  5G 2G11G19G15G13
  19343728.5774  -20951865.36348 -16161624.16864
  23716482.835     -208923.790 5    -44436.07921
  21059484.0934     422816.08946    349054.85161
  22736269.851    -9511143.056 5  -7185292.75321
  22775379.171    -2327841.697 4   -362627.64721
 92  5 27 19 22 59.9950000  0  5G 2G11G19G15G13
  19337377.0694  -20985242.84648 -16187632.58764
  23728647.3984    -145006.18345      5369.83761
  21066038.062      457257.829 6    375892.44921
  22722484.249    -9583574.454 5  -7241732.64321
  22745877.8744   -2482869.74644   -483428.31661
 92  5 27 19 23 29.9950000  0  5G 2G11G19G15G13
  19331059.5304  -21018440.90948 -16213501.19764
  23740848.4764     -80884.23545     55335.02161
  21072642.1014     491963.37746    402935.61861
  22708775.866    -9655622.656 5  -7297873.94821
  22716387.5854   -2637848.65244   -604190.70061
 92  5 27 19 23 59.9950000  0  5G 2G11G19G15G13
  19324780.2184  -21051441.18548 -16239215.69064
  23753092.124      -16549.447 5    105466.04121
  21079294.1944     526918.87846    430173.55561
  22695142.374    -9727266.961 5  -7353700.52621
  22686907.6084   -2792764.00745   -724903.55761
 92  5 27 19 24 29.9950000  0  5G 2G11G19G15G13
  19318542.2334  -21084220.01048 -16264757.62364
  23765375.030       47997.921 5    155762.71721
  21085989.554      562105.818 6    457591.84021
  22681586.913    -9798497.454 5  -7409204.65421
  22657440.9524   -2947610.28445   -845562.55861
 92  5 27 19 24 59.9950000  0  5G 2G11G19G15G13
  19312349.5774  -21116761.06448 -16290114.27764
  23777697.3664     112750.07945    206218.95961
  21092731.210      597516.217 6    485184.25021
  22668111.968    -9869310.134 5  -7464383.20721
  22627987.2494   -3102389.44545   -966169.30161
 92  5 27 19 25 29.9950000  0  5G 2G11G19G15G13
  19306200.3434  -21149074.47048 -16315293.54864
  23790055.616      177698.509 5    256828.14621
  21099511.398      633153.452 6    512953.41121
  22654714.077    -9939707.920 5  -7519238.46021
  22598546.905    -3257103.494 5
 92  5 27 19 25 59.9950000  0  5G 2G11G19G15G13
  19300094.9444  -21181157.82948 -16340293.55664
  23802453.905      242849.875 5    307595.47921
  21106339.1244     669044.87746    540920.64461
  22641400.4374  -10009686.84345  -7573767.34961
  22569118.296    -3411739.612 5
 92  5 27 19 26 29.9950000  0  5G 2G11G19G15G13
  19294029.8274  -21213032.21248 -16365130.72864
  23814890.3434     308200.04945    358517.71661
  21113218.429      705200.216 6    569093.52621
  22628160.5854  -10079248.63145  -7627971.17661
  22539708.8584   -3566296.24845        -0.43371
 92  5 27 19 26 59.9950000  0  5G 2G11G19G15G13
  19287998.9214  -21244724.09648 -16389825.68964
  23827357.757      373739.610 5    409587.50321
  21120149.265      741619.764 6    597472.27321
  22615002.4214  -10148397.89845  -7681853.57561
  22510310.9684   -3720776.73145   -120374.43161
 92  5 27 19 27 29.9950000  0  5G 2G11G19G15G13
  19282001.0854  -21276244.13148 -16414386.74364
  23839869.9444     439470.12945    460806.17361
  21127129.405      778296.717 6    626051.60821
  22601923.452   -10217136.106 5  -7735415.65421
  22480929.062    -3875173.483 5   -240683.22621
 92  5 27 19 27 59.9950000  0  5G 2G11G19G15G13
  19276037.7334  -21307582.25548 -16438806.04864
  23852414.0154     505396.00645    512177.01261
  21134155.7104     815220.85846    654823.55261
  22588924.015   -10285445.866 5  -7788643.88621
  22451567.343    -4029476.346 5   -360918.85621
 92  5 27 19 28 29.9950000  0  5G 2G11G19G15G13
  19270106.7024  -21338751.90248 -16463094.07364
  23864996.6404     571506.32845    563691.56061
  21141225.968      852363.187 6    683765.50921
  22576005.429   -10353334.155 5  -7841543.69821
  22422221.5774   -4183690.77145   -481085.59061
 92  5 27 19 28 59.9950000  0  4G 2G19G15G13
  19264209.1164  -21369744.07348 -16487243.80564
  21148336.3274     889728.51446    712881.23261
  22563166.085   -10420793.380 5  -7894109.17321
  22392893.437    -4337805.609 5   -601174.74621
 92  5 27 19 29 29.9950000  0  4G 2G19G15G13
  19258343.9524  -21400565.83248 -16511260.75464
  21155488.3584     927324.01846    742176.31561
  22550409.1484  -10487842.68245  -7946355.24061
  22363585.9214   -4491821.36045   -721186.69261
 92  5 27 19 29 59.9950000  0  4G 2G19G15G13
  19252511.1244  -21431214.28248 -16535142.65264
  21162690.2184     965166.48146    771663.82861
  22537727.4444  -10554473.19145  -7998274.96461
  22334296.7734   -4645733.18645   -841117.63461
 92  5 27 19 30 29.9950000  0  4G 2G19G15G13
  19246711.3904  -21461693.74348 -16558892.86464
  21169937.6404    1003256.29846    801344.08761
  22525126.577   -10620694.203 5  -8049875.61121
  22305025.8824   -4799547.37145   -960972.58261
 92  5 27 19 30 59.9940000  0  4G 2G19G15G13
  19240945.4244  -21491993.81148 -16582503.29364
  21177233.104     1041589.904 6    831214.30621
  22512603.6434  -10686499.38945  -8101152.24861
  22275776.268    -4953258.639 5  -1080747.24121
 92  5 27 19 31 29.9940000  0  4G 2G19G15G13
  19235217.4324  -21522095.57448 -16605959.19864
  21184577.135     1080181.276 6    861285.39321
  22500161.6044  -10751879.75645  -8152097.85361
  22246544.7604   -5106860.01245  -1200436.32561
 92  5 27 19 31 59.9940000  0  4G 2G19G15G13
  19229526.2134  -21552000.93048 -16629262.05564
  21191962.6584    1118995.54246    891530.15661
  22487803.7364  -10816821.72745  -8202701.85261
  22217336.713    -5260358.259 5  -1320045.05221
 92  5 27 19 32 29.9940000  0  4G 2G19G15G13
  19223875.1434  -21581697.51948 -16652402.23664
  21199392.4634    1158038.09546    921952.80761
  22475536.2214  -10881301.25245  -8252945.50461
  22188147.9944   -5413739.18945  -1439562.36461
 92  5 27 19 32 59.9940000  0  4G 2G19G15G13
  19218263.4554  -21611188.47948 -16675382.18764
  21206864.729     1197307.290 6    952552.06721
  22463349.9944  -10945325.81546  -8302834.65161
  22158984.4084   -5567000.32645  -1558986.33961
 92  5 27 19 33 29.9940000  0  4G 2G19G15G13
  19212687.3304  -21640490.18248 -16698214.66464
  21214382.822     1236803.156 6    983327.95421
  22451253.1274  -11008906.55745  -8352377.95561
  22129839.588    -5720150.809 5  -1678324.09521
 92  5 27 19 33 59.9940000  0  4G 2G19G15G13
  19207148.6504  -21669594.99348 -16720893.72264
  21221942.619     1276526.683 6   1014281.23921
  22439237.8074  -11072038.37845  -8401571.44861
  22100718.525    -5873186.166 5  -1797572.12421
 92  5 27 19 34 29.9940000  0  4G 2G19G15G13
  19201645.5414  -21698514.73548 -16743428.57264
  21229543.7604    1316482.96046   1045415.87761
  22427307.3544  -11134732.36245  -8450423.77761
  22071618.104    -6026103.643 5  -1916728.27221
 92  5 27 19 34 59.9940000  0  4G 2G19G15G13
  19196177.2994  -21727250.72448 -16765820.23864
  21237190.7994    1356664.30446   1076725.89661
  22415457.7054  -11197005.56845  -8498948.23761
  22042541.815    -6178900.487 5  -2035790.45621
 92  5 27 19 35 29.9940000  0  4G 2G19G15G13
  19190743.1044  -21755806.39648 -16788071.40264
  21244882.0494    1397080.86846   1108219.20161
  22403688.8304  -11258849.54945  -8547138.22161
  22013490.7834   -6331569.90345  -2154753.29661
 92  5 27 19 35 59.9940000  0  4G 2G19G15G13
  19185340.0574  -21784201.86748 -16810197.72964
  21252613.9864    1437713.87346   1139881.16561
  22392001.783   -11320268.810 5  -8594997.27221
  21984459.752    -6484120.579 5  -2273623.63121
 92  5 27 19 36 29.9940000  0  4G 2G19G15G13
  19179963.3544  -21812455.09748 -16832213.21964
  21260387.6904    1478561.30546   1171710.20661
  22380394.275   -11381264.016 5  -8642525.88521
  21955452.8854   -6636555.74845  -2392403.93461
 92  5 27 19 36 59.9940000  0  4G 2G19G15G13
  19174616.6194  -21840551.57248 -16854106.56264
  21268204.877     1519643.288 6   1203722.01521
  22368869.596   -11441828.292 6  -8689718.70721
  21926468.5724   -6788862.93645  -2511084.50961
 92  5 27 19 37 29.9940000  0  4G 2G19G15G13
  19169299.3614  -21868493.60448 -16875879.56464
  21276068.2684    1560951.49446   1235910.09461
  22357426.7294  -11501956.70246  -8736571.88561
  21897510.775    -6941044.093 5  -2629666.86721
 92  5 27 19 37 59.9940000  0  4G 2G19G15G13
  19164014.1664  -21896271.49748 -16897524.66364
  21283969.924     1602471.134 6   1268262.93121
  22346070.3464  -11561633.66946  -8783073.28861
  21868574.697    -7093097.093 5  -2748149.37921
 92  5 27 19 38 29.9940000  0  4G 2G19G15G13
  19158763.2914  -21923861.25548 -16919023.16764
  21291908.815     1644211.568 6   1300787.81121
  22334800.3384  -11620861.75146  -8829224.92361
  21839666.697    -7245008.064 5  -2866521.21621
 92  5 27 19 38 59.9940000  0  4G 2G19G15G13
  19153548.0964  -21951269.62048 -16940380.32664
  21299892.0494    1686158.37346   1333473.50061
  22323611.377   -11679652.547 6  -8875035.82421
  21810784.7604   -7396782.00945  -2984786.31161
 92  5 27 19 39 29.9940000  0  4G 2G19G15G13
  19148364.3934  -21978511.85948 -16961608.03664
  21307909.986     1728295.672 6   1366307.61321
  22312509.080   -11737995.015 5  -8920497.37621
  21781927.5494   -7548427.08245  -3102950.92961
 92  5 27 19 39 59.9940000  0  4G 2G19G15G13
  19143208.0254  -22005604.34848 -16982719.05964
  21315969.275     1770641.302 6   1399304.06721
  22301493.088   -11795890.489 5  -8965610.62521
  21753094.588    -7699942.105 5  -3221014.27921
 92  5 27 19 40 29.9940000  0  4G 2G19G15G13
  19138077.4634  -22032569.17648 -17003730.60964
  21324067.643     1813205.738 5   1432471.00421
  22290556.5254  -11853359.28946  -9010391.40961
  21724287.736    -7851324.496 5  -3338974.23621
 92  5 27 19 40 59.9940000  0  4G 2G19G15G13
  19132968.3854  -22059419.51848 -17024652.94864
  21332212.2604    1855993.91145   1465812.30061
  22279700.5724  -11910377.05846  -9054820.72761
  21695506.7914   -8002571.13145  -3456828.45861
 92  5 27 19 41 29.9940000  0  4G 2G19G15G13
  19127881.9794  -22086145.80648 -17045478.62364
  21340396.299     1899013.686 5   1499334.05121
  22268940.6974  -11966947.34345  -9098901.34961
  21666750.533    -8153680.590 5  -3574575.75121
 92  5 27 19 41 59.9940000  0  4G 2G19G15G13
  19122824.4944  -22112723.83848 -17066188.77764
  21348627.838     1942262.304 5   1533034.11521
  22258258.5574  -12023074.14345  -9142636.39961
  21638024.5654   -8304640.27345  -3692206.33361
 92  5 27 19 42 29.9940000  0  4G 2G19G15G13
  19117793.9714  -22139158.58548 -17086787.27764
  21356893.1974    1985697.48945   1566879.55661
  22247659.877   -12078772.284 5  -9186037.42921
  21609322.7134   -8455464.50645  -3809731.40661
 92  5 27 19 42 59.9940000  0  4G 2G19G15G13
  19112795.9164  -22165421.73848 -17107252.06764
  21365194.041     2029317.650 5   1600869.14521
  22237147.236   -12134023.697 6  -9229090.37721
  21580648.510    -8606143.847 5  -3927143.57621
 92  5 27 19 43 29.9940000  0  4G 2G19G15G13
  19107832.4554  -22191504.64548 -17127576.40764
  21373529.8074    2073120.50545   1635001.09461
  22226720.0964  -12188826.59346  -9271793.80561
  21552004.7994   -8756666.64645  -4044433.76161
 92  5 27 19 43 59.9940000  0  4G 2G19G15G13
  19102897.7214  -22217439.72848 -17147785.56163
  21381894.5184    2117085.15545   1669259.10461
  22216376.1904  -12243175.55945  -9314143.53961
  21523389.3074   -8907040.95845  -4161608.20161
 92  5 27 19 44 29.9940000  0  4G 2G19G15G13
  19097987.6744  -22243241.09948 -17167890.51963
  21390297.525     2161234.920 5   1703661.36621
  22206121.7994  -12297061.70445  -9356132.62361
  21494803.0804   -9057262.55145  -4278663.69061
 92  5 27 19 44 59.9940000  0  4G 2G19G15G13
  19093102.2214  -22268915.15248 -17187896.27164
  21398736.627     2205583.598 5   1738218.62721
  22195956.291   -12350486.862 6  -9397762.50821
  21466245.190    -9207331.462 5  -4395600.19421
 92  5 27 19 45 29.9940000  0  4G 2G19G15G13
  19088239.6744  -22294466.30248 -17207806.25764
  21407213.221     2250130.497 5   1772930.34821
  22185876.275   -12403448.280 5  -9439031.03321
  21437719.096    -9357239.557 5  -4512411.39321
 92  5 27 19 45 59.9940000  0  4G 2G19G15G13
  19083403.1194  -22319886.07648 -17227613.87464
  21415729.4794    2294878.39745   1807798.69961
  22175886.822   -12455953.999 6  -9479944.46021
  21409224.447    -9506982.285 5  -4629093.71721
 92  5 27 19 46 29.9940000  0  4G 2G19G15G13
  19078590.6274  -22345173.51048 -17247318.36764
  21424282.283     2339820.707 5   1842818.53721
  22165977.315   -12508020.541 5  -9520515.65421
  21380760.229    -9656559.558 5  -4745647.14221
 92  5 27 19 46 59.9940000  0  4G 2G19G15G13
  19073806.5414  -22370313.07948 -17266907.63864
  21432868.775     2384945.035 5   1877980.20621
  22156152.518   -12559647.521 6  -9560744.34621
  21352331.525    -9805957.676 5  -4862060.94821
 92  5 27 19 47 29.9940000  0  4G 2G19G15G13
  19069050.1904  -22395308.10948 -17286384.28664
  21441489.619     2430246.993 5   1913280.28521
  22146413.3304  -12610832.56346  -9600628.66861
  21323934.3074   -9955174.06745  -4978333.14861
 92  5 27 19 47 59.9940000  0  4G 2G19G15G13
  19064320.6824  -22420162.15648 -17305751.07264
  21450147.440     2475741.923 5   1948730.73721
  22136758.8154  -12661567.07646  -9640161.92461
  21295576.533   -10104198.975 6  -5094456.14921
 92  5 27 19 48 29.9940000  0  4G 2G19G15G13
  19059617.6354  -22444878.07148 -17325010.22264
  21458841.229     2521429.976 5   1984331.66821
  22127191.1044  -12711843.52046  -9679338.24961
  21267253.611   -10253036.076 6  -5210432.80321
 92  5 27 19 48 59.9940000  0  4G 2G19G15G13
  19054944.1664  -22469436.02548 -17344146.28364
  21467574.291     2567324.394 5   2020093.39121
  22117716.1434  -12761634.28346  -9718136.12761
  21238968.4164  -10401675.56246  -5326255.48461
 92  5 27 19 49 29.9940000  0  4G 2G19G15G13
  19050302.7444  -22493826.06948 -17363151.50564
  21476349.315     2613440.770 5   2056028.07021
  22108340.7914  -12810906.69946  -9756530.09761
  21210723.143   -10550101.934 6  -5441912.10921
 92  5 27 19 49 59.9940000  0  4G 2G19G15G13
  19045690.9714  -22518062.84648 -17382037.30264
  21485166.893     2659751.370 5   2092114.09421
  22099058.1584  -12859683.39246  -9794537.78161
  21182515.6664  -10698329.88946  -5557414.12261
 92  5 27 19 50 29.9940000  0  4G 2G19G15G13
  19041111.9244  -22542122.98848 -17400785.46364
  21494013.5724    2706252.66745   2128348.70961
  22089873.3854  -12907952.66946  -9832150.08761
  21154350.4794  -10846346.34346  -5672751.31861
 92  5 27 19 50 59.9940000  0  4G 2G19G15G13
  19036562.7134  -22566028.23948 -17419412.93064
  21502894.049     2752932.487 5   2164722.42921
  22080779.9794  -12955732.08846  -9869380.69761
  21126223.002   -10994156.294 6  -5787927.63221
 92  5 27 19 51 29.9940000  0  4G 2G19G15G13
  19032040.4324  -22589795.08348 -17437932.54464
  21511809.283     2799783.211 5   2201229.32021
  22071774.799   -13003052.929 6  -9906253.98121
  21098134.283   -11141762.754 6  -5902945.37121
 92  5 27 19 51 59.9940000  0  4G 2G19G15G13
  19027545.3074  -22613417.77248 -17456339.82964
  21520760.791     2846817.495 5   2237879.23521
  22062857.244   -13049920.746 6  -9942774.25121
  21070083.3224  -11289165.05246  -6017804.03161
 92  5 27 19 52 29.9940000  0  4G 2G19G15G13
  19023079.5024  -22636886.05248 -17474626.79964
  21529750.713     2894054.313 5   2274686.96121
  22054029.690   -13096305.457 6  -9978918.08421
  21042073.994   -11436355.180 6  -6132497.35221
 92  5 27 19 52 59.9930000  0  4G 2G19G15G13
  19018640.6854  -22660211.70348 -17492802.63264
  21538778.8574    2941493.74445   2311652.56161
  22045292.505   -13142219.844 5 -10014695.43521
  21014104.7164  -11583333.48246  -6247025.63861
 92  5 27 19 53 29.9930000  0  4G 2G19G15G13
  19014231.4664  -22683385.07948 -17510859.80563
  21547847.7944    2989146.31545   2348784.24161
  22036647.0134  -13187648.62346 -10050094.41161
  20986175.7944  -11730099.49846  -6361388.50761
 92  5 27 19 53 59.9930000  0  4G 2G19G15G13
  19009850.7244  -22706404.88048 -17528797.31264
  21556952.7394    3037011.41145   2386081.53661
  22028099.9824  -13232570.67146 -10085098.52361
  20958289.067   -11876643.865 6  -6475578.65521
 92  5 27 19 54 29.9930000  0  4G 2G19G15G13
  19005494.3104  -22729297.15348 -17546635.45064
  21566096.6144    3085057.91045   2423520.17661
  22019643.9354  -13277011.99646 -10119728.03761
  20930442.505   -12022978.048 6  -6589605.04021
 92  5 27 19 54 59.9930000  0  4G 2G19G15G13
  19001161.9974  -22752064.95048 -17564376.59764
  21575275.4034    3133287.47745   2461101.46361
  22011273.1144  -13320994.01346 -10153999.66661
  20902637.958   -12169087.754 6  -6703456.51721
 92  5 27 19 55 29.9930000  0  4G 2G19G15G13
  18996853.0054  -22774705.65548 -17582018.70863
  21584488.185     3181699.815 5   2498825.16321
  22002993.5604  -13364503.78845 -10187903.31661
  20874877.1774  -12314969.33546  -6817130.23261
 92  5 27 19 55 59.9930000  0  4G 2G19G15G13
  18992568.9744  -22797222.44648 -17599564.26364
  21593734.028     3230285.519 5   2536683.95421
  21994800.9504  -13407547.90446 -10221444.11861
  20847159.9194  -12460622.73446  -6930626.13261
 92  5 27 19 56 29.9930000  0  4G 2G19G15G13
  18988305.8884  -22819623.55648 -17617019.67864
  21603007.8414    3279024.89145   2574662.49961
  21986695.2394  -13450147.34446 -10254638.41761
  20819485.286   -12606058.621 6  -7043952.56721
 92  5 27 19 56 59.9930000  0  4G 2G19G15G13
  18984068.0754  -22841894.98848 -17634374.04564
  21612314.8494    3327929.66345   2612769.90561
  21978676.825   -13492277.635 5 -10287467.13521
  20791852.7324  -12751268.28446  -7157102.71861
 92  5 27 19 57 29.9930000  0  4G 2G19G15G13
  18979857.1074  -22864021.62848 -17651615.58463
  21621651.677     3376999.810 5   2651006.16821
  21970756.458   -13533903.035 6 -10319902.43021
  20764264.1614  -12896244.21946  -7270070.74861
 92  5 27 19 57 59.9930000  0  4G 2G19G15G13
  18975673.1614  -22886007.88648 -17668747.73764
  21631020.575     3426231.578 5   2689368.38321
  21962932.067   -13575022.480 6 -10351943.46921
  20736722.513   -13040979.247 6  -7382851.06021
 92  5 27 19 58 29.9930000  0  4G 2G19G15G13
  18971518.0284  -22907841.69048 -17685761.09664
  21640423.169     3475627.679 5   2727858.64621
  21955205.552   -13615627.604 5 -10383583.74621
  20709227.286   -13185466.012 6  -7495437.93121
 92  5 27 19 58 59.9930000  0  4G 2G19G15G13
  18967391.2784  -22929528.41848 -17702659.84963
  21649855.7004    3525195.11145   2766482.40861
  21947576.247   -13655719.439 6 -10414824.05721
  20681779.1304  -13329700.78446  -7607828.43861
 92  5 27 19 59 29.9930000  0  4G 2G19G15G13
  18963288.7634  -22951089.65648 -17719460.81164
  21659318.458     3574931.481 5   2805237.81321
  21940037.161   -13695330.380 5 -10445689.63021
  20654379.552   -13473689.364 6  -7720027.12321
 92  5 27 19 59 59.9930000  0  4G 2G19G15G13
  18959210.1304  -22972519.12248 -17736159.10064
  21668821.0284    3624852.61945   2844137.18161
  21932591.294   -13734474.446 5 -10476191.41521
  20627027.286   -13617426.600 6  -7832029.94321
 92  5 27 20  0 29.9930000  0  4G 2G19G15G13
  18955158.4354  -22993812.35448 -17752751.23464
  21678357.9664    3674975.20545   2883193.53361
  21925230.560   -13773138.448 5 -10506319.14221
  20599724.966   -13760902.500 6  -7943829.12921
 92  5 27 20  0 59.9930000  0  4G 2G19G15G13
  18951129.4974  -23014985.90648 -17769250.11164
  21687932.638     3725301.783 5   2922408.84421
  21917964.9824  -13811323.17945 -10536073.40761
  20572471.302   -13904114.264 6  -8055422.51121
 92  5 27 20  1 29.9930000  0  4G 2G19G15G13
  18947125.0524  -23036029.35348 -17785647.61164
  21697549.013     3775827.081 5   2961778.99721
  21910794.669   -13849006.045 5 -10565436.62121
  20545271.466   -14047056.623 6  -8166805.96921
 92  5 27 20  1 59.9930000  0  4G 2G19G15G13
  18943149.1534  -23056923.56848 -17801928.81764
  21707199.9584    3826548.90245   3001302.28761
  21903727.1924  -13886149.09345 -10594379.17961
  20518124.380   -14189714.995 6  -8277968.15321
 92  5 27 20  2 29.9930000  0  4G 2G19G15G13
  18939198.9194  -23077680.68948 -17818103.20063
  21716888.239     3877443.243 5   3040959.99721
  21896761.3574  -13922756.53845 -10622904.40061
  20491031.130   -14332089.934 6  -8388909.47421
 92  5 27 20  2 59.9930000  0  4G 2G19G15G13
  18935277.8024  -23098284.60148 -17834158.20064
  21726602.560     3928502.617 5   3080746.30921
  21889896.3334  -13958838.68045 -10651020.28561
  20463992.3024  -14474178.43446  -8499627.59861
 92  5 27 20  3 29.9930000  0  4G 2G19G15G13
  18931390.9354  -23118713.03348 -17850076.46164
  21736351.0604    3979730.47145   3120663.91361
  21883129.8644  -13994395.19445 -10678726.59561
  20437008.864   -14615972.894 6  -8610116.61521
 92  5 27 20  3 59.9930000  0  4G 2G19G15G13
  18927533.3574  -23138985.28948 -17865873.02764
  21746128.2634    4031112.66345   3160701.76361
  21876449.7244  -14029471.61845 -10706058.80161
  20410079.2714  -14757486.08946  -8720386.44861
 92  5 27 20  4 29.9930000  0  4G 2G19G15G13
  18923705.4824  -23159100.57448 -17881547.27964
  21755936.778     4082655.886 5   3200865.08621
  21869868.8884  -14064080.08145 -10733026.36861
  20383205.6774  -14898713.92546  -8830433.93861
 92  5 27 20  4 59.9930000  0  4G 2G19G15G13
  18919910.0054  -23179045.22048 -17897088.56764
  21765779.9504    4134379.64945   3241169.09961
  21863374.6774  -14098211.55745 -10759622.27661
  20356385.278   -15039648.196 6  -8940252.68821
 92  5 27 20  5 29.9930000  0  4G 2G19G15G13
  18916141.4424  -23198849.54648 -17912520.51564
  21775655.5604    4186273.92345   3281605.96761
  21856970.192   -14131865.819 5 -10785846.35121
  20329623.232   -15180291.458 6  -9049844.66321
 92  5 27 20  5 59.9930000  0  4G 2G19G15G13
  18912397.8494  -23218522.99848 -17927850.47964
  21785564.0134    4238347.76545   3322182.75761
  21850659.6694  -14165016.87145 -10811678.27261
  20302916.0674  -15320633.53146  -9159201.95361
 92  5 27 20  6 29.9930000  0  4G 2G19G15G13
  18908678.2324  -23238068.69248 -17943080.89564
  21795508.2634    4290600.32144   3362898.81361
  21844448.6224  -14197635.31845 -10837095.18061
  20276267.778   -15460672.566 6  -9268323.10321
 92  5 27 20  6 59.9930000  0  4G 2G19G15G13
  18904980.2864  -23257504.53248 -17958225.70864
  21805481.4744    4343007.33944   3403735.22961
  21838341.3494  -14229733.97045 -10862107.05361
  20249673.8964  -15600424.44946  -9377220.50361
 92  5 27 20  7 29.9930000  0  4G 2G19G15G13
  18901304.6854  -23276821.87748 -17973278.18864
  21815485.0754    4395575.63244   3444697.31261
  21832337.216   -14261293.729 5 -10886699.02921
  20223136.2554  -15739876.25646  -9485884.06961
 92  5 27 20  7 59.9930000  0  4G 2G19G15G13
  18897658.1694  -23295983.09748 -17988209.00764
  21825523.638     4448326.640 4   3485801.77621
  21826439.9584  -14292298.47645 -10910858.51861
  20196659.560   -15879011.688 6  -9594301.11721
 92  5 27 20  8 29.9930000  0  4G 2G19G15G13
  18894040.5914  -23314992.57248 -18003021.58463
  21835591.7714    4501236.45144   3527029.98361
  21820634.552   -14322788.509 5 -10934616.93821
  20170241.849   -16017839.666 6  -9702478.59221
 92  5 27 20  8 59.9930000  0  4G 2G19G15G13
  18890452.1464  -23333847.37448 -18017713.63663
  21845689.989     4554314.780 4   3568389.49821
  21814931.4114  -14352781.86545 -10957988.31361
  20143882.9664  -16156354.03446  -9810411.69161
 92  5 27 20  9 29.9930000  0  4G 2G19G15G13
  18886894.2864  -23352544.97048 -18032283.18864
  21855826.8724    4607567.56444   3609884.94161
  21809316.5134  -14382279.04045 -10980973.09161
  20117585.036   -16294548.205 6  -9918095.28321
 92  5 27 20  9 59.9930000  0  4G 2G19G15G13
  18883362.6464  -23371106.87748 -18046747.01164
  21865986.0994    4660970.79944   3651497.63261
  21803792.911   -14411296.750 5 -11003584.22621
  20091347.7714  -16432428.52846 -10025534.32161
 92  5 27 20 10 29.9930000  0  4G 2G19G15G13
  18879853.0914  -23389543.04148 -18061112.85864
  21876180.482     4714519.611 4   3693223.75521
  21798362.880   -14439827.879 5 -11025816.23721
  20065169.9194  -16569993.03046 -10132727.26461
 92  5 27 20 10 59.9930000  0  4G 2G19G15G13
  18876370.6694  -23407849.27048 -18075377.45964
  21886399.771     4768226.676 4   3735073.19721
  21793029.919   -14467843.929 5 -11047646.87221
  20039051.505   -16707242.967 6 -10239675.09221
 92  5 27 20 11 29.9930000  0  4G 2G19G15G13
  18872913.1694  -23426019.50748 -18089536.09563
  21896649.653     4822080.329 4   3777036.84421
  21787800.1384  -14495325.88245 -11069061.35761
  20012994.2944  -16844176.46046 -10346376.33561
 92  5 27 20 11 59.9930000  0  4G 2G19G15G13
  18869481.4114  -23444051.52148 -18103587.02564
  21906924.052     4876085.771 4   3819118.74921
  21782673.341   -14522270.877 5 -11090057.41121
  19986997.3644  -16980793.87846 -10452831.29961
 92  5 27 20 12 29.9930000  0  4G 2G19G15G13
  18866077.8334  -23461935.35448 -18117522.49263
  21917234.9504    4930263.77344   3861335.12761
  21777653.6464  -14548678.11746 -11110634.43661
  19961060.841   -17117086.004 6 -10559032.79621
 92  5 27 20 12 59.9930000  0  4G 2G19G15G13
  18862699.9504  -23479689.79148 -18131357.12864
  21927576.6464    4984601.19444   3903675.72361
  21772723.364   -14574576.092 5 -11130814.62421
  19935186.2554  -17253057.05846 -10664984.10161
 92  5 27 20 13 29.9930000  0  4G 2G19G15G13
  18859343.4664  -23497324.79548 -18145098.70263
  21937942.9974    5039083.69345   3946129.35061
  21767885.513   -14599984.304 5 -11150613.18021
  19909374.732   -17388700.327 6 -10770680.00521
 92  5 27 20 13 59.9930000  0  4G 2G19G15G13
  18856008.6224  -23514848.88148 -18158753.84363
  21948341.5134    5093717.10845   3988700.56161
  21763145.153   -14624915.898 5 -11170040.36021
  19883626.185   -17524008.683 6 -10876114.92321
 92  5 27 20 14 29.9920000  0  4G 2G19G15G13
  18852691.5864  -23532286.02848 -18172341.24164
  21958761.2504    5148477.67045   4031370.84861
  21758484.524   -14649385.235 5 -11189107.33621
  19857941.031   -17658984.543 6 -10981290.76621
 92  5 27 20 14 59.9920000  0  4G 2G19G15G13
  18849391.1954  -23549622.52348 -18185850.21264
  21969206.008     5203361.020 4   4074136.81321
  21753924.4774  -14673380.49445 -11207804.88761
  19832318.5244  -17793631.14946 -11086210.04961
 92  5 27 20 15 29.9920000  0  4G 2G19G15G13
  18846113.4534  -23566846.61448 -18199271.59264
  21979670.656     5258349.772 4   4116984.90921
  21749452.539   -14696877.868 5 -11226114.48221
  19806759.383   -17927947.718 6 -11190872.16721
 92  5 27 20 15 59.9920000  0  4G 2G19G15G13
  18842860.2114  -23583943.98748 -18212594.22964
  21990153.8914    5313451.76844   4159921.22961
  21745077.6254  -14719859.64745 -11244022.32161
  19781263.5474  -18061927.16646 -11295271.60261
 92  5 27 20 16 29.9920000  0  4G 2G19G15G13
  18839633.0164  -23600904.58548 -18225810.29064
  22000660.133     5368657.523 4   4202938.40521
  21740798.274   -14742320.203 6 -11261524.02321
  19755831.7504  -18195572.62746 -11399410.79361
 92  5 27 20 16 59.9920000  0  4G 2G19G15G13
  18836436.8834  -23617702.40248 -18238899.50463
  22011186.008     5423972.901 4   4246041.01221
  21736629.6884  -14764245.93345 -11278608.96761
  19730464.8444  -18328875.97146 -11503283.39161
 92  5 27 20 17 29.9920000  0  4G 2G19G15G13
  18833268.3284  -23634350.13748 -18251871.77764
  22021737.281     5479413.295 4   4289240.99821
  21732559.3914  -14785642.67945 -11295281.69661
  19705163.6414  -18461834.36946 -11606887.20861
 92  5 27 20 17 59.9920000  0  4G 2G19G15G13
  18830128.7194  -23650853.49548 -18264731.54364
  22032316.5784    5535001.95144   4332556.52061
  21728580.133   -14806537.633 5 -11311563.44621
  19679929.0164  -18594439.80346 -11710216.00161
 92  5 27 20 18 29.9920000  0  4G 2G19G15G13
  18827014.0704  -23667221.48948 -18277485.83163
  22042923.3834    5590738.24844   4375987.08861
  21724696.211   -14826943.957 5 -11327464.44221
  19654762.5314  -18726691.07046 -11813268.82161
 92  5 27 20 18 59.9920000  0  4G 2G19G15G13
  18823921.1094  -23683472.93648 -18290149.30663
  22053557.984     5646628.614 4   4419537.69221
  21720905.6954  -14846866.18946 -11342988.21361
  19629663.6094  -18858585.24546 -11916043.38261
 92  5 27 20 19 29.9920000  0  4G 2G19G15G13
  18820844.8284  -23699635.57248 -18302743.57963
  22064220.641     5702665.223 4   4463202.24621
  21717205.0784  -14866325.54646 -11358151.32161
  19604632.8994  -18990126.76946 -12018543.14961
 92  5 27 20 19 59.9920000  0  4G 2G19G15G13
  18817786.1414  -23715712.93148 -18315271.40063
  22074906.7584    5758822.64143   4506960.95061
  21713587.8674  -14885329.87145 -11372959.84961
  19579665.9534  -19121323.48746 -12120774.24561
 92  5 27 20 20 29.9920000  0  4G 2G19G15G13
  18814745.0864  -23731690.99448 -18327721.85363
  22085619.172     5815105.353 3   4550817.26821
  21710059.305   -14903852.229 5 -11387392.81521
  19554769.0784  -19252163.85246 -12222727.66161
 92  5 27 20 20 59.9920000  0  4G 2G19G15G13
  18811723.3284  -23747570.48448 -18340095.49563
  22096351.5004    5871506.57043   4594765.91161
  21706630.734   -14921890.732 5 -11401448.73321
  19529936.1884  -19382654.49046 -12324408.55461
 92  5 27 20 21 29.9920000  0  4G 2G19G15G13
  18808726.3054  -23763320.69748 -18352368.39863
  22107107.1954    5928021.32943   4638803.01961
  21703294.8524  -14939432.06645 -11415117.25561
  19505172.5474  -19512784.82946 -12425808.69861
 92  5 27 20 21 59.9920000  0  4G 2G19G15G13
  18805754.5004  -23778936.34248 -18364536.43863
  22117880.8994    5984646.85943   4682926.44561
  21700054.672   -14956458.021 5 -11428384.20221
  19480478.9614  -19642558.37046 -12526930.81361
 92  5 27 20 22 29.9920000  0  4G 2G19G15G13
  18802808.0394  -23794425.96648 -18376606.28364
  22128678.445     6041380.626 3   4727134.18821
  21696906.555   -14972976.102 5 -11441255.39421
  19455850.6024  -19771979.19546 -12627778.08861
 92  5 27 20 22 59.9920000  0  4G 2G19G15G13
  18799882.4844  -23809793.30448 -18388580.83963
  22139491.9064    6098213.88743   4771419.44761
  21693865.836   -14988983.782 5 -11453728.89921
  19431289.7664  -19901045.76946 -12728349.32261
 92  5 27 20 23 29.9920000  0  4G 2G19G15G13
  18796979.2114  -23825046.64848
  22150331.555     6155152.492 3   4815786.81121
  21690917.219   -15004471.639 5
  19406797.9844  -20029745.25446 -12828634.49561
 92  5 27 20 23 59.9920000  0  4G 2G19G15G13
  18794096.7424  -23840196.98648 -18412272.03763
  22161186.0634    6212203.97043   4860242.09261
  21688069.352   -15019449.204 5 -11477468.14721
  19382378.6884  -20158071.39746 -12928628.76461
 92  5 27 20 24 29.9920000  0  4G 2G19G15G13
  18791233.7894  -23855245.17148 -18423997.90663
  22172061.8914    6269356.02243   4904775.75061
  21685305.867   -15033936.228 5 -11488756.69121
  19358030.6414  -20286024.70846 -13028332.51461
 92  5 27 20 24 59.9920000  0  4G 2G19G15G13
  18788390.7034  -23870185.52648 -18435639.74163
  22182957.0314    6326609.48643   4949388.42561
  21682651.203   -15047925.492 5 -11499657.36721
  19333754.2274  -20413599.41847 -13127741.24561
 92  5 27 20 25 29.9920000  0  4G 2G19G15G13
  18785567.8914  -23885017.67448 -18447197.25963
  22193871.727     6383963.313 3   4994079.27721
  21680081.516   -15061432.636 5 -11510182.38621
  19309547.2114  -20540802.32846 -13226860.27561
 92  5 27 20 25 59.9920000  0  4G 2G19G15G13
  18782769.6724  -23899717.66748 -18458651.80463
  22204806.961     6441423.314 3   5038852.85921
  21677601.1954  -15074458.98545 -11520332.75561
  19285412.8524  -20667627.04946 -13325684.58761
 92  5 27 20 26 29.9920000  0  4G 2G19G15G13
  18780001.2744  -23914273.15548 -18469993.74363
  22215764.2894    6499001.67743   5083718.67461
  21675214.3134  -15086977.54645 -11530087.46661
  19261353.5244  -20794060.04146 -13424203.67761
 92  5 27 20 26 59.9920000  0  4G 2G19G15G13
  18777256.9924  -23928694.44248 -18481231.11063
  22226739.781     6556692.757 3   5128672.32021
  21672927.3204  -15099003.18545 -11539458.06961
  19237367.9614  -20920105.47347 -13522420.77061
 92  5 27 20 27 29.9920000  0  4G 2G19G15G13
  18774538.1024  -23942987.37348 -18492368.46064
  22237744.211     6614500.469 3   5173716.80921
  21670726.602   -15110543.021 5 -11548450.12321
  19213456.8834  -21045760.17347 -13620333.39761
 92  5 27 20 27 59.9920000  0  4G 2G19G15G13
  18771837.6884  -23957174.27548 -18503423.19463
  22248763.820     6672416.807 3   5218845.92921
  21668623.602   -15121600.680 5 -11557066.43621
  19189619.7814  -21171022.46446 -13717940.25761
 92  5 27 20 28 29.9920000  0  4G 2G19G15G13
  18769155.8054  -23971265.41048 -18514403.30364
  22259802.4454    6730434.94643   5264054.39561
  21666616.203   -15132186.098 5 -11565314.78721
  19165857.6494  -21295891.91646 -13815241.00561
 92  5 27 20 28 59.9920000  0  4G 2G19G15G13
  18766494.3284  -23985253.76748 -18525303.33063
  22270864.758     6788560.187 3   5309346.27721
  21664681.6094  -15142313.36445 -11573206.13761
  19142171.438   -21420362.384 6 -13912230.87221
 92  5 27 20 29 29.9920000  0  4G 2G19G15G13
  18763851.6494  -23999139.20348 -18536123.15763
  22281942.719     6846793.502 3   5354722.37621
  21662851.945   -15151962.356 5 -11580724.80221
  19118562.3134  -21544432.01346 -14008908.39161
 92  5 27 20 29 59.9920000  0  4G 2G19G15G13
  18761231.9694  -24012904.71448 -18546849.53463
  22293045.1644    6905114.23043   5400166.57861
  21661107.274   -15161125.381 5 -11587864.78421
  19095029.141   -21668102.509 6 -14105274.90021
 92  5 27 20 30 29.9920000  0  4G 2G19G15G13
  18758642.0784  -24026518.29348 -18557457.52463
  22304162.727     6963526.220 3   5445681.87721
  21659451.070   -15169798.621 5 -11594623.11721
  19071571.219   -21791367.716 7 -14201325.60421
 92  5 27 20 30 59.9920000  0  4G 2G19G15G13
  18756079.8524  -24039982.41548 -18567949.05163
  22315297.5004    7022026.06343   5491265.62961
  21657899.852   -15177970.270 5 -11600990.59821
  19048192.844   -21914224.967 7 -14297058.42221
 92  5 27 20 31 29.9920000  0  4G 2G19G15G13
  18753545.3364  -24053304.91148 -18578330.22763
  22326442.234     7080599.323 3   5536906.58721
  21656439.867   -15185622.013 5 -11606952.97721
  19024890.578   -22036677.164 7 -14392475.61121
 92  5 27 20 31 59.9920000  0  4G 2G19G15G13
  18751036.1024  -24066489.33448 -18588603.81363
  22337601.250     7139255.332 3   5582611.95721
  21655081.984   -15192765.566 5 -11612519.33621
  19001668.399   -22158712.986 7 -14487568.35821
 92  5 27 20 32 29.9920000  0  4G 2G19G15G13
  18748548.4924  -24079560.49048 -18598789.14263
  22348781.563     7198000.081 3   5628386.55421
  21653815.4384  -15199414.27245 -11617700.09961
  18978524.336   -22280333.928 7 -14582337.81821
 92  5 27 20 32 59.9920000  0  4G 2G19G15G13
  18746077.4384  -24092541.39748 -18608904.15463
  22359978.1024    7256828.16643   5674226.08361
  21652652.500   -15205560.428 5 -11622489.27021
  18955459.7274  -22401538.40547 -14676782.76061
 92  5 27 20 33 29.9920000  0  4G 2G19G15G13
  18743628.234   -24105415.806 8 -18618936.18023
  22371191.313     7315744.761 3   5720134.50621
  21651573.899   -15211204.300 5 -11626887.06321
  18932477.086   -22522313.832 7 -14770893.38421
 92  5 27 20 33 59.9920000  0  4G 2G19G15G13
  18741201.3594  -24118168.81248 -18628873.60963
  22382417.242     7374748.467 3   5766110.84121
  21650589.828   -15216363.466 5 -11630907.16221
  18909576.524   -22642651.077 7 -14864662.57321
 92  5 27 20 34 29.9910000  0  4G 2G19G15G13
  18738798.2694  -24130794.70548 -18638711.98263
  22393660.9724    7433828.07843   5812146.29161
  21649705.1674  -15221033.58545 -11634546.19761
  18886760.362   -22762553.329 7 -14958092.79821
 92  5 27 20 34 59.9910000  0  4G 2G19G15G13
  18736422.3084  -24143282.78948 -18648442.97463
  22404912.7144    7492982.00943   5858239.63361
  21648910.6204  -15225216.27145 -11637805.40961
  18864026.644   -22882021.957 7 -15051185.13721
 92  5 27 20 35 29.9910000  0  4G 2G19G15G13
  18734075.5814  -24155612.54248 -18658050.59263
  22416188.620     7552222.029 2   5904400.07821
  21648206.784   -15228909.579 5 -11640683.28521
  18841377.816   -23001041.604 7 -15143927.62021
 92  5 27 20 35 59.9910000  0  4G 2G19G15G13
  18731757.3314  -24167801.14548 -18667548.22363
  22427481.1834    7611552.48342   5950630.92561
  21647590.2144  -15232121.44945 -11643186.01461
  18818812.847   -23119621.017 7 -15236327.05921
 92  5 27 20 36 29.9910000  0  4G 2G19G15G13
  18729466.5424  -24179836.01348 -18676926.06263
  22438797.019     7671004.481 2   5996956.48921
  21647081.3314  -15234810.64545 -11645281.47561
  18796336.058   -23237735.977 7 -15328364.58721
 92  5 27 20 36 59.9910000  0  4G 2G19G15G13
  18727203.8474  -24191723.07748 -18686188.72863
  22450129.1914    7730566.92642   6043368.12361
  21646669.995   -15236990.078 5 -11646979.70021
  18773947.206   -23355388.294 7 -15420041.62021
 92  5 27 20 37 29.9910000  0  4G 2G19G15G13
  18724970.456   -24203463.398 8 -18695337.05423
  22461488.730     7790250.210 2   6089873.85521
  21646348.6054  -15238652.03145 -11648274.70861
  18751647.503   -23472574.655 7 -15511355.56521
 92  5 27 20 37 59.9910000  0  4G 2G19G15G13
  18722763.167   -24215064.264 8 -18704376.71123
  22472865.6514    7850048.26442
  21646133.526   -15239788.685 5 -11649160.39621
  18729436.433   -23589297.023 7 -15602307.96121
 92  5 27 20 38 29.9910000  0  3G 2G15G13
  18720582.9174  -24226521.09948 -18713304.13763
  21646017.5584  -15240396.12145 -11649633.72061
  18707312.800   -23705552.762 7 -15692896.74721
 92  5 27 20 38 59.9910000  0  3G 2G15G13
  18718428.5814  -24237841.84848 -18722125.51563
  21645998.4804  -15240500.00845
  18685277.800   -23821348.952 7 -15783127.44321
 92  5 27 20 39 29.9910000  0  3G 2G15G13
  18716300.3624  -24249023.15948 -18730838.24063
  21646076.480   -15240091.694 5
  18663329.987   -23936683.797 7 -15872998.65421
 92  5 27 20 39 59.9910000  0  3G 2G15G13
  18714206.0114  -24260029.31148 -18739414.47863
  21646261.503   -15239138.777 5 -11648653.90221
  18641476.761   -24051522.832 7 -15962483.52021
 92  5 27 20 40 29.9910000  0  3G 2G15G13
  18712141.886   -24270876.471 8 -18747866.82823
  21646537.2454  -15237688.24745 -11647523.60861
  18619714.261   -24165886.062 7 -16051597.63321
 92  5 27 20 40 59.9910000  0  3G 2G15G13
  18710110.1124  -24281552.95548 -18756186.18763
  21646907.1834  -15235740.28445 -11646005.70661
  18598043.362   -24279766.234 7 -16140335.33021
 92  5 27 20 41 29.9910000  0  3G 2G15G13
  18708109.269   -24292071.756 8 -18764382.67623
  21647366.1284  -15233308.40045 -11644110.70761
  18576462.097   -24393176.967 7 -16228707.23621
 92  5 27 20 41 59.9910000  0  4G 2G19G15G13
  18706135.401   -24302441.914 8 -18772463.34223
  22564704.4874      60680.49342
  21647921.284   -15230407.540 5 -11641850.26821
  18554969.566   -24506118.680 7 -16316713.67321
 92  5 27 20 42 29.9910000  0  4G 2G19G15G13
  18704192.1124  -24312654.27248 -18780421.03963
  22576267.7694     121450.92042
  21648565.816   -15227032.730 5 -11639220.52121
  18533570.026   -24618576.777 7 -16404343.26421
 92  5 27 20 42 59.9910000  0  3G 2G15G13
  18702276.9334  -24322716.63648 -18788261.85663
  21649297.925   -15223180.706 5 -11636218.93421
  18512260.331   -24730560.075 7 -16491602.88221
 92  5 27 20 43 29.9910000  0  4G 2G19G15G13
  18700393.2064  -24332616.56348 -18795976.09763
  22599446.362          -0.37912
  21650122.386   -15218834.745 5 -11632832.45421
  18491044.534   -24842046.261 7 -16578475.14621
 92  5 27 20 43 59.9910000  0  4G 2G19G15G13
  18698539.2144  -24342358.97048 -18803567.59963
  22611061.542       61025.860 2
  21651041.433   -15214003.493 5 -11629067.82521
  18469923.370   -24953043.438 7 -16664966.36421
 92  5 27 20 44 29.9910000  0  4G 2G19G15G13
  18696717.831   -24351932.356 8 -18811027.39823
  22622687.167      122123.162 2
  21652054.4954  -15208676.82845 -11624917.17861
  18448893.605   -25063550.807 7 -16751075.91021
 92  5 27 20 44 59.9910000  0  4G 2G19G15G13
  18694927.761   -24361339.308 8 -18818357.51123
  22634326.5664     183274.87742        -0.14271
  21653164.3944  -15202848.70545 -11620375.77561
  18427957.011   -25173577.011 7 -16836810.53021
 92  5 27 20 45 29.9910000  0  4G 2G19G15G13
  18693168.0114  -24370587.88448 -18825564.21663
  22645972.9334     244484.45542     47694.76961
  21654368.1834  -15196509.03045 -11615435.74961
  18407112.456   -25283115.880 7 -16922165.40621
 92  5 27 20 45 59.9910000  0  4G 2G19G15G13
  18691437.542   -24379679.920 8 -18832648.94323
  22657633.737      305752.170 2
  21655675.2454  -15189657.83445 -11610097.12861
  18386360.0034  -25392166.01547 -17007139.45561
 92  5 27 20 46 29.9910000  0  4G 2G19G15G13
  18689737.886   -24388613.171 8 -18839609.93923
  22669307.6204     367105.65142
  21657075.4564  -15182286.51145 -11604353.22061
  18365704.198   -25500714.337 7 -17091722.47621
 92  5 27 20 46 59.9910000  0  3G 2G15G13
  18688063.589   -24397412.932 8 -18846466.92023
  21658575.1284  -15174421.45145 -11598224.58661
  18345141.823   -25608770.614 7 -17175922.08921
 92  5 27 20 47 29.9910000  0  3G 2G15G13
  18686413.894   -24406080.669 8 -18853221.02123
  21660161.7454  -15166076.71445 -11591722.18561
  18324675.753   -25716320.371 7 -17259727.00221
 92  5 27 20 47 59.9910000  0  3G 2G15G13
  18684790.362   -24414615.112 8 -18859871.25823
  21661835.2144  -15157270.53845 -11584860.22661
  18304303.769   -25823372.834 7 -17343144.42221
 92  5 27 20 48 29.9910000  0  3G 2G15G13
  18683191.722   -24423012.278 8 -18866414.52723
  21663602.472   -15147998.680 5 -11577635.38121
  18284028.206   -25929927.592 7 -17426174.01721
 92  5 27 20 48 59.9910000  0  3G 2G15G13
  18681619.808   -24431274.224 8 -18872852.43023
  21665450.4254  -15138273.86045 -11570057.58061
  18263843.558   -26035990.199 7 -17508820.12021
 92  5 27 20 49 29.9910000  0  3G 2G15G13
  18680075.276   -24439390.989 8 -18879177.20623
  21667389.948   -15128089.591 5 -11562121.77421
  18243753.847   -26141562.786 7 -17591084.38821
 92  5 27 20 49 59.9910000  0  3G 2G15G13
  18678563.948   -24447332.912 8 -18885365.74523
  21669422.0424  -15117421.28545 -11553808.79961
  18223760.401   -26246631.664 7 -17672956.16121
 92  5 27 20 50 29.9910000  0  3G 2G15G13
  18677085.276   -24455103.064 8 -18891420.43423
  21671540.526   -15106282.190 5 -11545128.97721
  18203862.644   -26351194.528 7 -17754433.63421
 92  5 27 20 50 59.9910000  0  3G 2G15G13
  18675638.831   -24462703.961 8 -18897343.23923
  21673745.4254  -15094689.23545 -11536095.50561
  18184060.370   -26455258.507 7 -17835522.36921
 92  5 27 20 51 29.9910000  0  3G 2G15G13
  18674223.253   -24470142.910 8 -18903139.85323
  21676040.6984  -15082633.32045 -11526701.25861
  18164352.0114  -26558821.76947 -17916220.94161
 92  5 27 20 51 59.9910000  0  3G 2G15G13
  18672834.417   -24477440.629 8 -18908826.41223
  21678421.9954  -15070117.00345 -11516948.26261
  18144741.3864  -26661879.98747 -17996525.96861
 92  5 27 20 52 29.9910000  0  3G 2G15G13
  18671470.2224  -24484609.43748 -18914412.52163
  21680895.5424  -15057128.24245 -11506827.11061
  18125226.9174  -26764424.80847 -18076430.94361
 92  5 27 20 52 59.9910000  0  3G 2G15G13
  18670129.605   -24491654.948 8 -18919902.54923
  21683459.6444  -15043642.07245 -11496318.39061
  18105811.9644  -26866453.87747 -18155934.03661
 92  5 27 20 53 29.9910000  0  3G 2G15G13
  18668809.542   -24498590.437 8 -18925306.85423
  21686122.0344  -15029656.91845 -11485420.85561
  18086494.050   -26967970.181 7 -18235037.56722
 92  5 27 20 53 59.9900000  0  4G12G 2G15G13
  22332794.9044         -0.92953
  18667516.2014  -24505388.88348 -18930604.36763
  21688875.9044  -15015179.32945 -11474139.60261
  18067275.5064  -27068965.16547 -18313734.88061
 92  5 27 20 54 29.9900000  0  4G12G 2G15G13
  22307161.0144    -134701.99543        -0.40371
  18666257.568   -24512001.690 8 -18935757.22623
  21691726.631   -15000194.427 5 -11462463.04721
  18048158.8114  -27169423.11347 -18392013.72161
 92  5 27 20 54 59.9900000  0  4G12G 2G15G13
  22281517.365     -269470.901 3   -105015.13021
  18665037.350   -24518417.103 8 -18940756.27823
  21694673.186   -14984719.038 5 -11450404.28321
  18029144.2254  -27269344.64847 -18469874.58162
 92  5 27 20 55 29.9900000  0  4G12G 2G15G13
  22255858.2254    -404298.72143   -210075.74261
  18663857.256   -24524613.498 8 -18945584.67423
  21697707.154   -14968770.826 5 -11437977.09421
  18010233.6544  -27368720.74647 -18547310.42362
 92  5 27 20 55 59.9900000  0  4G12G 2G15G13
  22230186.4984    -539193.85243   -315188.83061
  18662718.678   -24530600.641 8 -18950250.01523
  21700829.6474  -14952364.27045 -11425192.77261
  17991424.3184  -27467560.20647 -18624328.11062
 92  5 27 20 56 29.9900000  0  4G12G 2G15G13
  22204505.0764    -674152.07443   -420351.03161
  18661615.920   -24536395.716 8 -18954765.69223
  21704040.1234  -14935490.71445 -11412044.53161
  17972718.8114  -27565859.22347 -18700924.67162
 92  5 27 20 56 59.9900000  0  4G12G 2G15G13
  22178808.850     -809179.334 3   -525567.11021
  18660545.787   -24542019.201 8 -18959147.66323
  21707340.100   -14918157.733 5 -11398538.29621
  17954115.0144  -27663623.65147 -18777104.66762
 92  5 27 20 57 29.9900000  0  4G12G 2G15G13
  22153103.8184    -944267.01843   -630830.19061
  18659507.381   -24547477.582 8 -18963400.97823
  21710727.6474  -14900358.99845 -11384669.14561
  17935614.1784  -27760845.36947 -18852861.78461
 92  5 27 20 57 59.9900000  0  4G12G 2G15G13
  22127382.6704   -1079413.54743   -736139.17661
  18658496.029   -24552790.257 8 -18967540.75523
  21714201.748   -14882089.238 5 -11370432.94021
  17917217.0684  -27857523.12247 -18928195.02862
 92  5 27 20 58 29.9900000  0  4G12G 2G15G13
  22101656.9594   -1214619.27443   -841494.26761
  18657511.975   -24557961.085 8 -18971570.00423
  21717765.865   -14863358.301 5 -11355837.37721
  17898923.1314  -27953657.71647 -19003105.04162
 92  5 27 20 58 59.9900000  0  4G12G 2G15G13
  22075920.2794   -1349874.60543   -946888.03161
  18656557.639   -24562975.648 8 -18975477.49423
  21721418.998   -14844168.724 5 -11340884.44521
  17880734.5454  -28049240.22047 -19077584.84562
 92  5 27 20 59 29.9900000  0  4G12G 2G15G13
  22050171.3734   -1485183.87643  -1052323.77761
  18655631.5764  -24567842.70548 -18979270.05763
  21725156.3114  -14824519.09245 -11325573.03061
  17862650.2874  -28144274.73247 -19151637.64962
 92  5 27 20 59 59.9900000  0  4G12G 2G15G13
  22024411.928    -1620549.073 3  -1157803.14921
  18654737.647   -24572544.515 8 -18982933.85023
  21728982.9824  -14804414.76645 -11309907.29761
  17844668.4754  -28238764.08747 -19225265.65162
 92  5 27 21  0 29.9900000  0  4G12G 2G15G13
  21998643.9904   -1755971.77143  -1263327.27661
  18653878.178   -24577057.241 8 -18986450.30723
  21732895.2794  -14783858.89445 -11293889.71361
  17826791.3814  -28332710.12147 -19298470.29162
 92  5 27 21  0 59.9900000  0  4G12G 2G15G13
  21972860.8264   -1891458.80843  -1368901.57261
  18653056.264   -24581379.071 8 -18989818.00223
  21736892.928   -14762848.646 5 -11277518.08121
  17809016.3184  -28426120.48647 -19371257.52262
 92  5 27 21  1 29.9900000  0  4G12G 2G15G13
  21947065.912    -2027006.056 3  -1474522.76121
  18652270.982   -24585505.662 8 -18993033.56923
  21740979.772   -14741374.309 5 -11260784.82921
  17791343.1934  -28518991.24147 -19443624.28262
 92  5 27 21  1 59.9900000  0  4G12G 2G15G13
  21921260.8184   -2162617.46343  -1580193.97961
  18651522.912   -24589437.160 8 -18996097.11423
  21745151.1784  -14719456.75545 -11243706.20061
  17773772.8184  -28611327.41047 -19515574.47862
 92  5 27 21  2 29.9900000  0  4G12G 2G15G13
  21895440.373    -2298292.958 3  -1685915.11421
  18650806.147   -24593201.990 8 -18999030.79123
  21749406.8184  -14697092.83045 -11226279.75361
  17756302.7564  -28703129.69647 -19587108.66362
 92  5 27 21  2 59.9900000  0  4G12G 2G15G13
  21869612.9904   -2434023.31043  -1791678.97161
  18650117.889   -24596819.508 8 -19001849.68523
  21753749.2564  -14674271.50245 -11208496.88361
  17738937.2324  -28794389.31847 -19658219.99762
 92  5 27 21  3 29.9900000  0  4G12G 2G15G13
  21843775.2404   -2569810.77943  -1897487.37061
  18649456.451   -24600298.403 8 -19004560.55523
  21758173.3654  -14651016.64745 -11190376.19061
  17721673.7404  -28885109.30947 -19728910.84162
 92  5 27 21  3 59.9900000  0  4G12G 2G15G13
  21817922.357    -2705661.401 3  -2003344.97321
  18648820.061   -24603639.332 8 -19007163.91723
  21762678.7324  -14627344.26245 -11171930.16861
  17704511.5374  -28975296.50247 -19799186.51261
 92  5 27 21  4 29.9900000  0  4G12G 2G15G13
  21792058.4674   -2841562.46743  -2109241.87661
  18648214.764   -24606823.292 8 -19009644.97223
  21767266.6624  -14603227.96845 -11153138.23961
  17687452.3654  -29064938.47347 -19869037.34262
 92  5 27 21  4 59.9900000  0  4G12G 2G15G13
  21766189.4754   -2977514.43143  -2215178.46261
  18647643.537   -24609823.741 8 -19011983.02423
  21771938.131   -14578683.466 5 -11134012.63521
  17670497.5614  -29154037.06547 -19938464.75662
 92  5 27 21  5 29.9900000  0  4G12G 2G15G13
  21740309.9824   -3113508.26943  -2321147.64061
  18647114.342   -24612602.957 8 -19014148.68122
  21776690.897   -14553713.807 5 -11114555.75721
  17653648.2484  -29242583.69447 -20007462.06762
 92  5 27 21  5 59.9900000  0  4G12G 2G15G13
  21714421.4044   -3249549.27744  -2427153.57961
  18646625.857   -24615174.920 8 -19016152.84122
  21781522.3114  -14528318.04445 -11094766.84861
  17636901.9044  -29330584.82747 -20076034.32062
 92  5 27 21  6 29.9900000  0  4G12G 2G15G13
  21688524.959    -3385642.252 4  -2533200.03021
  18646171.654   -24617560.447 8 -19018011.72622
  21786434.889   -14502509.015 5 -11074655.90821
  17620257.9364  -29418046.03247 -20144185.85562
 92  5 27 21  6 59.9900000  0  4G12G 2G15G13
  21662615.3184   -3521796.36144  -2639294.08561
  18645748.982   -24619785.817 8 -19019745.82022
  21791417.1314  -14476323.61744 -11054251.68261
  17603715.4754  -29504977.38447 -20211924.51262
 92  5 27 21  7 29.9900000  0  4G12G 2G15G13
  21636695.5764   -3658004.08444  -2745429.95761
  18645351.131   -24621869.968 8 -19021369.86922
  21796473.389   -14449753.583 5 -11033547.76421
  17587274.9754  -29591372.76647 -20279245.53162
 92  5 27 21  7 59.9900000  0  4G12G 2G15G13
  21610767.561    -3794265.229 4  -2851607.44621
  18644977.615   -24623840.792 8 -19022905.62322
  21801601.514   -14422798.028 5 -11012543.41221
  17570936.7254  -29677232.61047 -20346149.25062
 92  5 27 21  8 29.9900000  0  4G12G 2G15G13
  21584828.740    -3930578.658 4  -2957825.64021
  18644622.647   -24625693.255 8 -19024349.14322
  21806804.3734  -14395453.60744 -10991236.07161
  17554699.9434  -29762556.87947 -20412635.64362
 92  5 27 21  8 59.9900000  0  4G12G 2G15G13
  21558878.0924   -4066948.46944  -3064087.81061
  18644293.912   -24627420.422 8 -19025695.02822
  21812085.014   -14367715.242 4 -10969621.74721
  17538565.0144  -29847351.01847 -20478708.94362
 92  5 27 21  9 29.9900000  0  4G12G 2G15G13
  21532919.1004   -4203367.68544  -3170388.46061
  18643993.436   -24629009.277 8 -19026933.13522
  21817442.3654  -14339549.09744 -10947674.12361
  17522530.147   -29931609.180 7 -20544364.60522
 92  5 27 21  9 59.9900000  0  4G12G 2G15G13
  21506949.772    -4339830.804 4  -3276723.29121
  18643719.803   -24630444.380 8 -19028051.43922
  21822886.467   -14310944.480 4 -10925384.79521
  17506599.1234  -30015326.81347 -20609599.07162
 92  5 27 21 10 29.9900000  0  4G12G 2G15G13
  21480975.740    -4476329.812 4  -3383086.11621
  18643479.826   -24631707.850 8 -19029036.00422
  21828414.6544  -14281893.62644 -10902747.78161
  17490772.5064  -30098497.41348 -20674407.27362
 92  5 27 21 10 59.9900000  0  4G12G 2G15G13
  21454994.7094   -4612856.24045  -3489470.31561
  18643272.779   -24632786.914 7 -19029876.86722
  21834027.6474  -14252399.56245 -10879765.36361
  17475051.5374  -30181113.68948 -20738783.53962
 92  5 27 21 11 29.9900000  0  4G12G 2G15G13
  21429011.0844   -4749404.01645  -3595871.13161
  18643105.670   -24633680.544 8 -19030573.23522
  21839721.506   -14222473.053 4 -10856446.01521
  17459436.0844  -30263171.11548 -20802724.33862
 92  5 27 21 11 59.9900000  0  4G12G 2G15G13
  21403026.115    -4885950.616 5  -3702271.01221
  18642973.951   -24634360.970 8 -19031103.47722
  21845499.8504  -14192120.06945 -10832794.33861
  17443931.6394  -30344648.34847 -20866213.03862
 92  5 27 21 12 29.9900000  0  4G12G 2G15G13
  21377043.8184   -5022497.41345  -3808671.05461
  18642888.037   -24634824.922 7 -19031465.03723
  21851352.264   -14161364.941 5 -10808829.27521
  17428536.225   -30425548.161 7 -20929251.80922
 92  5 27 21 12 59.9890000  0  4G12G 2G15G13
  21351061.626    -5159038.218 5  -3915066.41621
  18642840.681   -24635067.342 7
  21857277.985   -14130221.062 5 -10784561.31221
  17413251.298   -30505867.222 8 -20991838.03722
 92  5 27 21 13 29.9890000  0  4G12G 2G15G13
  21325078.376    -5295570.438 5  -4021455.09721
  18642836.868   -24635081.491 7
  21863283.1964  -14098670.96345 -10759976.79661
  17398078.814   -30585601.078 8 -21053968.26722
 92  5 27 21 13 59.9890000  0  5G12G 2G24G15G13
  21299097.634    -5432098.246 5  -4127840.33821
  18642875.954   -24634882.210 7
  22155149.7284         -0.23154
  21869360.7204  -14066728.33945 -10735086.44261
  17383016.032   -30664757.102 8 -21115648.23722
 92  5 27 21 14 29.9890000  0  5G12G 2G24G15G13
  21273119.212    -5568618.577 5  -4234219.76721
  18642953.314   -24634477.404 7
  22127142.3064    -147181.64044
  21875516.4854  -14034385.36345 -10709884.07961
  17368063.478   -30743333.884 8 -21176876.84822
 92  5 27 21 14 59.9890000  0  5G12G 2G24G15G13
  21247142.3924   -5705135.70845  -4340596.69561
  18643068.149   -24633878.660 7 -19030727.87722
  22099117.3064    -294441.42444
  21881746.345   -14001635.615 5 -10684364.78421
  17353219.751   -30821336.935 8 -21237658.40022
 92  5 27 21 15 29.9890000  0  5G12G 2G24G15G13
  21221164.8214   -5841638.38845  -4446962.36161
  18643218.407   -24633086.598 7 -19030110.72322
  22071082.251     -441777.477 4
  21888059.2594  -13968458.30244 -10658512.33361
  17338488.0644  -30898756.68048 -21297985.41962
 92  5 27 21 15 59.9890000  0  5G12G 2G24G15G13
  21195192.7824   -5978123.55845  -4553314.36861
  18643405.548   -24632100.874 7 -19029342.66722
  22043028.3764    -589196.44044        -0.02171
  21894454.2984  -13934859.43344 -10632331.35561
  17323865.9234  -30975591.74448 -21357856.84462
 92  5 27 21 16 29.9890000  0  5G12G 2G24G15G13
  21169227.110    -6114582.269 5  -4659645.78021
  18643631.024   -24630907.477 7 -19028412.77922
  22014960.845     -736698.096 4   -114936.10821
  21900930.892   -13900826.185 4 -10605811.94721
  17309357.595   -31051834.502 8 -21417266.74122
 92  5 27 21 16 59.9890000  0  5G12G 2G24G15G13
  21143264.5244   -6251010.23745  -4765953.21361
  18643900.157   -24629495.678 7 -19027312.71922
  21986875.673     -884275.665 4   -229931.34321
  21907491.1104  -13866346.97945 -10578945.03261
  17294962.290   -31127483.006 8 -21476213.57622
 92  5 27 21 17 29.9890000  0  5G12G 2G24G15G13
  21117306.7354   -6387417.68745  -4872244.66161
  18644209.595   -24627877.244 7 -19026051.64522
  21958779.892    -1031928.958 4   -344985.45721
  21914132.884   -13831439.262 5 -10551744.19921
  17280677.3764  -31202548.70248 -21534706.27662
 92  5 27 21 17 59.9890000  0  5G12G 2G24G15G13
  21091357.673    -6523783.610 5  -4978503.77021
  18644560.110   -24626030.595 7 -19024612.74422
  21930672.649    -1179627.566 4   -460074.90421
  21920858.3764  -13796104.21545 -10524210.42061
  17266507.728   -31277012.142 8 -21592729.69022
 92  5 27 21 18 29.9890000  0  5G12G 2G24G15G13
  21065413.306    -6660122.199 5  -5084741.55321
  18644950.532   -24623972.965 7 -19023009.43722
  21902555.329    -1327391.413 4   -575215.12221
  21927661.6184  -13760354.20645 -10496353.27161
  17252448.978   -31350889.676 8 -21650296.54722
 92  5 27 21 18 59.9890000  0  5G12G 2G24G15G13
  21039473.220    -6796432.688 5  -5190957.46221
  18645380.485   -24621721.210 7 -19021254.86222
  21874420.345    -1475229.409 4   -690413.11721
  21934543.7124  -13724188.56644 -10468172.25761
  17238501.6264  -31424182.59248 -21707407.86262
 92  5 27 21 19 29.9890000  0  5G12G 2G24G15G13
  21013541.3994   -6932707.29945  -5297145.39661
  18645844.142   -24619282.732 7 -19019354.78722
  21846273.5564   -1623139.68444   -805667.41761
  21941502.1494  -13687625.24144 -10439681.33761
  17224667.157   -31496884.797 8 -21764058.88422
 92  5 27 21 19 59.9890000  0  4G12G 2G24G13
  20987617.8454   -7068937.62945  -5403298.83261
  18646345.189   -24616651.360 7 -19017304.40522
  21818113.032    -1771115.167 4   -920972.51521
  17210945.970   -31568990.175 8 -21820244.84722
 92  5 27 21 20 29.9890000  0  4G12G 2G24G13
  20961703.5794   -7205122.10045  -5509416.55261
  18646884.720   -24613818.307 7 -19015096.86022
  21789944.189    -1919147.435 4  -1036321.88421
  17197338.2434  -31640498.74448 -21875965.76462
 92  5 27 21 20 59.9890000  0  4G12G 2G24G13
  20935797.212    -7341261.837 5  -5615499.40221
  18647461.649   -24610784.461 7 -19012732.86022
  21761767.4154   -2067219.37044  -1151702.15661
  17183844.017   -31711413.536 8 -21931224.00422
 92  5 27 21 21 29.9890000  0  4G12G 2G24G13
  20909899.7744   -7477349.95845  -5721542.03561
  18648081.415   -24607527.129 7 -19010194.71622
  21733584.071    -2215300.076 4  -1267089.27421
  17170462.712   -31781729.696 8 -21986015.77522
 92  5 27 21 21 59.9890000  0  4G12G 2G24G13
  20884012.4624   -7613389.36445  -5827546.71461
  18648744.978   -24604038.645 7 -19007476.46422
  21705406.8924   -2363395.91444  -1382488.11561
  17157195.439   -31851452.261 8 -22040345.01022
 92  5 27 21 22 29.9890000  0  4G12G 2G24G13
  20858137.267    -7749356.995 5  -5933495.46721
  18649457.251   -24600297.890 7 -19004561.63822
  21677224.220    -2511495.288 4  -1497889.75921
  17144043.923   -31920560.407 8 -22094195.47422
 92  5 27 21 22 59.9890000  0  4G12G 2G24G13
  20832276.4394   -7885265.19745  -6039397.91661
  18650213.556   -24596323.796 7 -19001464.98222
  21649035.1814   -2659630.37344  -1613319.27461
  17131007.399   -31989068.250 8 -22147578.16922
 92  5 27 21 23 29.9890000  0  4G12G 2G24G13
  20806427.532    -8021095.996 5  -6145240.04221
  18651018.454   -24592091.466 7 -18998167.10522
  21620837.6184   -2807796.69544  -1728773.12561
  17118088.079   -32056959.959 8 -22200480.76122
 92  5 27 21 23 59.9890000  0  4G12G 2G24G13
  20780591.751    -8156859.218 5  -6251029.50021
  18651871.399   -24587610.047 7 -18994675.13422
  21592630.8684   -2956014.80344  -1844267.38161
  17105283.610   -32124247.862 8 -22252912.85822
 92  5 27 21 24 29.9890000  0  4G12G 2G24G13
  20754771.126    -8292548.404 5  -6356761.27421
  18652771.142   -24582881.380 7 -18990990.50022
  21564423.376    -3104262.357 4  -1959784.51821
  17092595.267   -32190927.634 8 -22304871.07922
 92  5 27 21 24 59.9890000  0  4G12G 2G24G13
  20728967.5244   -8428150.38545  -6462425.09061
  18653720.704   -24577893.009 7 -18987103.50322
  21536210.681    -3252506.499 4  -2075298.97521
  17080024.134   -32256988.251 8 -22356346.84422
 92  5 27 21 25 29.9890000  0  4G12G 2G24G13
  20703177.626    -8563675.157 5  -6568028.73721
  18654715.649   -24572662.750 7 -18983028.02522
  21508002.970    -3400740.864 5  -2190805.85521
  17067568.048   -32322441.736 8 -22407349.52522
 92  5 27 21 25 59.9890000  0  4G12G 2G24G13
  20677404.431    -8699114.472 5  -6673565.78621
  18655755.3604  -24567201.99347 -18978772.94662
  21479797.368    -3548956.187 5  -2306297.82821
  17055229.751   -32387282.523 8 -22457874.77422
 92  5 27 21 26 29.9890000  0  4G12G 2G24G13
  20651647.493    -8834469.699 5  -6779037.32021
  18656834.2284  -24561530.47047 -18974353.62962
  21451595.540    -3697155.182 5  -2421777.17421
  17043007.142   -32451514.456 8 -22507925.59422
 92  5 27 21 26 59.9890000  0  4G12G 2G24G13
  20625904.7984   -8969749.98145  -6884450.44761
  18657951.673   -24555661.583 7 -18969780.51722
  21423394.931    -3845357.629 5  -2537259.17521
  17030897.329   -32515149.163 8 -22557511.04622
 92  5 27 21 27 29.9890000  0  4G12G 2G24G13
  20600177.610    -9104944.224 5  -6989796.53821
  18659106.243   -24549591.284 7 -18965050.47122
  21395189.384    -3993563.742 5  -2652744.02121
  17018903.774   -32578178.202 8 -22606624.54522
 92  5 27 21 27 59.9890000  0  4G12G 2G24G13
  20574470.774    -9240038.328 5  -7095064.58221
  18660305.048   -24543293.526 7 -18960143.17022
  21366990.5954   -4141759.53745  -2768220.79461
  17007027.228   -32640589.730 8 -22655256.86822
 92  5 27 21 28 29.9890000  0  4G12G 2G24G13
  20548778.0954   -9375050.71845  -7200268.96061
  18661545.337   -24536775.831 7 -18955064.50022
  21338787.7674   -4289955.27545  -2883697.54261
  16995264.001   -32702404.194 8 -22703423.94922
 92  5 27 21 28 59.9890000  0  4G12G 2G24G13
  20523102.3534   -9509979.95245  -7305408.54561
  18662831.064   -24530022.968 7 -18949802.57422
  21310587.853    -4438149.936 5  -2999173.46021
  16983613.610   -32763623.385 8 -22751127.18022
 92  5 27 21 29 29.9890000  0  4G12G 2G24G13
  20497440.524    -9644829.810 5  -7410486.28321
  18664162.095   -24523022.521 7 -18944347.72222
  21282385.634    -4586353.205 5  -3114656.10321
  16972076.743   -32824253.182 8 -22798371.14422
 92  5 27 21 29 59.9890000  0  4G12G 2G24G13
  20471791.126    -9779618.254 5  -7515516.15221
  18665538.228   -24515789.299 7 -18938711.49222
  21254177.9934   -4734585.01945  -3230160.93561
  16960647.782   -32884314.124 8 -22845171.84422
 92  5 27 21 30 29.9890000  0  4G12G 2G24G13
  20446154.2514   -9914345.30745  -7620498.19161
  18666957.009   -24508336.472 7 -18932904.14422
  21225962.235    -4882857.315 5  -3345697.32521
  16949325.134   -32943809.305 8 -22891531.69222
 92  5 27 21 30 59.9890000  0  4G12G 2G24G13
  20420526.7284  -10049016.21045  -7725436.46861
  18668417.5484  -24500667.76847 -18926928.58862
  21197736.8924   -5031184.53745  -3461276.50461
  16938110.235   -33002746.307 8 -22937456.59422
 92  5 27 21 31 29.9890000  0  4G12G 2G24G13
  20394908.7744  -10183638.44045  -7830336.82661
  18669914.735   -24492800.732 7 -18920798.47822
  21169500.423    -5179569.750 5  -3576900.88921
  16926999.767   -33061135.142 8 -22982954.35722
 92  5 27 21 31 59.9890000  0  4G12G 2G24G13
  20369300.556   -10318210.672 5  -7935198.22021
  18671446.735   -24484751.200 7 -18914526.16222
  21141255.8374   -5327996.02645  -3692557.27961
  16915992.228   -33118977.544 8 -23028026.32522
 92  5 27 21 32 29.9880000  0  4G12G 2G24G13
  20343701.6214  -10452732.47945  -8040020.32361
  18673009.6294  -24476531.77947 -18908121.47462
  21113003.6524   -5476453.49545  -3808237.92661
  16905089.027   -33176278.269 8 -23072676.21222
 92  5 27 21 32 59.9880000  0  4G12G 2G24G13
  20318110.481   -10587215.501 5  -8144812.20721
  18674605.285   -24468146.729 7 -18901587.72022
  21084748.340    -5624934.522 5  -3923936.90021
  16894285.527   -33233046.593 8 -23116911.23822
 92  5 27 21 33 29.9880000  0  4G12G 2G24G13
  20292526.1294  -10721658.98045  -8249573.28061
  18676228.215   -24459617.154 7 -18894941.33722
  21056491.027    -5773421.926 5  -4039640.88221
  16883583.254   -33289286.964 8 -23160734.87822
 92  5 27 21 33 59.9880000  0  4G12G 2G24G13
  20266947.801   -10856074.646 5  -8354312.68621
  18677876.707   -24450955.231 7 -18888191.82922
  21028230.4734   -5921928.29845  -4155359.62361
  16872979.184   -33345014.522 8 -23204158.91922
 92  5 27 21 34 29.9880000  0  4G12G 2G24G13
  20241377.4344  -10990444.08845  -8459016.06361
  18679554.9814  -24442139.84247 -18881322.74162
  20999969.8634   -6070442.10045  -4271084.16461
  16862475.082   -33400213.730 8 -23247171.26122
 92  5 27 21 34 59.9880000  0  4G12G 2G24G13
  20215817.0904  -11124772.66945  -8563687.60461
  18681261.731   -24433163.664 7 -18874328.36422
  20971705.738    -6218974.533 5  -4386823.20121
  16852070.309   -33454893.068 8 -23289778.50822
 92  5 27 21 35 29.9880000  0  4G12G 2G24G13
  20190262.7934  -11259055.30745  -8668323.35461
  18683001.934   -24424020.440 7 -18867203.82022
  20943434.199    -6367534.329 5  -4502583.56621
  16841764.051   -33509049.969 8 -23331978.65722
 92  5 27 21 35 59.9880000  0  4G12G 2G24G13
  20164718.8174  -11393295.59045  -8772926.09561
  18684775.488   -24414703.010 7 -18859943.54022
  20915154.723    -6516139.861 5  -4618379.57221
  16831555.981   -33562691.139 8 -23373776.94422
 92  5 27 21 36 29.9880000  0  4G12G 2G24G13
  20139183.0354  -11527481.03845  -8877486.09961
  18686585.4024  -24405191.38147 -18852531.93762
  20886872.223    -6664776.011 5  -4734199.43521
  16821448.840   -33615807.161 8 -23415166.02422
 92  5 27 21 36 59.9880000  0  4G12G 2G24G13
  20113656.8714  -11661623.07246  -8982012.27361
  18688428.2154  -24395505.59747 -18844984.62462
  20858575.9264   -6813456.64345  -4850053.97461
  16811437.9344  -33668412.49648 -23456157.16762
 92  5 27 21 37 29.9880000  0  4G12G 2G24G13
  20088138.6994  -11795726.43646  -9086508.32461
  18690302.5744  -24385662.37147 -18837314.63762
  20830275.9104   -6962183.78645  -4965944.74261
  16801522.981   -33720515.293 8 -23496756.71422
 92  5 27 21 37 59.9880000  0  4G12G 2G24G13
  20062627.8874  -11929784.04546  -9190968.72161
  18692208.1294  -24375649.67547 -18829512.59662
  20801966.738    -7110946.278 5  -5081863.04721
  16791704.770   -33772111.437 8 -23536961.47522
 92  5 27 21 38 29.9880000  0  4G12G 2G24G13
  20037125.817   -12063801.958 6  -9295398.17721
  18694141.6134  -24365483.61047 -18821591.04562
  20773651.7314   -7259741.39945  -5197806.80061
  16781980.856   -33823209.308 8 -23576777.96722
 92  5 27 21 38 59.9880000  0  4G12G 2G24G13
  20011633.7314  -12197762.81046  -9399783.17561
  18696106.4024  -24355159.48947 -18813546.34262
  20745333.348    -7408551.852 5  -5313762.48921
  16772355.1844  -33873795.46648 -23616195.72562
 92  5 27 21 39 29.9880000  0  4G12G 2G24G13
  19986147.4344  -12331686.56246  -9504139.27261
  18698097.7384  -24344696.79047 -18805393.64762
  20717008.692    -7557395.181 5  -5429743.80921
  16762821.309   -33923893.624 8 -23655233.21922
 92  5 27 21 39 59.9880000  0  4G12G 2G24G13
  19960671.0274  -12465571.66046  -9608465.24161
  18700112.7934  -24334111.35047 -18797145.31562
  20688677.5124   -7706273.48145  -5545752.39861
  16753380.926   -33973504.985 8 -23693891.39422
 92  5 27 21 40 29.9880000  0  4G12G 2G24G13
  19935204.418   -12599403.888 6  -9712750.02021
  18702149.6764  -24323401.34147 -18788799.91662
  20660341.707    -7855175.496 5  -5661779.44421
  16744035.223   -34022618.246 8 -23732161.44022
 92  5 27 21 40 59.9880000  0  4G12G 2G24G13
  19909746.067   -12733184.381 6  -9816994.48621
  18704212.1134  -24312568.59247 -18780358.87662
  20631999.8174   -8004108.13545  -5777830.37361
  16734782.793   -34071238.880 8 -23770047.62222
 92  5 27 21 41 29.9880000  0  4G12G 2G24G13
  19884296.8244  -12866918.46646  -9921202.79561
  18706294.3244  -24301621.21847 -18771828.52062
  20603650.887    -8153081.073 5  -5893912.68221
  16725623.1844  -34119374.59048 -23807555.94162
 92  5 27 21 41 59.9880000  0  4G12G 2G24G13
  19858857.4734  -13000606.44146 -10025375.16561
  18708401.301   -24290550.931 7 -18763202.38122
  20575293.426    -8302096.603 5  -6010028.21421
  16716554.5984  -34167029.80548 -23844689.84762
 92  5 27 21 42 29.9880000  0  4G12G 2G24G13
  19833426.3714  -13134242.93546 -10129507.42361
  18710538.2384  -24279323.37847 -18754453.69262
  20546930.934    -8451140.988 5  -6126166.21321
  16707577.4654  -34214202.44748 -23881447.72762
 92  5 27 21 42 59.9880000  0  4G12G 2G24G13
  19808007.090   -13267821.526 6 -10233594.56721
  18712705.613   -24267930.559 7 -18745576.21922
  20518563.8794   -8600209.54045  -6242323.09461
  16698693.5434  -34260889.00448 -23917826.84562
 92  5 27 21 43 29.9880000  0  4G12G 2G24G13
  19782596.7544  -13401350.02646 -10337642.67161
  18714905.754   -24256373.868 7 -18736571.05522
  20490192.6604   -8749303.90745  -6358500.07161
  16689899.6914  -34307101.37548 -23953836.46762
 92  5 27 21 43 59.9880000  0  4G12G 2G24G13
  19757197.199   -13534820.943 6 -10441645.90121
  18717139.1524  -24244637.92347 -18727426.21661
  20461820.192    -8898399.266 5  -6474677.87821
  16681196.3164  -34352835.44748 -23989473.38662
 92  5 27 21 44 29.9880000  0  4G12G 2G24G13
  19731809.5744  -13668239.94646 -10545608.68461
  18719402.1924  -24232746.21447 -18718160.01661
  20433448.5204   -9047492.13945  -6590853.74761
  16672582.8094  -34398100.06348 -24024744.50062
 92  5 27 21 44 59.9880000  0  4G12G 2G24G13
  19706433.9654  -13801592.62646 -10649519.79361
  18721694.2074  -24220702.56547 -18708775.42261
  20405079.8954   -9196575.14245  -6707021.94661
  16664060.6764  -34442884.60548 -24059641.52962
 92  5 27 21 45 29.9880000  0  4G12G 2G24G13
  19681068.9424  -13934889.16946 -10753387.15561
  18724011.4024  -24208520.80047 -18699283.20961
  20376710.168    -9345651.293 5  -6823184.82621
  16655627.3714  -34487203.15248 -24094175.44362
 92  5 27 21 45 59.9880000  0  4G12G 2G24G13
  19655712.3954  -14068126.69146 -10857208.53161
  18726355.2934  -24196207.87447 -18689688.78561
  20348340.2934   -9494733.09345  -6939352.11761
  16647282.2544  -34531056.30748 -24128346.71162
 92  5 27 21 46 29.9880000  0  4G12G 2G24G13
  19630373.2384  -14201294.03846 -10960975.22961
  18728722.4264  -24183764.91547 -18679993.03261
  20319968.8794   -9643831.46045  -7055532.32961
  16639027.8954  -34574436.04548 -24162149.08862
 92  5 27 21 46 59.9880000  0  4G12G 2G24G13
  19605045.6924  -14334394.36646 -11064689.70061
  18731114.9184  -24171192.54147 -18670196.43761
  20291591.6294   -9792953.02745  -7171730.61761
  16630861.2854  -34617349.39448 -24195588.04062
 92  5 27 21 47 29.9880000  0  4G12G 2G24G13
  19579729.4884  -14467424.19446 -11168349.22961
  18733532.629   -24158487.257 7 -18660296.28522
  20263213.715    -9942083.962 5  -7287936.22221
  16622783.988   -34659797.168 8 -24228664.20422
 92  5 27 21 47 59.9880000  0  4G12G 2G24G13
  19554428.2314  -14600379.83446 -11271950.96161
  18735977.3874  -24145645.96847 -18650290.16762
  20234832.1524  -10091221.37145  -7404146.86961
  16614795.301   -34701779.103 8 -24261377.37322
 92  5 27 21 48 29.9880000  0  4G12G 2G24G13
  19529141.0044  -14733268.29146 -11375500.34461
  18738444.3404  -24132678.07847 -18640185.40161
  20206454.527   -10240355.618 5  -7520355.04721
  16606892.7704  -34743305.85948 -24293735.86362
 92  5 27 21 48 59.9880000  0  4G12G 2G24G13
  19503867.8324  -14866080.43746 -11478990.25961
  18740940.1604  -24119560.87847 -18629964.28861
  20178078.965   -10389466.726 5  -7636545.18121
  16599078.535   -34784371.641 8 -24325735.14522
 92  5 27 21 49 29.9880000  0  4G12G 2G24G13
  19478609.9574  -14998810.46046 -11582416.18261
  18743466.4734  -24106285.59647 -18619619.98662
  20149707.465   -10538554.949 5  -7752717.48521
  16591351.840   -34824974.861 8 -24357373.99222
 92  5 27 21 49 59.9880000  0  4G12G 2G24G13
  19453367.8564  -15131456.88946 -11685776.97161
  18746022.0274  -24092856.24347 -18609155.61961
  20121340.410   -10687620.319 5  -7868871.97721
  16583712.6524  -34865118.29848 -24388654.57262
 92  5 27 21 50 29.9880000  0  4G12G 2G24G13
  19428142.7384  -15264016.51846 -11789070.12761
  18748608.8404  -24079266.97647 -18598566.65061
  20092980.809   -10836654.130 5  -7985001.87521
  16576160.8164  -34904802.06548 -24419576.96761
 92  5 27 21 50 59.9880000  0  4G12G 2G24G13
  19402932.2154  -15396502.05346 -11892305.55561
  18751222.035   -24065530.676 7 -18587863.12621
  20064621.848   -10985678.102 6  -8101124.10421
  16568693.6604  -34944043.04748 -24450154.33962
 92  5 27 21 51 29.9870000  0  4G12G 2G24G13
  19377736.8274  -15528903.63346 -11995475.55761
  18753861.9764  -24051659.41347 -18577054.43362
  20036266.718   -11134684.057 6  -8217232.30421
  16561310.5854  -34982838.42048 -24480384.48662
 92  5 27 21 51 59.9870000  0  4G12G 2G24G13
  19352558.6794  -15661216.22546 -12098576.22061
  18756529.3124  -24037643.01046 -18566132.63861
  20007917.913   -11283664.410 6  -8333320.54421
  16554014.4994  -35021180.95548 -24510261.77362
 92  5 27 21 52 29.9870000  0  4G12G 2G24G13
  19327398.593   -15793437.151 6 -12201605.46021
  18759223.1554  -24023488.92946 -18555103.55561
  19979569.374   -11432631.216 6  -8449398.24221
  16546803.5544  -35059075.59648 -24539790.05662
 92  5 27 21 52 59.9870000  0  4G12G 2G24G13
  19302253.6634  -15925574.15646 -12304569.30061
  18761938.1484  -24009221.57646 -18543986.20961
  19951221.280   -11581597.211 5  -8565475.29521
  16539675.2734  -35096532.80548 -24568977.48062
 92  5 27 21 53 29.9870000  0  4G12G 2G24G13
  19277127.515   -16057613.842 6 -12407457.32721
  18764673.9914  -23994837.72146 -18532778.08961
  19922877.5384  -11730543.27445  -8681536.83861
  16532632.7884  -35133543.72148 -24597817.14562
 92  5 27 21 53 59.9870000  0  4G12G 2G24G13
  19252016.093   -16189572.650 6 -12510282.31121
  18767430.780   -23980358.410 6 -18521495.58421
  19894532.2104  -11879489.33745  -8797598.37061
  16525670.2574  -35170129.27648 -24626325.36462
 92  5 27 21 54 29.9870000  0  4G12G 2G24G13
  19226922.491   -16321435.850 6 -12613032.80421
  18770206.4444  -23965770.16146 -18510128.19161
  19866192.0304  -12028418.53545  -8913646.77961
  16518791.6634  -35206278.56148 -24654493.62762
 92  5 27 21 54 59.9870000  0  4G12G 2G24G13
  19201848.9844  -16453198.89346 -12715705.25061
  18773005.866   -23951059.846 6 -18498665.68821
  19837857.859   -12177314.260 5  -9029669.10721
  16511995.8744  -35241991.37948 -24682321.79062
 92  5 27 21 55 29.9870000  0  4G12G 2G24G13
  19176793.3124  -16584867.28446 -12818303.93661
  18775830.132   -23936218.951 6 -18487101.44421
  19809529.7024  -12326180.65345  -9145668.58161
  16505281.3124  -35277277.07348 -24709817.12562
 92  5 27 21 55 59.9870000  0  4G12G 2G24G13
  19151757.3194  -16716431.26146 -12920821.26061
  18778682.3354  -23921226.43846 -18475419.04261
  19781208.2024  -12475009.16845  -9261638.55361
  16498648.8044  -35312130.02448 -24736975.25562
 92  5 27 21 56 29.9870000  0  4G12G 2G24G13
  19126744.3984  -16847877.89946 -13023247.15161
  18781567.9374  -23906065.64946 -18463605.51461
  19752897.0544  -12623783.18446  -9377566.06661
  16492100.6084  -35346541.67648 -24763789.51562
 92  5 27 21 56 59.9870000  0  4G12G 2G24G13
  19101751.9844  -16979212.13146 -13125585.44261
  18784484.9844  -23890740.09946 -18451663.59261
  19724595.085   -12772510.650 6  -9493457.30821
  16485634.3194  -35380520.68748 -24790266.64961
 92  5 27 21 57 29.9870000  0  4G12G 2G24G13
  19076781.6554  -17110429.49346 -13227832.67361
  18787432.6404  -23875249.99646 -18439593.45661
  19696301.9994  -12921190.40546  -9609311.36861
  16479250.6164  -35414067.19348 -24816406.77062
 92  5 27 21 57 59.9870000  0  4G12G 2G24G13
  19051834.2024  -17241535.28046 -13329992.95961
  18790409.2264  -23859603.90246 -18427401.78361
  19668017.2264  -13069827.90646  -9725132.51361
  16472947.773   -35447191.001 8 -24842217.51422
 92  5 27 21 58 29.9870000  0  4G12G 2G24G13
  19026910.4214  -17372505.88946 -13432047.90961
  18793419.3194  -23843789.60346 -18415079.02961
  19639746.6094  -13218391.65846  -9840896.18461
  16466728.3434  -35479872.75548 -24867683.79662
 92  5 27 21 58 59.9870000  0  4G12G 2G24G13
  19002013.5544  -17503344.08146 -13533999.67761
  18796460.069   -23827810.902 6 -18402628.17821
  19611489.1094  -13366880.04646  -9956601.11661
  16460591.7494  -35512119.27848 -24892810.94162
 92  5 27 21 59 29.9870000  0  4G12G 2G24G13
  18977141.8124  -17634043.07346 -13635842.96961
  18799530.6094  -23811674.89546 -18390054.74561
  19583251.2344  -13515278.38446 -10072235.87961
  16454538.9374  -35543927.84348 -24917596.82662
 92  5 27 21 59 59.9870000  0  4G12G 2G24G13
  18952297.2654  -17764604.98446 -13737579.44961
  18802628.4374  -23795394.69746 -18377368.95061
  19555029.968   -13663578.852 6 -10187794.37221
  16448567.9294  -35575304.91548 -24942046.48362
 92  5 27 22  0 29.9870000  0  4G12G 2G24G13
  18927478.9684  -17895017.87946 -13839199.81861
  18805754.6324  -23778971.61446 -18364571.80661
  19526829.9374  -13811769.60446 -10303267.37661
  16442680.6554  -35606243.45948 -24966154.43562
 92  5 27 22  0 59.9870000  0  4G12G 2G24G13
  18902687.7494  -18025298.69846 -13940717.26861
  18808901.3984  -23762425.01046 -18351678.41661
  19498643.530   -13959880.340 6 -10418678.03121
  16436873.0774  -35636764.41148 -24989936.98962
 92  5 27 22  1 29.9870000  0  4G12G 2G24G13
  18877923.5154  -18155439.35846 -14042125.50561
  18812075.077   -23745755.439 6 -18338689.21821
  19470477.4294  -14107902.58946 -10534019.72361
  16431144.9214  -35666863.77048 -25013391.03262
 92  5 27 22  1 59.9870000  0  4G12G 2G24G13
  18853185.2104  -18285438.91546 -14143423.79361
  18815271.8904  -23728959.61446 -18325601.64461
  19442323.8824  -14255853.06346 -10649305.49061
  16425496.9764  -35696545.36048 -25036519.54362
 92  5 27 22  2 29.9870000  0  4G12G 2G24G13
  18828478.3594  -18415278.07146 -14244597.09261
  18818496.694   -23712013.378 6 -18312396.86221
  19414181.4444  -14403732.48946 -10764535.89561
  16419930.8434  -35725794.34248 -25059310.95562
 92  5 27 22  2 59.9870000  0  4G12G 2G24G13
  18803797.4844  -18544974.77046 -14345659.39461
  18821746.0624  -23694934.57146 -18299088.77461
  19386052.093   -14551555.578 6 -10879722.39521
  16414443.1634  -35754633.16348 -25081782.76462
 92  5 27 22  3 29.9870000  0  4G12G 2G24G13
  18779144.991   -18674522.747 6 -14446605.81521
  18825021.8044  -23677717.22046 -18285672.72761
  19357935.4374  -14699307.41046 -10994853.36761
  16409034.4684  -35783060.25648 -25103933.75062
 92  5 27 22  3 59.9870000  0  4G12G 2G24G13
  18754523.4684  -18803909.18746 -14547426.36261
  18828329.7104  -23660341.80146 -18272133.51161
  19329835.6324  -14846977.89146 -11109920.94661
  16403704.1634  -35811067.01648 -25125757.19862
 92  5 27 22  4 29.9870000  0  4G12G 2G24G13
  18729933.069   -18933130.801 6 -14648118.47921
  18831666.8124  -23642806.85546 -18258469.98861
  19301751.5074  -14994549.26346 -11224911.31061
  16398454.7104  -35838654.54348 -25147253.97262
 92  5 27 22  4 59.9870000  0  4G12G 2G24G13
  18705375.562   -19062182.609 6 -14748678.28521
  18835033.905   -23625106.023 6 -18244677.21021
  19273693.3984  -15142000.84846 -11339808.32061
  16393285.0304  -35865822.30448 -25168423.65662
 92  5 27 22  5 29.9870000  0  4G12G 2G24G13
  18680850.343   -19191062.041 6 -14849103.75821
  18838436.8434  -23607225.82746 -18230744.67561
  19245654.4524  -15289342.15046 -11454619.41361
  16388194.8354  -35892572.52048 -25189267.97262
 92  5 27 22  5 59.9870000  0  4G12G 2G24G13
  18656359.679   -19319761.779 6 -14949389.21621
  18841874.3594  -23589162.53246 -18216669.45961
  19217637.6714  -15436574.09346 -11569345.29461
  16383183.7334  -35918902.62248 -25209784.92562
 92  5 27 22  6 29.9870000  0  4G12G 2G24G13
  18631902.148   -19448288.076 6 -15049539.53121
  18845343.0624  -23570936.82846 -18202467.68361
  19189640.2734  -15583699.35146 -11683988.04061
  16378251.6244  -35944823.28248 -25229982.83462
 92  5 27 22  6 59.9870000  0  4G12G 2G24G13
  18607478.046   -19576636.214 6 -15149551.01421
  18848841.3984  -23552549.99446 -18188140.35161
  19161665.0624  -15730711.89846 -11798542.97061
  16373397.1554  -35970334.28148 -25249861.52762
 92  5 27 22  7 29.9870000  0  4G12G 2G24G13
  18583094.7264  -19704771.34846 -15249396.52261
  18852375.4374  -23533981.53046 -18173671.49361
  19133716.4764  -15877576.30746 -11912982.47061
  16368625.9524  -35995405.56148 -25269397.57562
 92  5 27 22  7 59.9870000  0  4G12G 2G24G13
  18558747.710   -19832719.707 7 -15349096.48821
  18855934.1094  -23515280.16546 -18159099.07561
  19105795.2494  -16024302.54546 -12027314.31361
  16363932.7334  -36020067.74248 -25288614.84762
 92  5 27 22  8 29.9870000  0  4G12G 2G24G13
  18534437.1164  -19960471.63447 -15448643.39561
  18859519.2104  -23496438.94446 -18144417.68661
  19077902.718   -16170873.224 6 -12141524.94321
  16359318.577   -36044316.224 8 -25307509.74922
 92  5 27 22  8 59.9870000  0  4G12G 2G24G13
  18510162.3434  -20088036.48947 -15548044.53061
  18863132.093   -23477450.958 6 -18129621.93921
  19050038.890   -16317307.195 6 -12255629.05421
  16354779.9374  -36068164.91248 -25326093.12862
 92  5 27 22  9 29.9860000  0  4G12G 2G24G13
  18485925.8464  -20215402.30347 -15647290.56361
  18866776.135   -23458305.298 6 -18114703.32721
  19022199.338   -16463598.046 6 -12369621.64721
  16350318.9014  -36091609.66048 -25344361.75062
 92  5 27 22  9 59.9860000  0  4G12G 2G24G13
  18461727.0884  -20342565.86147 -15746378.99161
  18870452.7684  -23438985.08946 -18099648.70461
  18994387.776   -16609746.378 6 -12483503.19021
  16345934.7834  -36114645.09948 -25362311.42462
 92  5 27 22 10 29.9860000  0  4G12G 2G24G13
  18437566.807   -20469525.664 7 -15845308.65321
  18874164.4404  -23419480.33046 -18084450.27261
  18966604.213   -16755757.297 6 -12597277.65521
  16341628.1434  -36137278.20948 -25379947.60662
 92  5 27 22 10 59.9860000  0  4G12G 2G24G13
  18413445.2054  -20596287.01247 -15944083.67261
  18877908.7294  -23399801.55046 -18069116.25161
  18938843.377   -16901636.095 6 -12710949.17821
  16337396.2914  -36159519.15548 -25397278.19662
 92  5 27 22 11 29.9860000  0  4G12G 2G24G13
  18389362.5724  -20722841.84847 -16042697.77262
  18881684.197   -23379960.375 6 -18053655.68121
  18911111.565   -17047365.980 6 -12824504.66521
  16333239.2134  -36181364.30848 -25414300.38362
 92  5 27 22 11 59.9860000  0  4G12G 2G24G13
  18365320.0884  -20849186.16047 -16141147.82962
  18885489.877   -23359957.740 6 -18038069.29521
  18883407.7134  -17192950.20046 -12937946.65161
  16329156.9794  -36202814.37748 -25431014.71762
 92  5 27 22 12 29.9860000  0  4G12G 2G24G13
  18341318.4084  -20975314.93747 -16239429.93862
  18889328.674   -23339789.450 6 -18022353.83621
  18855730.7604  -17338394.65746 -13051279.73861
  16325150.6824  -36223869.10848 -25447420.99562
 92  5 27 22 12 59.9860000  0  4G12G 2G24G13
  18317359.2764  -21101222.86947 -16337539.96162
  18893197.752   -23319462.015 6 -18006514.37321
  18828079.2994  -17483695.56246 -13164500.98061
  16321219.2994  -36244528.11548 -25463518.91762
 92  5 27 22 13 29.9860000  0  4G12G 2G24G13
  18293440.541   -21226913.874 7 -16435480.95022
  18897096.190   -23298977.367 6 -17990552.40221
  18800456.533   -17628858.026 6 -13277614.35021
  16317361.6584  -36264800.49448 -25479315.56962
 92  5 27 22 13 59.9860000  0  4G12G 2G24G13
  18269566.135   -21352374.883 7 -16533242.72722
  18901026.979   -23278318.414 6 -17974454.61321
  18772862.1664  -17773866.79446 -13390607.95461
  16313579.1514  -36284677.48248 -25494804.12362
 92  5 27 22 14 29.9860000  0  4G12G 2G24G13
  18245736.861   -21477600.423 7 -16630821.02222
  18904991.971   -23257485.129 6 -17958220.97121
  18745299.3304  -17918707.09346 -13503470.29161
  16309871.7444  -36304158.73548 -25509984.31662
 92  5 27 22 14 59.9860000  0  4G12G 2G24G13
  18221952.119   -21602591.361 7 -16728216.50922
  18908987.541   -23236481.511 6 -17941854.60621
  18717772.3154  -18063361.72746 -13616187.95461
  16306239.0654  -36323249.38548 -25524860.13562
 92  5 27 22 15 29.9860000  0  4G12G 2G24G13
  18198212.5964  -21727338.37647 -16825421.92262
  18913020.455   -23215288.724 6 -17925340.84221
  18690284.7914  -18207815.00546 -13728748.72561
  16302681.3384  -36341945.77148 -25539428.74362
 92  5 27 22 15 59.9860000  0  4G12G 2G24G13
  18174521.4324  -21851838.94747 -16922435.30062
  18917090.322   -23193907.792 6 -17908680.47521
  18662833.127   -18352071.936 6 -13841156.50921
  16299198.5724  -36360249.53548 -25553691.40862
 92  5 27 22 16 29.9860000  0  4G12G 2G24G13
  18150879.541   -21976074.914 7 -17019242.49422
  18921198.486   -23172320.261 6 -17891859.12721
  18635422.354   -18496114.243 6 -13953397.05321
  16295791.8934  -36378147.71148 -25567638.03662
 92  5 27 22 16 59.9860000  0  4G12G 2G24G13
  18127287.3854  -22100052.66847 -17115848.48062
  18925343.0654  -23150533.58546 -17874882.58561
  18608049.901   -18639953.799 6 -14065479.61921
  16292461.5494  -36395651.96448 -25581277.69962
 92  5 27 22 17 29.9860000  0  4G12G 2G24G13
  18103746.2834  -22223760.06547 -17212243.79662
  18929527.018   -23128554.159 6 -17857755.86121
  18580713.729   -18783603.655 6 -14177414.35821
  16289206.4864  -36412754.76448 -25594604.54962
 92  5 27 22 17 59.9860000  0  4G12G 2G24G13
  18080257.1194  -22347200.47147 -17308431.06262
  18933740.401   -23106409.576 6 -17840500.44521
  18553411.674   -18927081.737 6 -14289215.25921
  16286026.7684  -36429463.81748 -25607624.58162
 92  5 27 22 18 29.9860000  0  4G12G 2G24G13
  18056817.1194  -22470375.82047 -17404411.79162
  18937986.533   -23084098.735 6 -17823115.47721
  18526142.7834  -19070381.26546 -14400877.01561
  16282920.5964  -36445786.18948 -25620343.29962
 92  5 27 22 18 59.9860000  0  4G12G 2G24G13
  18033427.6434  -22593287.83047 -17500187.31962
  18942260.666   -23061635.599 6 -17805611.83721
  18498905.760   -19213510.766 6 -14512406.29221
  16279887.4634  -36461729.07448 -25632766.32162
 92  5 27 22 19 29.9860000  0  4G12G 2G24G13
  18010087.2294  -22715941.05347 -17595761.19762
  18946564.744   -23039024.156 6 -17787992.63721
  18471703.2524  -19356458.88846 -14623794.24461
  16276923.2444  -36477302.05548 -25644901.11162
 92  5 27 22 19 59.9860000  0  4G12G 2G24G13
  17986801.0414  -22838312.80047 -17691115.74262
  18950903.080   -23016216.799 6 -17770220.77521
  18444545.5264  -19499169.47946 -14734997.10361
  16274034.3074  -36492486.68548 -25656733.28662
 92  5 27 22 20 29.9860000  0  4G12G 2G24G13
  17963565.4474  -22960415.36947 -17786260.54262
  18955281.580   -22993212.974 6 -17752295.82521
  18417435.2214  -19641636.89246 -14846010.47761
  16271215.2294  -36507300.46348 -25668276.49062
 92  5 27 22 20 59.9860000  0  4G12G 2G24G13
  17940385.5494  -23082228.02447 -17881179.43862
  18959696.971   -22970007.440 6 -17734213.68821
  18390373.9864  -19783842.44946 -14956819.80761
  16268469.1584  -36521727.72348 -25679518.51162
 92  5 27 22 21 29.9860000  0  4G12G 2G24G13
  17917259.6664  -23203754.02547 -17975874.96662
  18964152.283   -22946597.559 6 -17715972.32321
  18363363.9554  -19925784.49346 -15067423.80161
  16265796.1194  -36535776.45548 -25690465.57362
 92  5 27 22 21 59.9860000  0  4G12G 2G24G13
  17894188.8154  -23324996.63247 -18070349.66962
  18968643.6434  -22922996.17946 -17697581.75461
  18336398.9794  -20067486.57946 -15177840.82561
  16263193.9164  -36549455.31848 -25701124.42562
 92  5 27 22 22 29.9860000  0  4G12G 2G24G13
  17871170.096   -23445955.575 7 -18164603.33922
  18973166.1354  -22899228.95646 -17679061.95761
  18309475.3694  -20208970.82946 -15288088.10761
  16260660.6744  -36562768.82348 -25711498.58062
 92  5 27 22 22 59.9860000  0  4G12G 2G24G13
  17848207.486   -23566622.108 7 -18258629.16222
  18977720.0494  -22875300.71346 -17660416.68561
  18282591.7444  -20350245.72046 -15398172.24861
  16258196.2764  -36575712.87148 -25721584.84062
 92  5 27 22 23 29.9860000  0  4G12G 2G24G13
  17825300.830   -23686998.855 7 -18352429.18022
  18982305.7684  -22851205.59046 -17641641.37661
  18255744.526   -20491319.481 6 -15508099.67621
  16255802.5574  -36588295.43748 -25731389.43862
 92  5 27 22 23 59.9860000  0  4G12G 2G24G13
  17802449.080   -23807087.283 7 -18446004.53322
  18986920.0264  -22826953.45146 -17622743.72061
  18228936.260   -20632202.549 6 -15617878.51321
  16253475.3854  -36600523.29748 -25740917.64262
 92  5 27 22 24 29.9860000  0  4G12G 2G24G13
  17779651.916   -23926888.375 7 -18539355.99122
  18991567.471   -22802535.446 6 -17603716.82021
  18202164.3154  -20772886.25146 -15727502.00461
  16251215.3224  -36612401.74548 -25750173.57362
 92  5 27 22 24 59.9860000  0  4G12G 2G24G13
  17756910.4244  -24046393.41347 -18632476.75062
  18996248.736   -22777928.968 5 -17584543.05421
  18175435.986   -20913348.047 6 -15836952.58921
  16249021.8224  -36623926.97248 -25759154.27062
 92  5 27 22 25 29.9860000  0  4G12G 2G24G13
  17734226.682   -24165598.935 7 -18725364.12222
  19000970.1194  -22753121.04345 -17565212.32861
  18148749.908   -21053578.452 6 -15946222.87521
  16246895.0724  -36635101.06248 -25767861.35262
 92  5 27 22 25 59.9860000  0  4G12G 2G24G13
  17711599.830   -24284502.854 7 -18818016.48022
  19005725.877   -22728124.233 5 -17545734.40821
  18122112.158   -21193561.093 6 -16055300.10121
  16244835.8154  -36645926.83448 -25776297.01862
 92  5 27 22 26 29.9850000  0  4G12G 2G24G13
  17689030.263   -24403103.997 7 -18910432.90822
  19010517.7324  -22702947.81445 -17526116.53561
  18095524.700   -21333280.436 6 -16164172.15421
  16242840.4194  -36656411.97648 -25784467.25362
 92  5 27 22 26 59.9850000  0  4G12G 2G24G13
  17666519.763   -24521400.559 7 -19002611.99422
  19015340.1464  -22677599.63645 -17506364.83761
  18068986.9274  -21472737.91646 -16272840.17262
  16240911.1694  -36666552.52248 -25792368.97062
 92  5 27 22 27 29.9850000  0  4G12G 2G24G13
  17644068.669   -24639383.184 7 -19094546.46022
  19020196.075   -22652085.937 5 -17486484.15521
  18042500.403   -21611925.795 6 -16381298.10722
  16239046.9194  -36676347.55848 -25800001.46162
 92  5 27 22 27 59.9850000  0  4G12G 2G24G13
  17621676.411   -24757057.086 7 -19186240.36122
  19025081.5834  -22626419.75845 -17466484.65561
  18016064.653   -21750841.357 6 -16489543.86321
  16237246.3174  -36685807.41548 -25807372.77462
 92  5 27 22 28 29.9850000  0  4G12G 2G24G13
  17599345.068   -24874404.715 7 -19277680.02522
  19030001.2084  -22600573.93145 -17446345.17861
  17989681.8644  -21889482.78146 -16597576.00762
  16235512.3804  -36694919.16548 -25814472.83562
 92  5 27 22 28 59.9850000  0  4G12G 2G24G13
  17577076.888   -24991422.552 7 -19368862.70822
  19034953.786   -22574535.002 5 -17426055.23921
  17963350.6614  -22027860.37446 -16705402.57061
  16233844.2864  -36703684.64748 -25821303.08062
 92  5 27 22 29 29.9850000  0  4G12G 2G24G13
  17554871.396   -25108117.779 7 -19459793.99822
  19039947.6694  -22548299.80445 -17405612.33661
  17937065.9274  -22165983.32246 -16813030.70462
  16232240.1304  -36712116.18448 -25827873.10662
 92  5 27 22 29 59.9850000  0  4G12G 2G24G13
  17532729.286   -25224470.847 7 -19550458.67222
  19044979.497   -22521852.445 5 -17385004.11921
  17910831.0364  -22303851.08046 -16920459.99762
  16230701.7554  -36720198.47148 -25834170.98962
 92  5 27 22 30 29.9850000  0  4G12G 2G24G13
  17510652.982   -25340486.567 7 -19640860.47922
  19050050.1854  -22495208.09745 -17364242.40961
  17884642.5834  -22441473.63746 -17027698.21961
  16229228.3414  -36727941.88448 -25840204.81962
 92  5 27 22 30 59.9850000  0  4G12G 2G24G13
  17488640.8884  -25456160.26847 -19730995.77662
  19055159.466   -22468364.763 5 -17343325.63621
  17858501.9354  -22578842.13746 -17134738.47562
  16227819.4424  -36735346.96148 -25845975.00662
 92  5 27 22 31 29.9850000  0  4G12G 2G24G13
  17466692.1534  -25571501.05747 -19820871.66562
  19060299.0444  -22441350.54745 -17322275.71261
  17832408.364   -22715958.842 6 -17241582.52522
  16226471.8254  -36742428.18748 -25851492.84262
 92  5 27 22 31 59.9850000  0  4G12G 2G24G13
  17444809.864   -25686493.764 7 -19910476.32322
  19065472.107   -22414167.055 5 -17301093.86721
  17806368.7164  -22852798.98446 -17348211.07262
  16225188.2864  -36749174.82348 -25856749.96362
 92  5 27 22 32 29.9850000  0  4G12G 2G24G13
  17422996.568   -25801125.491 7 -19999799.69822
  19070682.2784  -22386794.58545 -17279764.78161
  17780386.0604  -22989339.18046 -17454605.89762
  16223969.5674  -36755578.99048 -25861740.22762
 92  5 27 22 32 59.9850000  0  4G12G 2G24G13
  17401251.6304  -25915390.83847 -20088837.58462
  19075929.607   -22359225.841 5 -17258282.75721
  17754461.1304  -23125576.40746 -17560764.65162
  16222815.8024  -36761640.77848 -25866463.69862
 92  5 27 22 33 29.9850000  0  4G12G 2G24G13
  17379580.489   -26029276.286 7 -20177579.44522
  19081212.3024  -22331459.28245 -17236646.59461
  17728595.5214  -23261496.64446 -17666676.39962
  16221729.7554  -36767351.31348 -25870913.47062
 92  5 27 22 33 59.9850000  0  4G12G 2G24G13
  17357981.380   -26142780.621 7 -20266024.33422
  19086535.4744  -22303481.14645 -17214845.56261
  17702790.8414  -23397103.05747 -17772343.60562
  16220709.0284  -36772714.54248 -25875092.61062
 92  5 27 22 34 29.9850000  0  4G12G 2G24G13
  17336455.380   -26255897.498 7 -20354167.30822
  19091902.9664  -22275279.07245 -17192870.02961
  17677045.2004  -23532400.82846 -17877770.31162
  16219754.6854  -36777729.36148 -25879000.26962
 92  5 27 22 34 59.9850000  0  4G12G 2G24G13
  17315009.333   -26368600.978 7 -20441988.15722
  19097313.411   -22246841.949 5 -17170711.35121
  17651363.9194  -23667353.55647 -17982928.15162
  16218870.4354  -36782374.74548 -25882620.05162
 92  5 27 22 35 29.9850000  0  4G12G 2G24G13
  17293641.716   -26480886.051 7 -20529482.98122
  19102770.638   -22218169.094 5 -17148368.98921
  17625750.8884  -23801950.76147 -18087808.96162
  16218056.8104  -36786650.17347 -25885951.55662
 92  5 27 22 35 59.9850000  0  4G12G 2G24G13
  17272355.122   -26592749.315 7 -20616649.11922
  19108270.380   -22189266.648 5 -17125847.72421
  17600207.1534  -23936182.42047 -18192404.92962
  16217312.9114  -36790558.09548 -25888996.69162
 92  5 27 22 36 29.9850000  0  4G12G 2G24G13
  17251146.005   -26704202.274 7 -20703495.53822
  19113809.8414  -22160154.71145 -17103163.22761
  17574732.9974  -24070050.54747 -18296717.62962
  16216636.6694  -36794114.79347 -25891768.14162
 92  5 27 22 36 59.9850000  0  4G12G 2G24G13
  17230016.333   -26815240.067 7 -20790018.44822
  19119389.0684  -22130832.47345 -17080314.85961
  17549329.8414  -24203545.08947 -18400739.22462
  16216026.4894  -36797320.36947 -25894265.99262
 92  5 27 22 37 29.9850000  0  4G12G 2G24G13
  17208964.630   -26925867.775 7 -20876221.81622
  19125009.638   -22101298.403 5 -17057301.44221
  17523993.6224  -24336685.69147 -18504485.01662
  16215481.4894  -36800184.82748 -25896498.03662
 92  5 27 22 37 59.9850000  0  4G12G 2G24G13
  17187991.450   -27036086.548 7 -20962106.53522
  19130671.7634  -22071547.93945 -17034119.39661
  17498723.8724  -24469486.66547 -18607966.16362
  16215000.6384  -36802713.65347 -25898468.54362
 92  5 27 22 38 29.9850000  0  4G12G 2G24G13
  17167095.450   -27145889.221 7 -21047667.01322
  19136378.7244  -22041558.13545 -17010750.85661
  17473516.0524  -24601948.12747 -18711182.75762
  16214582.3724  -36804905.34747 -25900176.35262
 92  5 27 22 38 59.9850000  0  4G12G 2G24G13
  17146280.169   -27255277.858 7 -21132904.87222
  19142130.138   -22011337.685 5 -16987202.60221
  17448371.9504  -24734075.94947 -18814139.37462
  16214229.4034  -36806766.92547 -25901626.93162
 92  5 27 22 39 29.9850000  0  4G12G 2G24G13
  17125542.786   -27364249.200 7 -21217817.56222
  19147924.786   -21980884.744 5 -16963473.18421
  17423292.6934  -24865869.38147 -18916835.43262
  16213938.3644  -36808300.21647 -25902821.70262
 92  5 27 22 39 59.9850000  0  4G12G 2G24G13
  17104887.169   -27472793.697 7 -21302397.64822
  19153764.5284  -21950197.57945 -16939561.24461
  17398281.9584  -24997306.93447 -19019254.18362
  16213708.4664  -36809500.84247 -25903757.25362
 92  5 27 22 40 29.9850000  0  4G12G 2G24G13
  17084315.419   -27580900.871 7 -21386636.96122
  19159649.388   -21919273.482 5 -16915464.68321
  17373343.1384  -25128360.89247 -19121374.02362
  16213544.3804  -36810363.57247 -25904429.51062
 92  5 27 22 40 59.9850000  0  4G12G 2G24G13
  17063824.403   -27688582.315 7 -21470544.53722
  19165575.060   -21888135.132 5 -16891201.17121
  17348473.1854  -25259050.96947 -19223210.31862
  16213440.6924  -36810904.30047 -25904850.86062
 92  5 27 22 41 29.9850000  0  4G12G 2G24G13
  17043416.325   -27795828.601 7 -21554113.03623
  19171543.872   -21856769.966 5 -16866760.94221
  17323674.1074  -25389372.60047 -19324759.51362
  16213399.8804  -36811118.12747
 92  5 27 22 41 59.9850000  0  4G12G 2G24G13
  17023088.778   -27902649.073 7 -21637349.73323
  19177552.0914  -21825199.05845 -16842160.36661
  17298941.8334  -25519339.18447 -19426032.04962
  16213420.8104  -36811019.88947
 92  5 27 22 42 29.9850000  0  4G12G 2G24G13
  17002845.786   -28009025.972 7 -21720240.78923
  19183600.1934  -21793415.00345 -16817393.71261
  17274278.2164  -25648943.66947 -19527022.43162
  16213501.5914  -36810597.15847
 92  5 27 22 42 59.9850000  0  4G12G 2G24G13
  16982686.224   -28114964.380 7 -21802790.16623
  19189686.7864  -21761421.37845 -16792463.75561
  17249681.9504  -25778200.70347 -19627742.07462
  16213641.7164  -36809859.75348 -25904036.94562
 92  5 27 22 43 29.9840000  0  4G12G 2G24G13
  16962614.227   -28220444.124 7 -21884982.14323
  19195819.4304  -21729205.57845 -16767360.66161
  17225158.2424  -25907075.12347 -19728163.57562
  16213841.5004  -36808795.64448 -25903207.77762
 92  5 27 22 43 59.9840000  0  4G12G 2G24G13
  16942629.359   -28325469.233 7 -21966819.86523
  19201993.3364  -21696763.41145 -16742081.20161
  17200706.7274  -26035564.57347 -19828285.10062
  16214106.3444  -36807406.75448 -25902125.52862
 92  5 27 22 44 29.9840000  0  4G12G 2G24G13
  16922729.7894  -28430038.71147 -22048302.55563
  19208211.2424  -21664087.14945 -16716619.33161
  17176333.4064  -26163650.29047 -19928092.02762
  16214430.5944  -36805700.87148 -25900796.27762
 92  5 27 22 44 59.9840000  0  4G12G 2G24G13
  16902918.578   -28534146.537 7 -22129425.50823
  19214476.500   -21631167.194 5 -16690967.54621
  17152037.0704  -26291323.06847 -20027577.19262
  16214817.7814  -36803676.23248 -25899218.64362
 92  5 27 22 45 29.9840000  0  4G12G 2G24G13
  16883199.016   -28637776.527 7 -22210176.12423
  19220787.047   -21598007.136 5 -16665128.70221
  17127824.1334  -26418564.91347 -20126726.56262
  16215265.1024  -36801322.07548 -25897384.23962
 92  5 27 22 45 59.9840000  0  4G12G 2G24G13
  16863567.1564  -28740938.84547 -22290562.32363
  19227135.602   -21564628.763 5 -16639119.74721
  17103690.6414  -26545386.78147 -20225548.67862
  16215773.3364  -36798653.73048 -25895305.01462
 92  5 27 22 46 29.9840000  0  4G12G 2G24G13
  16844026.8754  -28843622.18447 -22370575.29563
  19233531.4614  -21531035.57845 -16612943.38961
  17079636.9454  -26671788.81647 -20324043.66362
  16216341.5004  -36795664.45648 -25892975.71262
 92  5 27 22 46 59.9840000  0  4G12G 2G24G13
  16824579.047   -28945824.966 7 -22450213.80223
  19239963.758   -21497229.772 5 -16586601.35821
  17055660.359   -26797785.087 7 -20422222.46022
  16216971.1494  -36792357.04348 -25890398.51762
 92  5 27 22 47 29.9840000  0  4G12G 2G24G13
  16805225.297   -29047528.937 7 -22529463.62623
  19246440.992   -21463187.227 5 -16560074.87021
  17031764.6564  -26923358.43547 -20520071.71062
  16217663.3524  -36788718.76948 -25887563.50662
 92  5 27 22 47 59.9840000  0  4G12G 2G24G13
  16785964.930   -29148739.646 7 -22608329.08623
  19252964.6494  -21428904.41745 -16533361.15861
  17007946.359   -27048527.084 7 -20617605.61822
  16218416.4144  -36784760.13448 -25884478.86762
 92  5 27 22 48 29.9840000  0  4G12G 2G24G13
  16766797.875   -29249463.302 7 -22686815.02223
  19259536.055   -21394382.872 5 -16506461.42721
  16984199.7034  -27173311.87447 -20714840.41162
  16219229.8524  -36780491.51747 -25881152.68762
 92  5 27 22 48 59.9840000  0  4G12G 2G24G13
  16747725.133   -29349693.138 7 -22764916.16023
  19266150.2424  -21359616.46645 -16479370.88761
  16960530.563   -27297697.602 7 -20811764.25122
  16220100.4924  -36775911.49947 -25877583.85762
 92  5 27 22 49 29.9840000  0  4G12G 2G24G13
  16728745.844   -29449430.327 7 -22842633.42223
  19272807.7894  -21324628.37045 -16452107.61161
  16936935.469   -27421685.847 7 -20908378.36322
  16221030.7114  -36771025.50248 -25873776.59962
 92  5 27 22 49 59.9840000  0  4G12G 2G24G13
  16709861.266   -29548668.699 7 -22919961.99423
  19279506.3204  -21289423.38445 -16424675.34661
  16913420.414   -27545260.904 7 -21004670.50822
  16222019.2744  -36765832.65448 -25869730.23962
 92  5 27 22 50 29.9840000  0  4G12G 2G24G13
  16691070.352   -29647415.528 7 -22996907.54723
  19286247.461   -21254003.048 5 -16397075.26121
  16889984.383   -27668412.174 7 -21100632.42722
  16223062.8594  -36760344.78747 -25865453.99462
 92  5 27 22 50 59.9840000  0  4G12G 2G24G13
  16672373.820   -29745669.014 7 -23073468.67723
  19293032.4854  -21218354.98945 -16369297.71961
  16866633.977   -27791122.884 7 -21196251.05722
  16224162.9384  -36754564.66547 -25860950.02562
 92  5 27 22 51 29.9840000  0  4G12G 2G24G13
  16653770.063   -29843429.094 7 -23149645.33323
  19299860.633   -21182471.450 5 -16341336.71021
  16843364.141   -27913405.921 7 -21291536.43522
  16225317.4534  -36748497.18047 -25856222.13062
 92  5 27 22 51 59.9840000  0  4G12G 2G24G13
  16635262.070   -29940689.479 7 -23225432.61623
  19306739.4304  -21146332.23145 -16313176.46261
  16820176.766   -28035257.402 7 -21386485.54122
  16226526.9534  -36742140.58347 -25851268.95662
 92  5 27 22 52 29.9840000  0  4G12G 2G24G13
  16616849.063   -30037451.104 7 -23300831.25823
  19313659.3284  -21109949.25145 -16284826.28961
  16797067.375   -28156697.105 7 -21481113.76922
  16227791.1954  -36735500.47047 -25846094.85662
 92  5 27 22 52 59.9840000  0  4G12G 2G24G13
  16598529.8204  -30133719.21447 -23375845.34763
  19320627.180   -21073342.068 5 -16256301.38121
  16774032.633   -28277743.765 7 -21575435.74023
  16229106.3594  -36728586.43447 -25840707.31162
 92  5 27 22 53 29.9840000  0  4G12G 2G24G13
  16580305.9534  -30229485.89547 -23450468.71363
  19327637.188   -21036516.248 5 -16227606.11721
  16751074.016   -28398394.378 7 -21669449.10222
  16230474.1564  -36721396.28547 -25835104.61962
 92  5 27 22 53 59.9840000  0  4G12G 2G24G13
  16562176.672   -30324755.116 7 -23524704.44523
  19334684.149   -20999482.493 5 -16198748.80921
  16728193.547   -28518629.598 7 -21763138.78223
  16231893.5554  -36713938.63747 -25829293.48262
 92  5 27 22 54 29.9840000  0  4G12G 2G24G13
  16544142.719   -30419521.822 7 -23598548.60823
  19341770.8134  -20962232.59645 -16169723.09261
  16705397.172   -28638428.617 7 -21856488.56922
  16233363.6804  -36706212.29747 -25823272.97962
 92  5 27 22 54 59.9840000  0  4G12G 2G24G13
  16526205.3134  -30513784.92747 -23672000.35663
  19348906.047   -20924752.691 5 -16140518.15021
  16682687.906   -28757767.082 7 -21949479.47823
  16234884.9534  -36698220.88647 -25817045.92362
 92  5 27 22 55 29.9840000  0  4G12G 2G24G13
  16508361.578   -30607555.229 7 -23745068.10123
  19356074.516   -20887066.436 5 -16111152.41921
  16660065.844   -28876642.277 7 -22042109.40022
  16236452.8444  -36689979.75747 -25810624.27462
 92  5 27 22 55 59.9840000  0  4G12G 2G24G13
  16490612.274   -30700826.803 7 -23817747.22523
  19363285.219   -20849181.303 5 -16081631.71121
  16637532.266   -28995055.939 7 -22134379.68323
  16238068.5084  -36681487.53247 -25804006.96662
 92  5 27 22 56 29.9840000  0  4G12G 2G24G13
  16472956.5164  -30793610.69547 -23890046.33863
  19370524.2504  -20811125.85544 -16051978.31861
  16615080.516   -29113040.737 7 -22226315.79323
  16239729.8834  -36672760.23447 -25797206.48462
 92  5 27 22 56 59.9840000  0  4G12G 2G24G13
  16455398.7274  -30885877.93647 -23961942.86363
  19377801.7894  -20772889.80744 -16022184.16561
  16592712.469   -29230581.709 7 -22317906.06623
  16241439.7424  -36663773.83647 -25790204.10462
 92  5 27 22 57 29.9840000  0  4G12G 2G24G13
  16437939.430   -30977626.784 7 -24033435.44523
  19385111.930   -20734480.951 4 -15992255.37821
  16570426.508   -29347698.370 7 -22409165.70623
  16243198.7894  -36654530.18947 -25783001.26462
 92  5 27 22 57 59.9840000  0  4G12G 2G24G13
  16420579.625   -31068851.722 7 -24104519.78423
  19392457.1334  -20695872.23544 -15962170.86061
  16548218.727   -29464400.300 7 -22500102.17923
  16245006.9064  -36645029.04248 -25775597.78062
 92  5 27 22 58 29.9840000  0  4G12G 2G24G13
  16403322.633   -31159536.819 7 -24175183.46623
  19399848.7114  -20657045.42544 -15931916.38261
  16526094.477   -29580661.729 7 -22590695.40523
  16246865.7034  -36635258.57147 -25767984.43662
 92  5 27 22 58 59.9840000  0  4G12G 2G24G13
  16386169.102   -31249683.149 7 -24245427.33123
  19407280.672   -20617983.826 4 -15901479.01221
  16504056.047   -29696477.211 7 -22680941.13723
  16248774.9774  -36625224.35747 -25760165.58262
 92  5 27 22 59 29.9840000  0  4G12G 2G24G13
  16369116.3204  -31339294.94847 -24315254.68163
  19414759.031   -20578689.968 4 -15870860.61121
  16482102.422   -29811844.627 7 -22770837.72723
  16250734.0394  -36614935.00947 -25752147.92362
 92  5 27 22 59 59.9840000  0  4G12G 2G24G13
  16352166.719   -31428365.608 7 -24384660.36423
  19422279.164   -20539167.700 4 -15840064.21521
  16460236.750   -29926747.548 7 -22860372.37823
  16252741.0704  -36604388.67348 -25743930.00662
 92  5 27 23  0 29.9830000  0  4G12G 2G24G13
  16335320.737   -31516891.342 7 -24453641.42723
  19429842.6514  -20499425.84444 -15809096.71461
  16438463.667   -30041163.208 7 -22949527.34723
  16254795.8164  -36593588.96948 -25735514.66762
 92  5 27 23  0 59.9830000  0  4G12G 2G24G13
  16318577.964   -31604874.699 7 -24522199.86223
  19437447.5504  -20459449.77044 -15777946.72861
  16416784.987   -30155087.538 7 -23038299.45723
  16256899.4414  -36582535.84047 -25726901.85662
 92  5 27 23  1 29.9830000  0  4G12G 2G24G13
  16301937.6284  -31692317.63547 -24590337.19263
  19445098.0734  -20419258.41644 -15746628.98161
  16395199.362   -30268522.017 7 -23126689.86723
  16259049.0734  -36571239.30848 -25718099.37962
 92  5 27 23  1 59.9830000  0  4G12G 2G24G13
  16285401.3784  -31779217.62547 -24658051.45263
  19452787.448   -20378843.372 4 -15715136.93621
  16373705.894   -30381469.953 7 -23214701.15223
  16261243.9874  -36559701.92447 -25709109.22662
 92  5 27 23  2 29.9830000  0  4G12G 2G24G13
  16268971.2374  -31865559.25947 -24725330.62863
  19460523.2224  -20338191.43244 -15683460.28861
  16352307.073   -30493918.872 7 -23302323.59223
  16263487.9724  -36547912.01447 -25699922.29762
 92  5 27 23  2 59.9830000  0  4G12G 2G24G13
  16252648.4014  -31951335.26147 -24792169.05563
  19468304.8704  -20297311.85144 -15651606.27761
  16331001.066   -30605881.424 7 -23389567.04723
  16265780.5034  -36535866.31947 -25690536.05862
 92  5 27 23  3 29.9830000  0  4G12G 2G24G13
  16236434.1124  -32036541.02147 -24858563.13863
  19476124.4724  -20256214.35044 -15619582.45361
  16309785.370   -30717372.376 7 -23476443.02323
  16268119.8164  -36523564.92647 -25680950.57762
 92  5 27 23  3 59.9830000  0  4G12G 2G24G13
  16220331.0264  -32121165.72847 -24924504.45363
  19483985.8164  -20214900.46144 -15587390.01561
  16288661.956   -30828374.641 7 -23562938.20223
  16270511.2144  -36511001.15047 -25671160.64462
 92  5 27 23  4 29.9830000  0  4G12G 2G24G13
  16204337.9414  -32205206.73147 -24989990.93763
  19491887.8624  -20173369.45944 -15555028.38561
  16267632.878   -30938882.908 7 -23649048.44923
  16272951.3474  -36498176.33647 -25661167.30262
 92  5 27 23  4 59.9830000  0  4G12G 2G24G13
  16188458.3624  -32288653.00747 -25055013.99463
  19499838.3704  -20131602.30344 -15522482.76761
  16246701.737   -31048878.797 7 -23734759.44223
  16275443.276   -36485084.327 7 -25650965.76022
 92  5 27 23  5 29.9830000  0  4G12G 2G24G13
  16172694.6054  -32371494.05847 -25119565.44663
  19507835.323   -20089585.689 4 -15489742.75121
  16225869.823   -31158348.038 7 -23820060.06523
  16277986.737   -36471718.130 7 -25640550.55922
 92  5 27 23  5 59.9830000  0  4G12G 2G24G13
  16157043.5194  -32453740.93747 -25183653.90363
  19515876.753   -20047322.680 4 -15456810.74021
  16205136.9874  -31267297.77747 -23904955.88563
  16280579.3084  -36458093.19347 -25629933.74762
 92  5 27 23  6 29.9830000  0  4G12G 2G24G13
  16141505.9644  -32535387.40447 -25247274.50963
  19523969.394   -20004796.018 4 -15423673.29021
  16184504.003   -31375727.472 7 -23989446.46923
  16283221.636   -36444207.367 7 -25619113.64522
 92  5 27 23  6 59.9830000  0  4G12G 2G24G13
  16126085.7144  -32616424.91747 -25310420.60163
  19532108.198   -19962018.640 3 -15390340.47921
  16163968.3704  -31483640.25247 -24073534.26963
  16285914.441   -36430056.496 7 -25608087.02222
 92  5 27 23  7 29.9830000  0  4G12G 2G24G13
  16110780.151   -32696855.847 7 -25373094.03323
  19540295.956   -19918994.846 3 -15356815.63921
  16143529.4414  -31591048.21947 -24157228.70863
  16288656.972   -36415646.350 7 -25596858.36922
 92  5 27 23  7 59.9830000  0  4G12G 2G24G13
  16095591.222   -32776672.943 7 -25435289.14723
  19548534.425   -19875714.054 3 -15323090.56021
  16123188.5894  -31697937.21047 -24240518.74863
  16291448.378   -36400974.363 7 -25585425.68522
 92  5 27 23  8 29.9830000  0  4G12G 2G24G13
  16080521.667   -32855863.492 7 -25496996.04123
  19556819.9724  -19832172.12543 -15289161.97161
  16102949.6754  -31804296.05547 -24323395.69463
  16294292.355   -36386031.896 7 -25573782.23322
 92  5 27 23  8 59.9830000  0  4G12G 2G24G13
  16065572.394   -32934424.614 7 -25558212.47523
  19565154.503   -19788365.033 3 -15255026.80321
  16082813.066   -31910116.290 7 -24405852.94023
  16297186.472   -36370820.049 7 -25561928.87421
 92  5 27 23  9 29.9830000  0  4G12G 2G24G13
  16050742.206   -33012356.414 7 -25618938.53123
  19573543.4804  -19744282.63543 -15220677.16361
  16062781.839   -32015379.370 7 -24487876.03523
  16300132.394   -36355342.540 7 -25549868.51121
 92  5 27 23  9 59.9830000  0  4G12G 2G24G13
  16036034.683   -33089644.303 7 -25679162.83223
  19581985.8944  -19699917.90843 -15186107.43461
  16042859.1054  -32120069.41747 -24569452.61463
  16303129.8394  -36339588.95247 -25537593.01261
 92  5 27 23 10 29.9830000  0  4G12G 2G24G13
  16021448.753   -33166294.242 7 -25738890.03623
  19590481.761   -19655283.654 3 -15151327.75821
  16023046.9804  -32224192.71347 -24650587.57263
  16306177.120   -36323569.180 7 -25525110.10222
 92  5 27 23 10 59.9830000  0  4G12G 2G24G13
  16006984.8394  -33242302.18447 -25798116.97963
  19599022.573   -19610389.735 3 -15116345.72221
  16003340.9484  -32327738.55747 -24731272.56963
  16309277.081   -36307282.846 7 -25512419.47522
 92  5 27 23 11 29.9830000  0  4G12G 2G24G13
  15992642.7224  -33317670.57747 -25856845.57963
  19607614.456   -19565245.747 3 -15081168.84621
  15983744.784   -32430718.518 7 -24811516.61623
  16312426.0664  -36290736.51847 -25499526.25562
 92  5 27 23 11 59.9830000  0  4G12G 2G24G13
  15978422.6834  -33392393.63547 -25915071.31963
  19616251.8864         -0.54453
  15964254.339   -32533136.000 7 -24891322.36623
  16315625.0974  -36273928.29647 -25486428.96162
 92  5 27 23 12 29.9830000  0  4G12G 2G24G13
  15964325.9174  -33466473.12547 -25972795.58063
  19624941.1444      45644.98343        -0.00871
  15944873.4874  -32634987.49147 -24970687.08763
  16318872.7144  -36256863.78547 -25473131.95862
 92  5 27 23 12 59.9830000  0  4G12G 2G24G13
  15950349.5974  -33539922.25247 -26030028.65563
  19633672.659       91528.145 3     35752.82921
  15925597.2694  -32736285.13847 -25049620.24463
  16322165.1054  -36239559.77647 -25459648.34362
 92  5 27 23 13 29.9830000  0  4G12G 2G24G13
  15936493.0114  -33612735.68247 -26086766.38063
  19642454.019      137669.281 3
  15906425.0894  -32837032.22347 -25128124.39063
  16325503.6204  -36222014.74347 -25445976.90561
 92  5 27 23 13 59.9830000  0  4G12G 2G24G13
  15922757.8394  -33684913.61647 -26143008.91663
  19651279.659      184055.995 3
  15887359.3004  -32937226.10347 -25206197.46763
  16328887.0114  -36204232.60247 -25432120.70661
 92  5 27 23 14 29.9830000  0  4G12G 2G24G13
  15909143.5034  -33756460.14647 -26198759.44263
  19660153.339      230685.917 3        -0.46131
  15868396.8004  -33036872.82847 -25283844.19063
  16332314.6834  -36186220.97847 -25418085.69162
 92  5 27 23 14 59.9830000  0  4G12G 2G24G13
  15895647.6914  -33827377.74947 -26254019.90063
  19669069.5814     277545.21843     36512.98561
  15849535.0264  -33135992.76647 -25361080.42963
  16335785.7694  -36167985.80247 -25403876.47461
 92  5 27 23 15 29.9830000  0  4G12G 2G24G13
  15882272.8394  -33897662.49847 -26308787.22163
  19678029.0194     324623.24643     73196.87061
  15830771.9484  -33234591.86847 -25437910.82263
  16339297.6444  -36149527.50647 -25389493.40361
 92  5 27 23 15 59.9830000  0  4G12G 2G24G13
  15869015.6674  -33967330.75147 -26363074.15663
  19687025.073      371898.186 3    110034.18121
  15812107.1834  -33332681.13847 -25514343.95063
  16342848.6514  -36130866.33047 -25374952.24361
 92  5 27 23 16 29.9830000  0  4G12G 2G24G13
  15855878.5344  -34036369.75347 -26416870.76363
  19696062.269      419390.016 3    147040.55921
  15793539.6204  -33430248.34147 -25590370.27063
  16346439.9334  -36111992.90947 -25360245.69561
 92  5 27 23 16 59.9830000  0  4G12G 2G24G13
  15842858.5504  -34104786.44447 -26470182.45063
  19705139.2924     467089.69643    184208.81561
  15775074.1364  -33527287.56647 -25665985.17763
  16350070.3784  -36092917.05447 -25345381.40861
 92  5 27 23 17 29.9830000  0  4G12G 2G24G13
  15829958.792   -34172577.058 7 -26523006.28523
  19714259.433      515022.593 3    221558.81921
  15756712.3314  -33623776.96647 -25741171.65563
  16353738.4484  -36073639.00547 -25330359.56761
 92  5 27 23 17 59.9820000  0  4G12G 2G24G13
  15817176.1704  -34239750.59247 -26575349.27763
  19723428.600      563194.005 3    259094.67321
  15738456.7334  -33719712.23247 -25815926.33563
  16357442.5844  -36054173.88947 -25315191.96061
 92  5 27 23 18 29.9820000  0  4G12G 2G24G13
  15804510.2874  -34306309.07047 -26627213.00663
  19732639.0144     611603.28443    296815.78661
  15720307.3734  -33815090.27447 -25890246.82063
  16361182.4204  -36034521.37847 -25299878.33561
 92  5 27 23 18 59.9820000  0  4G12G 2G24G13
  15791959.6084  -34372265.08347 -26678607.28463
  19741893.7644     660223.11243    334701.04561
  15702259.9284  -33909924.10047 -25964143.24063
  16364954.2254  -36014700.60147 -25284433.59161
 92  5 27 23 19 29.9820000  0  4G12G 2G24G13
  15779523.4514  -34437615.87147 -26729529.96163
  19751180.490      709039.606 3    372739.57321
  15684317.1314  -34004214.41247 -26037616.14063
  16368758.6154  -35994712.31947 -25268858.32361
 92  5 27 23 19 59.9820000  0  4G12G 2G24G13
  15767202.5764  -34502364.18147 -26779983.17163
  19760503.928      758021.917 3    410907.27221
  15666477.7564  -34097963.57547 -26110667.36763
  16372592.9514  -35974562.36947 -25253157.07961
 92  5 27 23 20 29.9820000  0  4G12G 2G24G13
  15754996.0294  -34566508.31547 -26829965.60463
  19769846.5534     807143.85743    449183.75361
  15648740.7254  -34191174.43047 -26183299.12963
  16376457.4364  -35954252.64547 -25237331.34261
 92  5 27 23 20 59.9820000  0  5G12G 2G24G20G13
  15742904.2254  -34630051.46647 -26879479.74163
  19779225.889      856397.954 3    487563.17021
  15631102.2644  -34283861.59847 -26255522.82563
  19936255.8344         -0.30353
  16380351.4204  -35933789.55747 -25221386.08961
 92  5 27 23 21 29.9820000  0  5G12G 2G24G20G13
  15730925.9514  -34692996.83947 -26928528.07963
  19788622.8894     905791.35142    526051.14561
  15613563.0454  -34376032.77347 -26327344.45363
  19909577.1084    -140210.02742        -0.05671
  16384273.5614  -35913179.39947 -25205326.24261
 92  5 27 23 21 59.9820000  0  5G12G 2G24G20G13
  15719061.7644  -34755343.86447 -26977110.16863
  19798051.9044     955332.24742    564654.02661
  15596117.1154  -34467709.18747 -26398780.55163
  19882885.498     -280470.371 3   -109293.76521
  16388222.6864  -35892424.49047 -25189153.59961
 92  5 27 23 22 29.9820000  0  5G12G 2G24G20G13
  15707311.4674  -34817093.07447 -27025226.43063
  19807511.2404    1005035.23542    603383.19661
  15578764.6314  -34558895.93747 -26469835.09263
  19856185.623     -420781.862 3   -218627.34521
  16392198.670   -35871529.238 7 -25172871.60021
 92  5 27 23 22 59.9820000  0  5G12G 2G24G20G13
  15695675.4284  -34878238.92147 -27072872.53763
  19817003.5294    1054925.62442    642258.39661
  15561506.3734  -34649589.04547 -26540504.98163
  19829476.725     -561139.345 3   -327996.75621
  16396202.3424  -35850491.08947 -25156478.24861
 92  5 27 23 23 29.9820000  0  4G12G24G20G13
  15684152.6084  -34938792.97747 -27120057.51663
  15544341.3424  -34739792.34147 -26610793.19563
  19802755.943     -701554.393 3   -437411.01721
  16400229.7404  -35829324.53247 -25139984.84761
 92  5 27 23 23 59.9820000  0  4G12G24G20G13
  15672742.8344  -34998747.06447 -27166774.98263
  15527274.3184  -34829483.38747 -26680682.25863
  19776028.303     -842018.997 3   -546863.90121
  16404283.0614  -35808024.94447 -25123387.77961
 92  5 27 23 24 29.9820000  0  4G12G24G20G13
  15661451.4204  -35058086.75547 -27213013.69863
  15510308.3184  -34918633.68647 -26750149.96263
  19749291.420     -982518.835 3   -656344.24221
  16408363.936   -35786581.008 7 -25106678.24521
 92  5 27 23 24 59.9820000  0  4G12G24G20G13
  15650275.2334  -35116815.42247 -27258776.29263
  15493443.1544  -35007263.36147 -26819211.98563
  19722549.2954   -1123057.38543   -765854.74361
  16412471.147   -35764998.853 7 -25089861.00621
 92  5 27 23 25 29.9820000  0  4G12G24G20G13
  15639216.8034  -35174931.27647 -27304061.37163
  15476674.5224  -35095381.17747 -26887875.15963
  19695796.2564   -1263632.32143   -875393.55961
  16416604.459   -35743279.078 7 -25072936.53121
 92  5 27 23 25 59.9820000  0  4G12G24G20G13
  15628274.3424  -35232433.53247 -27348868.31663
  15460004.5144  -35182985.35147 -26956138.09663
  19669042.928    -1404242.978 3   -984960.27321
  16420763.139   -35721424.054 7 -25055906.67521
 92  5 27 23 26 29.9820000  0  4G12G24G20G13
  15617450.9904  -35289309.46647 -27393187.21763
  15443432.4674  -35270067.54247 -27023994.29163
  19642278.0294   -1544876.86243  -1094545.02961
  16424949.248   -35699424.471 7 -25038764.17921
 92  5 27 23 26 59.9820000  0  4G12G24G20G13
  15606746.7254  -35345562.33247 -27437020.60963
  15426961.6864  -35356625.11447 -27091441.68963
  19615509.678    -1685536.875 3  -1204150.15321
  16429162.068   -35677286.429 7 -25021513.79321
 92  5 27 23 27 29.9820000  0  4G12G24G20G13
  15596161.9674  -35401184.00947 -27480362.16663
  15410597.4364  -35442618.32447 -27158449.33063
  19588741.029    -1826214.635 3  -1313769.10521
  16433402.451   -35655004.425 7 -25004151.23321
 92  5 27 23 27 59.9820000  0  4G12G24G20G13
  15585696.1474  -35456184.30147 -27523219.52563
  15394339.5224  -35528047.74247 -27225017.65463
  19561964.803    -1966920.122 3  -1423409.63621
  16437667.748   -35632591.382 7 -24986686.56321
 92  5 27 23 28 29.9820000  0  4G12G24G20G13
  15575348.8654  -35510558.09747 -27565588.70863
  15378189.3814  -35612920.16047 -27291151.95163
  19535185.8344   -2107647.76243  -1533067.47761
  16441958.068   -35610044.640 7 -24969117.71521
 92  5 27 23 28 59.9820000  0  4G12G24G20G13
  15565124.7874  -35564287.73647 -27607455.95463
  15362147.584   -35697219.268 7 -27356839.51523
  19508404.7254   -2248379.57243  -1642728.50761
  16446276.678   -35587349.187 7 -24951432.98021
 92  5 27 23 29 29.9820000  0  4G12G24G20G13
  15555019.4594  -35617388.62947 -27648833.26363
  15346210.795   -35780969.699 7 -27422099.54423
  19481622.475    -2389130.513 3  -1752404.47721
  16450620.420   -35564524.046 7 -24933647.18721
 92  5 27 23 29 59.9820000  0  4G12G24G20G13
  15545033.1704  -35669865.37247 -27689724.22363
  15330373.850   -35864193.320 7 -27486949.06923
  19454831.3184   -2529904.80443  -1862098.63261
  16454987.225   -35541575.721 7 -24915765.40621
 92  5 27 23 30 29.9820000  0  4G12G24G20G13
  15535168.2014  -35721708.11747 -27730121.16163
  15314638.8814  -35946881.34747 -27551381.24763
  19428042.7484   -2670692.67343  -1971803.36861
  16459378.756   -35518497.290 7 -24897782.24021
 92  5 27 23 30 59.9820000  0  4G12G24G20G13
  15525424.1704  -35772914.61647 -27770022.31563
  15299005.834   -36029029.173 7 -27615392.48923
  19401247.443    -2811491.579 3  -2081516.76021
  16463795.201   -35495288.817 7 -24879697.74621
 92  5 27 23 31 29.9820000  0  4G12G24G20G13
  15515800.7644  -35823486.66047 -27809429.09363
  15283475.5064  -36110643.87147 -27678988.30463
  19374455.6474   -2952302.44743  -2191239.39261
  16468235.350   -35471954.532 7 -24861515.20821
 92  5 27 23 31 59.9820000  0  4G12G24G20G13
  15506297.4594  -35873425.23047 -27848342.26063
  15268047.061   -36191721.368 7 -27742165.52323
  19347652.6474   -3093125.94743  -2300971.91261
  16472698.803   -35448498.366 7 -24843237.70021
 92  5 27 23 32 29.9820000  0  4G12G24G20G13
  15496914.8424  -35922728.96747 -27886760.74863
  15252721.967   -36272258.030 7 -27804921.31523
  19320854.9514   -3233959.53243  -2410712.27561
  16477186.303   -35424921.342 7 -24824866.01921
 92  5 27 23 32 59.9820000  0  4G12G24G20G13
  15487654.4124  -35971395.92147 -27924683.04363
  15237500.670   -36352242.838 7 -27867247.08723
  19294055.342    -3374801.097 3  -2520458.85121
  16481695.811   -35401223.990 7 -24806400.56921
 92  5 27 23 33 29.9820000  0  4G12G24G20G13
  15478514.2254  -36019426.37847 -27962109.36763
  15222387.4754  -36431664.84347 -27929134.31363
  19267251.615    -3515650.701 3  -2630211.68921
  16486227.3734  -35377408.24647 -24787842.87261
 92  5 27 23 33 59.9820000  0  5G12G16G24G20G13
  15469493.2094  -36066829.91447 -27999047.18063
  19860283.3344         -0.29153
  15207380.108   -36510529.778 7 -27990587.46023
  19240444.506    -3656517.259 3  -2739977.73021
  16490779.2484  -35353487.03347 -24769202.98761
 92  5 27 23 34 29.9820000  0  5G12G16G24G20G13
  15460592.6704  -36113604.46547 -28035494.87763
  19835724.9984    -129052.15043
  15192477.5454  -36588842.39747 -28051610.22663
  19213636.4204   -3797397.67343  -2849754.58161
  16495352.350   -35329460.357 7 -24750480.92721
 92  5 27 23 34 59.9820000  0  5G12G16G24G20G13
  15451813.7954  -36159740.49347 -28071445.02163
  19811137.342     -258266.458 3
  15177680.326   -36666602.102 7 -28112202.15723
  19186825.912    -3938281.758 3  -2959534.26721
  16499944.8114  -35305321.08247 -24731671.12661
 92  5 27 23 35 29.9820000  0  5G12G16G24G20G13
  15443156.6004  -36205234.39347 -28106894.80863
  19786514.8344    -387635.73742        -0.01471
  15162986.615   -36743820.536 7 -28172372.31823
  19160015.5294   -4079165.15643  -3069313.44361
  16504560.818   -35281067.985 7 -24712772.63721
 92  5 27 23 35 59.9810000  0  5G12G16G24G20G13
  15434620.3684  -36250092.80047 -28141849.40863
  19761874.009     -517146.824 3   -100917.24421
  15148392.923   -36820504.737 7 -28232126.19323
  19133206.6964   -4220050.60543  -3179094.18961
  16509194.790   -35256712.007 7 -24693793.98321
 92  5 27 23 36 29.9810000  0  5G12G16G24G20G13
  15426203.9784  -36294317.56347 -28176310.26063
  19737200.7434    -646789.12443   -201936.73761
  15133901.353   -36896661.309 7 -28291468.93023
  19106396.0564   -4360945.67444  -3288882.43161
  16513849.470   -35232252.719 7 -24674734.83321
 92  5 27 23 36 59.9810000  0  5G12G16G24G20G13
  15417907.6264  -36337917.19547 -28210283.99563
  19712503.2044    -776577.66143   -303070.13261
  15119511.470   -36972281.593 7 -28350393.77723
  19079582.7754   -4501854.91044  -3398681.75361
  16518521.064   -35207702.857 7 -24655605.10221
 92  5 27 23 37 29.9810000  0  5G12G16G24G20G13
  15409733.9314  -36380872.81247 -28243755.90363
  19687779.798     -906490.401 3   -404300.35121
  15105229.470   -37047335.064 7 -28408876.95623
  19052767.8144   -4642758.17844  -3508476.39661
  16523212.9934  -35183046.05147 -24636392.03661
 92  5 27 23 37 59.9810000  0  5G12G16G24G20G13
  15401679.3764  -36423193.89047 -28276733.35863
  19663033.8604   -1036531.61943   -505630.65961
  15091053.290   -37121828.360 7 -28466923.63423
  19025956.6184   -4783664.15644  -3618273.16761
  16527923.954   -35158293.454 7 -24617104.32921
 92  5 27 23 38 29.9810000  0  5G12G16G24G20G13
  15393747.8764  -36464878.65447 -28309214.99663
  19638262.9544   -1166700.07143   -607060.12761
  15076982.798   -37195767.951 7 -28524538.85723
  18999140.720    -4924570.268 4  -3728070.01321
  16532652.345   -35133445.583 7 -24597742.37921
 92  5 27 23 38 59.9810000  0  5G12G16G24G20G13
  15385936.1504  -36505931.01247 -28341203.84763
  19613470.392    -1296993.783 3   -708587.21121
  15063017.548   -37269153.333 7 -28581722.22423
  18972327.650    -5065479.277 4  -3837869.15121
  16537397.993   -35108508.213 7 -24578310.68521
 92  5 27 23 39 29.9810000  0  5G12G16G24G20G13
  15378245.3144  -36546345.58347 -28372695.71963
  19588654.282    -1427399.017 3   -810201.18921
  15049157.267   -37341991.088 7 -28638478.87323
  18945515.220    -5206384.790 4  -3947665.50721
  16542160.7044  -35083478.20447 -24558806.79761
 92  5 27 23 39 59.9810000  0  5G12G16G24G20G13
  15370674.0014  -36586130.09247 -28403696.63663
  19563814.7124   -1557930.36143   -911913.43061
  15035401.353   -37414282.624 7 -28694809.89823
  18918698.618    -5347293.533 4  -4057464.41521
  16546939.0404  -35058365.32847 -24539238.34861
 92  5 27 23 40 29.9810000  0  5G12G16G24G20G13
  15363224.9854  -36625278.06347 -28434201.55163
  19538952.017    -1688588.111 3  -1013724.18121
  15021751.353   -37486015.529 7 -28750705.61923
  18891887.6894   -5488197.61944  -4167259.66961
  16551734.743   -35033164.369 7 -24519601.26121
 92  5 27 23 40 59.9810000  0  5G12G16G24G20G13
  15355891.6264  -36663809.81247 -28464226.29263
  19514059.235    -1819406.269 3  -1115659.98121
  15008203.634   -37557204.645 7 -28806177.61523
  18865070.4464   -5629116.28244  -4277066.28861
  16556543.3844  -35007897.94847 -24499913.17061
 92  5 27 23 41 29.9810000  0  5G12G16G24G20G13
  15348676.6424  -36701726.42747 -28493771.70663
  19489128.071    -1950403.602 3  -1217735.38921
  14994758.439   -37627858.347 7 -28861232.40023
  18838251.9234   -5770049.53744  -4386884.26261
  16561363.8374  -34982568.56347 -24480176.00161
 92  5 27 23 41 59.9810000  0  5G12G16G24G20G13
  15341582.4464  -36739011.26047 -28522824.82763
  19464171.5874   -2081549.85043  -1319926.83461
  14981417.548   -37697965.430 7 -28915861.25123
  18811434.8294   -5910979.78444  -4496699.90461
  16566198.1184  -34957161.98447 -24460378.68761
 92  5 27 23 42 29.9810000  0  5G12G16G24G20G13
  15334601.7204  -36775686.94347 -28551403.28463
  19439183.220    -2212853.099 3  -1422240.57121
  14968173.384   -37767567.717 7 -28970096.75923
  18784613.001    -6051927.802 4  -4606529.40621
  16571042.8214  -34931701.41247 -24440539.29161
 92  5 27 23 42 59.9810000  0  5G12G16G24G20G13
  15327741.1104  -36811744.86747 -28579500.37163
  19414174.2824   -2344290.84843  -1524659.11961
  14955025.368   -37836659.592 7 -29023934.54323
  18757788.7124   -6192884.07044  -4716365.32161
  16575899.642   -34906180.785 7 -24420653.11521
 92  5 27 23 43 29.9810000  0  5G12G16G24G20G13
  15320993.7674  -36847200.76147 -28607128.34863
  19389137.993    -2475854.818 3  -1627175.95421
  14941972.485   -37905251.958 7 -29077383.09623
  18730961.267    -6333862.776 4  -4826218.72421
  16580763.400   -34880617.543 7 -24400733.73221
 92  5 27 23 43 59.9810000  0  5G12G16G24G20G13
  15314364.9464  -36882036.66847 -28634273.22063
  19364083.1034   -2607515.34943  -1729768.06461
  14929019.665   -37973317.557 7 -29130421.18723
  18704134.157    -6474844.736 4  -4936074.67821
  16585640.3144  -34854995.54747 -24380768.57361
 92  5 27 23 44 29.9810000  0  5G12G16G24G20G13
  15307854.4394  -36916250.48947 -28660933.35063
  19339006.696    -2739281.190 3  -1832442.16621
  14916170.939   -38040839.790 7 -29183035.86723
  18677305.4314   -6615826.45745  -5045930.43561
  16590526.267   -34829313.640 7 -24360756.73021
 92  5 27 23 44 59.9810000  0  5G12G16G24G20G13
  15301462.2824  -36949839.79247 -28687106.83963
  19313911.110    -2871157.289 3  -1935202.20221
  14903428.228   -38107802.847 7 -29235214.82923
  18650478.7754   -6756803.76144  -5155782.75461
  16595425.618   -34803571.158 7 -24340697.69121
 92  5 27 23 45 29.9810000  0  5G12G16G24G20G13
  15295188.0714  -36982813.35147 -28712800.53263
  19288793.3144   -3003157.09643  -2038058.65461
  14890789.845   -38174217.061 7 -29286966.12123
  18623650.126    -6897784.125 4  -5265637.44721
  16600334.2124  -34777778.41347 -24320599.49161
 92  5 27 23 45 59.9810000  0  5G12G16G24G20G13
  15289031.9074  -37015165.22147 -28738009.79163
  19263651.6034   -3135274.72143  -2141006.87761
  14878255.353   -38240086.317 7 -29338292.77123
  18596823.7824   -7038760.29144  -5375488.88961
  16605251.4464  -34751930.85447 -24300458.58361
 92  5 27 23 46 29.9810000  0  5G12G16G24G20G13
  15282992.7904  -37046903.67047 -28762741.05663
  19238490.1894   -3267502.87843  -2244041.22461
  14865819.868   -38305433.534 7 -29389212.63723
  18569997.7284   -7179738.69345  -5485342.07361
  16610179.032   -34726038.261 7 -24280282.57721
 92  5 27 23 46 59.9810000  0  5G12G16G24G20G13
  15277070.5644  -37078020.65347 -28786988.06363
  19213307.689    -3399825.865 3  -2347149.44221
  14853483.704   -38370262.078 7 -29439728.34223
  18543171.790    -7320709.574 5  -5595189.37621
  16615116.571   -34700093.800 7 -24260066.16521
 92  5 27 23 47 29.9810000  0  5G12G16G24G20G13
  15271266.6814  -37108519.23947 -28810753.20663
  19188111.8764   -3532237.70243  -2450326.87061
  14841244.267   -38434583.046 7 -29489848.53623
  18516344.4394   -7461674.33545  -5705031.92461
  16620062.892   -34674102.012 7 -24239812.86721
 92  5 27 23 47 59.9810000  0  5G12G16G24G20G13
  15265584.0874  -37138382.08147 -28834022.96263
  19162898.314    -3664720.094 3  -2553559.28321
  14829103.298   -38498382.026 7 -29539561.99223
  18489525.4704   -7602614.14345  -5814855.00961
  16625020.509   -34648047.244 7 -24219510.50221
 92  5 27 23 48 29.9810000  0  5G12G16G24G20G13
  15260022.5644  -37167612.03747 -28856799.56162
  19137673.267    -3797290.242 3  -2656860.06621
  14817064.251   -38561648.767 7 -29588860.71123
  18462709.345    -7743530.072 5  -5924659.49821
  16629989.4934  -34621933.04447 -24199161.83261
 92  5 27 23 48 59.9810000  0  5G12G16G24G20G13
  15254580.1964  -37196212.00447 -28879085.26063
  19112422.314    -3929966.122 3  -2760243.25121
  14805128.860   -38624366.724 7 -29637731.81323
  18435898.9394   -7884423.07045  -6034446.09861
  16634970.173   -34595763.483 7 -24178770.00521
 92  5 27 23 49 29.9810000  0  5G12G16G24G20G13
  15249255.5404  -37224191.31447 -28900887.32563
  19087154.532    -4062755.502 3  -2863714.87221
  14793297.743   -38686538.577 7 -29686177.38023
  18409090.673    -8025300.795 5  -6144220.80421
  16639958.845   -34569549.374 7 -24158343.48321
 92  5 27 23 49 59.9810000  0  5G12G16G24G20G13
  15244048.1184  -37251552.63847 -28922207.83863
  19061863.5324   -4195660.37543  -2967276.52261
  14781573.610   -38748152.969 7 -29734188.56223
  18382283.915    -8166164.276 5  -6253984.42121
  16644954.939   -34543294.484 7 -24137885.18021
 92  5 27 23 50 29.9810000  0  5G12G16G24G20G13
  15238960.1184  -37278290.14847 -28943042.26563
  19036554.056    -4328661.370 3  -3070913.08921
  14769957.790   -38809194.753 7 -29781753.55623
  18355482.759    -8307005.574 5  -6363730.73521
  16649959.1894  -34516994.13447 -24117391.45561
 92  5 27 23 50 59.9810000  0  5G12G16G24G20G13
  15233992.3214  -37304404.31547 -28963390.97163
  19011229.321    -4461742.744 3  -3174612.32121
  14758446.173   -38869681.878 7 -29828886.34923
  18328685.626    -8447822.992 5  -6473458.44421
  16654972.462   -34490649.673 7 -24096863.35221
 92  5 27 23 51 29.9810000  0  5G12G16G24G20G13
  15229138.1894  -37329905.69347 -28983262.17763
  18985890.1574   -4594905.24544  -3278374.76861
  14747037.923   -38929637.309 7 -29875604.83823
  18301890.5954   -8588625.31445  -6583174.39361
  16659992.548   -34464272.521 7 -24076309.77221
 92  5 27 23 51 59.9810000  0  5G12G16G24G20G13
  15224404.2904  -37354783.77847 -29002647.70463
  18960535.3764   -4728135.35744  -3382189.90161
  14735730.626   -38989055.787 7 -29921904.92123
  18275104.806    -8729400.254 5  -6692868.99921
  16665019.314   -34437853.409 7 -24055723.49621
 92  5 27 23 52 29.9810000  0  5G12G16G24G20G13
  15219786.8214  -37379047.85047 -29021554.78063
  18935166.790    -4861442.132 4  -3486064.78121
  14724522.173   -39047958.006 7 -29967802.72423
  18248318.946    -8870154.888 5  -6802547.80921
  16670053.9854  -34411402.49847 -24035112.43561
 92  5 27 23 52 59.9810000  0  5G12G16G24G20G13
  15215286.6734  -37402697.76747 -29039983.30363
  18909782.009    -4994835.894 4  -3590007.44921
  14713410.720   -39106346.500 7 -30013300.22323
  18221538.071    -9010886.868 5  -6912208.92721
  16675092.1504  -34384920.74747 -24014477.34561
 92  5 27 23 53 29.9810000  0  5G12G16G24G20G13
  15210901.6734  -37425737.71947 -29057936.52063
  18884379.7824   -5128325.15544  -3694024.52661
  14702399.821   -39164211.910 7 -30058390.12423
  18194760.610    -9151598.518 5  -7021854.23921
  16680137.243   -34358413.306 7 -23993822.23721
 92  5 27 23 53 59.9810000  0  5G12G16G24G20G13
  15206636.1424  -37448158.70347 -29075407.42663
  18858960.4704   -5261895.86744  -3798105.07961
  14691491.282   -39221536.964 7 -30103058.97123
  18167992.3454   -9292278.64345  -7131474.99361
  16685187.001   -34331871.748 7 -23973140.55221
 92  5 27 23 54 29.9800000  0  5G12G16G24G20G13
  15202486.2314  -37469964.51247 -29092398.97863
  18833526.957    -5395546.690 5  -3902248.04021
  14680684.856   -39278322.278 7 -30147307.23223
  18141227.2774   -9432924.52645  -7241069.05461
  16690243.2384  -34305302.24347 -23952437.08661
 92  5 27 23 54 59.9800000  0  5G12G16G24G20G13
  15198455.3324  -37491143.75947 -29108902.30363
  18808080.871    -5529268.388 5  -4006446.23821
  14669982.809   -39334566.130 7 -30191133.58423
  18114470.824    -9573530.973 5  -7350632.39821
  16695308.418   -34278690.682 7 -23931700.84721
 92  5 27 23 55 29.9800000  0  5G12G16G24G20G13
  15194544.5594  -37511695.59047 -29124916.73463
  18782626.699    -5663032.198 5  -4110677.21221
  14659383.067   -39390268.815 7 -30234538.25423
  18087723.793    -9714090.862 5  -7460159.45321
  16700380.184   -34252038.713 7 -23910933.12521
 92  5 27 23 55 59.9800000  0  5G12G16G24G20G13
  15190755.3174  -37531611.75047 -29140435.83563
  18757169.8094   -5796813.78945  -4214922.10061
  14648887.551   -39445421.429 8 -30277514.28523
  18060986.027    -9854593.262 5  -7569641.72621
  16705460.0514  -34225338.80547 -23890128.05061
 92  5 27 23 56 29.9800000  0  5G12G16G24G20G13
  15187085.0354  -37550899.04447 -29155464.91463
  18731707.817    -5930615.250 5  -4319182.43221
  14638494.074   -39500034.084 8 -30320069.57222
  18034260.1524   -9995042.51345  -7679082.59061
  16710549.246   -34198598.136 7 -23869291.21021
 92  5 27 23 56 59.9800000  0  5G12G16G24G20G13
  15183536.4104  -37569549.54647 -29169997.79063
  18706245.7774   -6064409.02445  -4423436.76361
  14628207.809   -39554089.778 8 -30362190.86923
  18007545.3794  -10135428.67545  -7788474.27961
  16715647.309   -34171809.794 7 -23848417.22021
 92  5 27 23 57 29.9800000  0  5G12G16G24G20G13
  15180107.949   -37587564.086 7 -29184035.11223
  18680787.1684   -6198193.52945  -4527683.90861
  14618030.1524  -39607576.50348 -30403868.81163
  17980843.5984  -10275750.13745  -7897815.58361
  16720753.035   -34144974.735 7 -23827506.83421
 92  5 27 23 57 59.9800000  0  5G12G16G24G20G13
  15176802.0434  -37604934.17447 -29197570.26963
  18655326.918    -6331980.645 5  -4631933.05421
  14607961.004   -39660491.879 8 -30445101.54723
  17954155.434   -10415996.003 5  -8007097.95421
  16725869.465   -34118085.367 7 -23806554.11721
 92  5 27 23 58 29.9800000  0  5G12G16G24G20G13
  15173616.2934  -37621673.42747 -29210613.86363
  18629863.3874   -6465799.43144  -4736206.87561
  14597994.465   -39712864.358 8 -30485911.24123
  17927479.0044  -10556177.34445  -8116330.05561
  16730994.809   -34091156.026 7 -23785570.24521
 92  5 27 23 58 59.9800000  0  5G12G16G24G20G13
  15170551.9574  -37637780.11847 -29223164.54863
  18604389.957    -6599657.085 4  -4840511.01021
  14588131.270   -39764698.095 8 -30526301.14023
  17900813.426   -10696289.809 5  -8225508.47121
  16736126.371   -34064185.109 7 -23764553.98821
 92  5 27 23 59 29.9800000  0  5G12G16G24G20G13
  15167609.7854  -37653245.64947 -29235215.63163
  18578904.7074   -6733573.85844  -4944861.19361
  14578370.317   -39815984.974 8 -30566264.92123
  17874169.051   -10836322.269 5  -8334624.56021
  16741269.027   -34037164.216 7 -23743498.77521
 92  5 27 23 59 59.9800000  0  5G12G16G24G20G13
  15164788.9574  -37668070.06447 -29246767.14863
  18553411.848    -6867555.571 4  -5049262.00321
  14568715.395   -39866724.522 8 -30605802.20623
  17847537.574   -10976272.223 5  -8443676.33721
  16746419.6684  -34010093.82246 -23722405.00061
 92  5 28  0  0 29.9800000  0  5G12G16G24G20G13
  15162088.7854  -37682253.16047 -29257818.93363
  18527905.1524   -7001590.55544  -5153704.31361
  14559166.317   -39916908.137 8 -30644906.29723
  17820923.1844  -11116136.76445  -8552661.57061
  16751581.121   -33982973.769 7 -23701272.52221
 92  5 28  0  0 59.9800000  0  5G12G16G24G20G13
  15159513.3324  -37695795.51647 -29268371.43563
  18502390.535    -7135662.884 4  -5258175.74121
  14549724.988   -39966517.294 8 -30683562.76323
  17794322.488   -11255913.571 5  -8661578.42921
  16756751.5594  -33955805.08247 -23680102.14761
 92  5 28  0  1 29.9800000  0  5G12G16G24G20G13
  15157060.7074  -37708679.50147 -29278410.92963
  18476876.2774   -7269739.10244  -5362650.21861
  14540399.551   -40015527.518 8 -30721752.52623
  17767746.293   -11395582.404 5  -8770411.15021
  16761933.0354  -33928570.48746 -23658880.42661
 92  5 28  0  1 59.9800000  0  5G12G16G24G20G13
  15154733.317   -37720917.375 7 -29287946.96423
  18451366.6524   -7403788.67045  -5467103.94461
  14531181.356   -40063968.823 8 -30759498.97423
  17741186.543   -11535152.881 5  -8879167.24221
  16767126.293   -33901282.675 6 -23637617.22721
 92  5 28  0  2 29.9800000  0  5G12G16G24G20G13
  15152528.9574  -37732491.14447 -29296965.50363
  18425870.059    -7537764.004 5  -5571499.85421
  14522076.1764  -40111815.05748 -30796781.73463
  17714647.988   -11674603.994 5  -8987830.30721
  16772332.3714  -33873923.15246 -23616298.14661
 92  5 28  0  2 59.9800000  0  5G12G16G24G20G13
  15150450.317   -37743417.411 7 -29305479.50523
  18400388.3564   -7671672.80645  -5675843.92961
  14513082.0044  -40159077.75148 -30833609.78663
  17688132.3484  -11813949.81345  -9096411.32661
  16777548.488   -33846509.192 6 -23594936.66021
 92  5 28  0  3 29.9800000  0  5G12G16G24G20G13
  15148496.168   -37753689.857 7 -29313484.03323
  18374921.9494   -7805501.90845  -5780125.91461
  14504198.1684  -40205762.47848 -30869987.48163
  17661637.6294  -11953180.95245  -9204902.98461
  16782778.106   -33819034.210 6 -23573527.62921
 92  5 28  0  3 59.9800000  0  5G12G16G24G20G13
  15146664.637   -37763308.552 7 -29320979.15123
  18349467.0744   -7939261.66345  -5884353.87161
  14495425.5274  -40251869.18548 -30905914.76763
  17635165.4814  -12092294.67145  -9313303.14861
  16788018.0904  -33791498.05246 -23552070.94561
 92  5 28  0  4 29.9800000  0  5G12G16G24G20G13
  15144957.348   -37772282.466 7 -29327971.84123
  18324023.481    -8072988.642 5  -5988556.29421
  14486761.8634  -40297395.27448 -30941389.62663
  17608713.9424  -12231297.01645  -9421616.52961
  16793266.613   -33763910.881 6 -23530574.49921
 92  5 28  0  4 59.9800000  0  5G12G16G24G20G13
  15143370.949   -37780624.106 7 -29334471.85023
  18298574.5434   -8206707.99645  -6092752.78361
  14478202.4814  -40342368.94348 -30976434.02763
  17582282.442   -12370197.446 5  -9529850.48421
  16798524.6764  -33736284.54846 -23509047.54661
 92  5 28  0  5 29.9800000  0  5G12G16G24G20G13
  15141905.785   -37788323.903 7 -29340471.72323
  18273130.2464   -8340414.71845  -6196939.46161
  14469750.942   -40386785.816 8 -31011044.55723
  17555872.6844  -12508983.50945  -9637995.33661
  16803790.2384  -33708609.00146 -23487482.24061
 92  5 28  0  5 59.9800000  0  5G12G16G24G20G13
  15140561.770   -37795382.636 7 -29345972.06723
  18247687.481    -8474110.010 5  -6301117.21321
  14461406.9964  -40430636.34448 -31045213.78363
  17529484.520   -12647652.941 5  -9746049.30921
  16809067.379   -33680884.698 6 -23465878.94721
 92  5 28  0  6 29.9800000  0  5G12G16G24G20G13
  15139341.449   -37801792.856 7 -29350967.07523
  18222256.4964   -8607760.17745  -6405259.83461
  14453174.1454  -40473898.71048 -31078924.69763
  17503119.7934  -12786194.87245  -9854003.92261
  16814354.817   -33653104.008 6 -23444231.69121
 92  5 28  0  6 59.9800000  0  5G12G16G24G20G13
  15138245.746   -37807552.176 7 -29355454.88923
  18196835.5274   -8741343.14345  -6509350.08361
  14445055.4424  -40516562.47848 -31112169.17463
  17476780.5824  -12924604.41045  -9961855.37061
  16819651.301   -33625264.823 6 -23422538.87621
 92  5 28  0  7 29.9800000  0  5G12G16G24G20G13
  15137271.356   -37812676.655 7 -29359448.01823
  18171424.512    -8874873.961 5  -6613399.72621
  14437047.6064  -40558645.03548 -31144960.75963
  17450466.1994  -13062893.70146 -10069613.13661
  16824956.754   -33597383.286 6 -23400813.05421
 92  5 28  0  7 59.9800000  0  5G12G16G24G20G13
  15136413.926   -37817179.487 7 -29362956.74823
  18146027.192    -9008351.150 5  -6717407.58221
  14429146.340   -40600167.279 8 -31177315.73523
  17424170.5594  -13201073.08846 -10177285.26361
  16830267.9654  -33569472.16446 -23379064.17961
 92  5 28  0  8 29.9800000  0  5G12G16G24G20G13
  15135676.410   -37821057.023 7 -29365978.23523
  18120636.0824   -9141768.80145  -6821369.05161
  14421348.3014  -40641143.49548 -31209245.23663
  17397897.723   -13339135.997 6 -10284866.63021
  16835587.754   -33541527.310 6 -23357289.01121
 92  5 28  0  8 59.9800000  0  5G12G16G24G20G13
  15135056.840   -37824319.794 7 -29368520.68423
  18095256.3954   -9275147.63945  -6925300.26961
  14413647.3244  -40681611.68148 -31240778.87063
  17371646.231   -13477089.581 6 -10392362.81521
  16840908.598   -33513558.803 6 -23335495.41221
 92  5 28  0  9 29.9800000  0  5G12G16G24G20G13
  15134552.379   -37826963.331 7 -29370580.61522
  18069881.270    -9408488.081 5  -7029201.59021
  14406042.6844  -40721575.55148 -31271919.53263
  17345416.9264  -13614925.77146 -10499767.52361
  16846236.1684  -33485561.95246 -23313679.71961
 92  5 28  0  9 59.9800000  0  5G12G16G24G20G13
  15134170.684   -37828974.984 7 -29372148.16223
  18044519.0204   -9541766.33445  -7133054.46061
  14398537.7384  -40761017.84848 -31302653.76863
  17319213.2234  -13752628.83046 -10607068.51861
  16851571.942   -33457523.544 6 -23291831.65721
 92  5 28  0 10 29.9800000  0  5G12G16G24G20G13
  15133904.035   -37830371.397 7 -29373236.30523
  18019164.3794   -9675004.95545  -7236876.43861
  14391129.7384  -40799941.97848 -31332984.24163
  17293032.504   -13890211.567 6 -10714275.74121
  16856911.3954  -33429459.43146 -23269963.56461
 92  5 28  0 10 59.9800000  0  5G12G16G24G20G13
  15133753.918   -37831153.241 7 -29373845.56723
  17993815.8564   -9808206.99645  -7340669.93461
  14383824.3404  -40838333.00348 -31362899.30763
  17266874.168   -14027671.577 6 -10821387.32421
  16862258.043   -33401370.720 6 -23248076.29521
 92  5 28  0 11 29.9800000  0  5G12G16G24G20G13
  15133723.629   -37831325.237 7
  17968476.863    -9941371.614 5  -7444434.27321
  14376621.3794  -40876184.19348 -31392393.72763
  17240738.496   -14165010.176 6 -10928404.32121
  16867606.910   -33373261.433 6 -23226172.99421
 92  5 28  0 11 59.9800000  0  5G12G16G24G20G13
  15133807.6684  -37830885.31647
  17943146.481   -10074482.480 5  -7548156.73221
  14369522.1064  -40913493.27348 -31421465.72163
  17214627.996   -14302221.749 6 -11035322.33021
  16872958.3174  -33345128.49146 -23204251.26161
 92  5 28  0 12 29.9800000  0  5G12G16G24G20G13
  15134007.262   -37829823.957 7 -29372809.85023
  17917827.199   -10207533.449 5  -7651832.51421
  14362528.7774  -40950239.12948 -31450098.83863
  17188544.879   -14439293.315 6 -11142131.24121
  16878320.371   -33316961.510 6 -23182303.00321
 92  5 28  0 12 59.9790000  0  5G12G16G24G20G13
  15134326.2344  -37828151.67447 -29371506.79863
  17892521.937   -10340510.974 5  -7755451.07921
  14355643.1714  -40986428.02748 -31478297.96263
  17162486.124   -14576227.641 6 -11248833.20421
  16883684.827   -33288771.335 6 -23160336.67521
 92  5 28  0 13 29.9790000  0  5G12G16G24G20G13
  15134761.109   -37825874.677 7 -29369732.55023
  17867230.101   -10473412.588 5  -7859010.50021
  14348860.6484  -41022064.70048 -31506066.78263
  17136452.093   -14713035.897 6 -11355436.93821
  16889052.179   -33260562.412 6 -23138355.72721
 92  5 28  0 13 59.9790000  0  5G12G16G24G20G13
  15135307.773   -37822990.989 7 -29367485.55122
  17841958.085   -10606232.323 5  -7962506.12121
  14342188.9764  -41057130.54348 -31533390.80163
  17110445.187   -14849708.197 6 -11461934.72421
  16894424.155   -33232332.620 6 -23116358.52521
 92  5 28  0 14 29.9790000  0  5G12G16G24G20G13
  15135968.796   -37819518.746 7 -29364779.94023
  17816691.3514  -10738993.24645  -8065955.91861
  14335621.8514  -41091641.00148 -31560282.05263
  17084460.7884  -14986258.86446 -11568337.73061
  16899795.507   -33204098.592 6 -23094358.02221
 92  5 28  0 14 59.9790000  0  5G12G16G24G20G13
  15136746.038   -37815442.958 7 -29361604.03623
  17791446.8664  -10871660.52245  -8169332.76061
  14329160.0694  -41125593.46448 -31586738.50063
  17058502.4214  -15122669.13646 -11674631.33661
  16905173.319   -33175845.233 6 -23072342.45821
 92  5 28  0 15 29.9790000  0  5G12G16G24G20G13
  15137631.655   -37810783.526 7 -29357973.34023
  17766213.1244  -11004265.69245  -8272661.21261
  14322798.5774  -41159024.49348 -31612788.64063
  17032568.015   -15258955.342 6 -11780828.27421
  16910551.827   -33147591.999 6 -23050326.98521
 92  5 28  0 15 59.9790000  0  5G12G16G24G20G13
  15138631.280   -37805528.633 7 -29353878.65323
  17740991.0694  -11136798.52345  -8375933.30261
  14316537.2654  -41191929.24748 -31638428.69263
  17006660.046   -15395102.143 6 -11886916.58321
  16915928.280   -33119325.743 6 -23028301.38321
 92  5 28  0 16 29.9790000  0  6G12G16G24G20G 3G13
  15139745.968   -37799671.186 7 -29349314.44123
  17715791.679   -11269229.178 5  -8479125.75621
  14310374.9444  -41224313.51448 -31663663.17163
  16980779.882   -15531098.515 6 -11992887.67621
  19449610.2184         -0.49152
  16921313.890   -33091038.487 6 -23006259.40621
 92  5 28  0 16 59.9790000  0  6G12G16G24G20G 3G13
  15140974.210   -37793218.901 7 -29344286.72323
  17690609.6324  -11401558.59045  -8582239.33661
  14304310.4764  -41256181.26248 -31688495.16863
  16954928.476   -15666948.418 6 -12098744.63921
  19427707.3744    -115087.41642
  16926696.5154  -33062737.11046 -22984206.44061
 92  5 28  0 17 29.9790000  0  6G12G16G24G20G 3G13
  15142312.984   -37786186.637 7 -29338807.07523
  17665442.023   -11533815.037 5  -8685296.05521
  14298343.2964  -41287534.79548 -31712926.48163
  16929104.351   -15802662.652 6 -12204495.88321
  19405830.554     -230047.342 2
  16932083.9444  -33034435.31346 -22962153.14361
 92  5 28  0 17 59.9790000  0  6G12G16G24G20G 3G13
  15143762.374   -37778571.388 7 -29332873.15223
  17640291.5384  -11665979.67545  -8788281.23661
  14292478.5544  -41318357.88048 -31736944.45463
  16903304.944   -15938234.600 6 -12310136.25821
  19383980.7264    -344875.87843
  16937467.280   -33006129.399 6 -22940096.63821
 92  5 28  0 18 29.9790000  0  6G12G16G24G20G 3G13
  15145320.952   -37770379.504 7 -29326489.90323
  17615157.671   -11798064.217 5  -8891204.01221
  14286712.8514  -41348653.47948 -31760551.40163
  16877532.523   -16073666.669 6 -12415667.64121
  19362152.429     -459577.891 2
  16942855.7414  -32977824.03346 -22918040.54961
 92  5 28  0 18 59.9790000  0  6G12G16G24G20G 3G13
  15146988.851   -37761618.599 7 -29319663.26523
  17590034.3594  -11930089.39845  -8994080.52961
  14281047.2264  -41378427.37548 -31783751.82763
  16851785.804   -16208962.417 6 -12521092.79821
  19340349.132     -574159.032 2
  16948239.7344  -32949526.20646 -22895990.34661
 92  5 28  0 19 29.9790000  0  6G12G16G24G20G 3G13
  15148764.046   -37752284.693 7 -29312390.13123
  17564923.3824  -12062043.83045  -9096901.92961
  14275479.4524  -41407689.13548 -31806553.18463
  16826066.8354  -16344113.71946 -12626405.40361
  19318565.765     -688613.889 2
  16953624.109   -32921230.861 6 -22873942.07021
 92  5 28  0 19 59.9790000  0  6G12G16G24G20G 3G13
  15150648.569   -37742382.835 7 -29304674.43523
  17539827.1634  -12193925.94845  -9199666.99061
  14270005.0304  -41436459.37348 -31828971.53863
  16800376.288   -16479121.844 6 -12731606.43721
  19296809.866     -802946.031 2
  16959007.960   -32892942.096 6 -22851898.91321
 92  5 28  0 20 29.9790000  0  6G12G16G24G20G 3G13
  15152638.265   -37731923.652 7 -29296524.46623
  17514742.710   -12325737.743 5  -9302377.25321
  14264621.5234  -41464750.69748 -31851016.71663
  16774711.882   -16613993.314 6 -12836700.98721
  19275075.944     -917164.545 3
  16964390.827   -32864669.073 6 -22829868.02121
 92  5 28  0 20 59.9790000  0  6G12G16G24G20G 3G13
  15154738.343   -37720889.466 7 -29287926.44422
  17489682.859   -12457437.103 5  -9404999.89421
  14259331.3594  -41492547.46148 -31872676.52163
  16749075.437   -16748706.354 6 -12941672.08921
  19253363.484    -1031249.727 2
  16969768.530   -32836392.798 6 -22807834.58821
 92  5 28  0 21 29.9790000  0  6G12G16G24G20G 3G13
  15156946.648   -37709284.550 7 -29278883.69322
  17464642.335   -12589016.346 5  -9507528.94921
  14254135.2184  -41519851.53948 -31893952.41463
  16723470.991   -16883260.838 6 -13046519.64021
  19231677.4604   -1145203.91342        -0.15471
  16975151.554   -32808116.585 6 -22785801.22321
 92  5 28  0 21 59.9790000  0  6G12G16G24G20G 3G13
  15159262.187   -37697116.841 7 -29269402.40322
  17439624.468   -12720479.501 5  -9609967.55221
  14249035.6244  -41546653.32448 -31914836.90563
  16697895.952   -17017661.059 6 -13151246.98321
  19210018.1014   -1259033.97042    -88698.57761
  16980530.171   -32779846.988 6 -22763773.01421
 92  5 28  0 22 29.9790000  0  6G12G16G24G20G 3G13
  15161684.710   -37684386.833 7 -29259482.95922
  17414633.538   -12851809.094 5  -9712302.09421
  14244032.7964  -41572940.32848 -31935320.27663
  16672351.335   -17151903.281 6 -13255851.20221
  19188381.2024   -1372738.29143
  16985907.593   -32751582.826 6 -22741749.03021
 92  5 28  0 22 59.9790000  0  6G12G16G24G20G 3G13
  15164216.679   -37671086.968 7 -29249119.47322
  17389667.015   -12983003.517 5  -9814531.31721
  14239128.4444  -41598711.92748 -31955402.03263
  16646837.460   -17285975.706 6 -13360323.11921
  19166771.7654   -1486307.75442
  16991287.2264  -32723315.51046 -22719722.59161
 92  5 28  0 23 29.9790000  0  6G12G16G24G20G 3G13
  15166853.069   -37657226.956 7 -29238319.51222
  17364723.609   -13114086.826 5  -9916673.97421
  14234322.2494  -41623971.51148 -31975084.81963
  16621355.280   -17419883.819 6 -13464667.00021
  19145183.226    -1599750.340 2        -0.46631
  16996665.796   -32695053.802 6 -22697700.51621
 92  5 28  0 23 59.9790000  0  6G12G16G24G20G 3G13
  15169596.757   -37642808.395 7 -29227084.31423
  17339800.952   -13245057.191 5 -10018728.62521
  14229612.3514  -41648723.03248 -31994371.70963
  16595905.609   -17553624.896 6 -13568880.72421
  19123618.093    -1713065.751 2    -88297.91621
  17002041.718   -32666797.710 6 -22675682.80821
 92  5 28  0 24 29.9790000  0  6G12G16G24G20G 3G13
  15172449.023   -37627824.713 7 -29215408.76522
  17314901.9604  -13375903.58545 -10120686.67361
  14224998.7264  -41672967.71148 -32013263.66563
  16570488.843   -17687187.910 6 -13672955.69721
  19102080.819    -1826245.504 2   -176489.62621
  17007420.2734  -32638539.06346 -22653663.14661
 92  5 28  0 24 59.9790000  0  5G12G16G24G20G13
  15175409.796   -37612265.555 7 -29203284.79223
  17290024.460   -13506628.498 5 -10222550.07121
  14220483.0854  -41696694.97148 -32031752.42863
  16545109.679   -17820558.554 6 -13776880.78021
  17012800.249   -32610266.160 6 -22631632.35421
 92  5 28  0 25 29.9790000  0  5G12G16G24G20G13
  15178479.554   -37596134.668 7 -29190715.31322
  17265173.405   -13637227.266 5 -10324315.18021
  14216066.7734  -41719904.05148 -32049837.42363
  16519766.6244  -17953736.22546 -13880655.49361
  17018181.8044  -32581980.54046 -22609591.65961
 92  5 28  0 25 59.9790000  0  6G12G16G24G20G 3G13
  15181656.265   -37579436.152 7 -29177703.52622
  17240349.640   -13767681.220 5 -10425967.45021
  14211745.5464  -41742610.91348 -32067531.07763
  16494459.077   -18086720.589 6 -13984279.57921
  19037634.288          -0.47812
  17023567.8594  -32553685.20046 -22587543.39561
 92  5 28  0 26 29.9790000  0  6G12G16G24G20G 3G13
  15184939.335   -37562181.839 7 -29164258.65522
  17215549.999   -13897996.519 5 -10527511.69321
  14207518.3354  -41764825.24148 -32084840.93963
  16469188.952   -18219519.066 6 -14087758.81721
  19016206.671     -112610.217 2
  17028950.843   -32525390.529 6 -22565495.64521
 92  5 28  0 26 59.9790000  0  6G12G16G24G20G 3G13
  15188330.9684  -37544361.38247 -29150372.64462
  17190782.937   -14028149.097 5 -10628929.11621
  14203385.9844  -41786539.33048 -32101761.00563
  16443955.843   -18352117.087 6 -14191081.85721
  18994803.7264    -225074.35842
  17034340.609   -32497084.333 6 -22543438.93321
 92  5 28  0 27 29.9790000  0  6G12G16G24G20G 3G13
  15191830.507   -37525977.543 7 -29136047.62422
  17166051.577   -14158109.793 5 -10730197.02921
  14199348.8904  -41807753.88647 -32118291.82763
  16418762.413   -18484512.533 6 -14294247.04721
  18973430.4444    -337393.50742
  17039726.0694  -32468768.13246 -22521374.41461
 92  5 28  0 27 59.9790000  0  6G12G16G24G20G 3G13
  15195433.3904  -37507037.37847 -29121289.10962
  17141357.343   -14287873.977 5 -10831311.82621
  14195408.5694  -41828462.74447 -32134428.59663
  16393607.234   -18616708.054 6 -14397256.45421
  18952085.2024    -449573.24642        -0.46371
  17045113.929   -32440447.286 6 -22499306.27121
 92  5 28  0 28 29.9790000  0  6G12G16G24G20G 3G13
  15199141.273   -37487551.213 7 -29106105.13422
  17116701.1324  -14417455.43945 -10932284.24461
  14191566.2734  -41848656.95347 -32150164.34263
  16368487.140   -18748709.723 6 -14500114.80421
  18930761.562     -561621.746 2    -87310.65521
  17050506.1634  -32412130.26946 -22477241.12961
 92  5 28  0 28 59.9790000  0  6G12G16G24G20G 3G13
  15202956.312   -37467510.107 7 -29090488.73822
  17092076.835   -14546843.873 5 -11033106.23321
  14187823.3744  -41868322.92747 -32165488.47763
  16343408.898   -18880503.699 6 -14602811.31821
  18909466.726     -673528.257 3   -174510.27921
  17055893.5694  -32383806.50046 -22455170.72461
 92  5 28  0 29 29.9790000  0  6G12G16G24G20G 3G13
  15206873.898   -37446920.275 7 -29074444.77422
  17067489.265   -14676065.175 5 -11133798.00121
  14184180.4844  -41887463.59947 -32180403.28863
  16318367.405   -19012092.095 6 -14705347.64721
  18888198.335     -785297.049 2   -261602.50221
  17061283.523   -32355480.551 6 -22433098.62321
 92  5 28  0 29 59.9790000  0  6G12G16G24G20G 3G13
  15210897.280   -37425780.301 7 -29057972.11522
  17042924.804   -14805140.018 6 -11234375.64721
  14180637.3824  -41906083.20447 -32194912.06763
  16293368.069   -19143468.503 6 -14807718.78421
  18866956.4214    -896924.58442   -348584.75361
  17066677.2804  -32327148.52446 -22411021.78161
 92  5 28  0 30 29.9790000  0  6G12G16G24G20G 3G13
  15215023.429   -37404093.555 7 -29041073.40022
  17018389.882   -14934081.969 6 -11334849.74021
  14177190.4524  -41924201.94747 -32209030.56463
  16268407.0774  -19274632.07446 -14909924.08861
  18845737.7104   -1008412.59742   -435458.24161
  17072067.749   -32298812.820 6 -22388942.09821
 92  5 28  0 30 59.9790000  0  6G12G16G24G20G 3G13
  15219254.304   -37381864.119 7 -29023751.80722
  16993876.2104  -15062894.05446 -11435222.65761
  14173833.8744  -41941837.64947 -32222772.66763
  16243489.0234  -19405582.37046 -15011963.21061
  18824549.0234   -1119762.76442   -522224.30861
  17077459.741   -32270475.496 6 -22366861.14021
 92  5 28  0 31 29.9790000  0  6G12G16G24G20G 3G13
  15223585.843   -37359095.960 7 -29006010.43422
  16969391.030   -15191561.532 6 -11535482.87121
  14170569.0074  -41958997.65847 -32236144.09763
  16218610.5384  -19536318.20646 -15113835.19261
  18803384.030    -1230977.338 2   -608884.76021
  17082853.851   -32242138.612 6 -22344780.49921
 92  5 28  0 31 59.9780000  0  6G12G16G24G20G 3G13
  15228021.236   -37335791.531 7 -28987851.18922
  16944942.885   -15320052.482 6 -11635605.53921
  14167395.9944  -41975672.91347 -32249137.79863
  16193772.565   -19666831.645 6 -15215533.87321
  18782245.3614   -1342052.12442   -695436.25161
  17088243.377   -32213802.379 6 -22322700.37121
 92  5 28  0 32 29.9780000  0  6G12G16G24G20G 3G13
  15232556.8074  -37311954.83447 -28969277.19062
  16920524.135   -15448363.144 6 -11735587.71421
  14164313.5574  -41991867.58547 -32261757.01363
  16168979.1194  -19797133.26946 -15317067.52461
  18761136.182    -1452998.409 2   -781887.61821
  17093637.6434  -32185469.01746 -22300622.50361
 92  5 28  0 32 59.9780000  0  6G12G16G24G20G 3G13
  15237191.971   -37287593.046 7 -28950294.02022
  16896143.1434  -15576479.44046 -11835418.43661
  14161325.8384  -42007569.65447 -32273992.38463
  16144224.213   -19927220.088 6 -15418433.79721
  18740048.9864   -1563816.57242   -868239.17561
  17099029.260   -32157143.639 6 -22278550.83221
 92  5 28  0 33 29.9780000  0  6G12G16G24G20G 3G13
  15241929.596   -37262701.166 7 -28930897.80322
  16871804.354   -15704385.592 6 -11935085.41521
  14158434.6354  -42022761.10347 -32285829.86963
  16119512.0964  -20057082.03446 -15519624.84561
  18718985.674    -1674499.402 2   -954485.30221
  17104417.791   -32128819.282 6 -22256479.95721
 92  5 28  0 33 59.9780000  0  6G12G16G24G20G 3G13
  15246767.268   -37237277.016 7 -28911086.82122
  16847505.549   -15832079.681 6 -12034587.14521
  14155640.8934  -42037442.57247 -32297269.96763
  16094843.9944  -20186712.42046 -15620635.44461
  18697947.768    -1785042.847 2  -1040622.79621
  17109808.7294  -32100491.51346 -22234406.41861
 92  5 28  0 34 29.9780000  0  6G12G16G24G20G 3G13
  15251704.174   -37211336.822 7 -28890873.73622
  16823243.065   -15959574.438 6 -12133933.55721
  14152938.5574  -42051644.71947 -32308336.57263
  16070219.2764  -20316122.73446 -15721474.57261
  18676937.1114   -1895461.08343  -1126662.73461
  17115195.713   -32072174.764 6 -22212341.46221
 92  5 28  0 34 59.9780000  0  6G12G16G24G20G 3G13
  15256739.947   -37184871.522 7 -28870251.48022
  16799022.151   -16086853.269 6 -12233111.71021
  14150327.7524  -42065361.88647 -32319025.27263
  16045638.2214  -20445299.11546 -15822131.40861
  18655948.9244   -2005742.97843  -1212596.43361
  17120585.510   -32043858.004 6 -22190276.50221
 92  5 28  0 35 29.9780000  0  6G12G16G24G20G 3G13
  15261876.518   -37157883.506 7 -28849221.90022
  16774843.049   -16213911.814 6 -12332118.21121
  14147805.9474  -42078612.40547 -32329350.34863
  16021100.4164  -20574238.91946 -15922603.90361
  18634988.9944   -2115888.59743  -1298423.96061
  17125973.6044  -32015541.75446 -22168211.94661
 92  5 28  0 35 59.9780000  0  6G12G16G24G20G 3G13
  15267109.8304  -37130383.51647 -28827793.39362
  16750707.385   -16340759.408 6 -12430960.33921
  14145368.7914  -42091421.94547 -32339331.80763
  15996607.0024  -20702947.97746 -16022896.59861
  18614050.877    -2225906.818 3  -1384152.24321
  17131359.541   -31987234.531 6 -22146154.41821
 92  5 28  0 36 29.9780000  0  6G12G16G24G20G 3G13
  15272439.7134  -37102375.03047
  16726606.018   -16467410.171 6 -12529649.08821
  14143015.9714  -42103786.93647 -32348966.86163
  15972159.0884  -20831424.81546 -16123008.33661
  18593141.6354   -2335798.93843  -1469782.25961
  17136743.830   -31958937.233 6
 92  5 28  0 36 59.9780000  0  6G12G16G24G20G 3G13
  15277863.690   -37073866.948 7 -28783754.62522
  16702538.143   -16593879.783 6 -12628196.68221
  14140750.1904  -42115696.41347 -32358246.96764
  15947754.4084  -20959673.44346 -16222942.25461
  18572251.4864   -2445571.45343  -1555319.05761
  17142127.2524  -31930656.88046 -22102068.01361
 92  5 28  0 37 29.9780000  0  6G12G16G24G20G 3G13
  15283385.3154  -37044850.05947 -28761144.12362
  16678506.940   -16720161.002 6 -12726597.48221
  14138573.6974  -42127129.70147 -32367156.01864
  15923396.182   -21087679.633 6 -16322687.27121
  18551388.643    -2555213.457 3  -1640754.11221
  17147507.776   -31902381.857 6 -22080035.58521
 92  5 28  0 37 59.9780000  0  6G12G16G24G20G 3G13
  15289001.4474  -37015340.68547 -28738149.86662
  16654510.565   -16846262.590 6 -12824858.31121
  14136487.9864  -42138091.14847 -32375697.39664
  15899080.979   -21215454.971 6 -16422252.37621
  18530547.4474   -2664738.73743  -1726098.27861
  17152885.7054  -31874126.28746 -22058018.31061
 92  5 28  0 38 29.9780000  0  6G12G16G24G20G 3G13
  15294710.4554  -36985338.06547 -28714771.26262
  16630551.760   -16972168.342 6 -12922966.54521
  14134495.0724  -42148565.97647 -32383859.59564
  15874811.6824  -21342993.47246 -16521632.95061
  18509730.0024   -2774144.35643  -1811349.19561
  17158259.080   -31845887.024 6 -22036013.73721
 92  5 28  0 38 59.9780000  0  6G12G16G24G20G 3G13
  15300512.6354  -36954845.57247 -28691010.93662
  16606636.0024  -17097848.02746 -13020898.62361
  14132592.8854  -42158563.08347 -32391649.54664
  15850587.5414  -21470293.44347 -16620827.66462
  18488933.1274   -2883431.64843  -1896507.90561
  17163626.908   -31817665.071 6 -22014022.67921
 92  5 28  0 39 29.9780000  0  6G12G16G24G20G 3G13
  15306410.3224  -36923860.84747 -28666867.05362
  16582766.6744  -17223281.65746 -13118638.96961
  14130776.1664  -42168103.40647 -32399083.55864
  15826409.0264  -21597347.91547 -16719831.07961
  18468157.4554   -2992595.95143  -1981570.79961
  17168994.9244  -31789456.22246 -21992041.80561
 92  5 28  0 39 59.9780000  0  6G12G16G24G20G 3G13
  15312398.4714  -36892388.31947 -28642343.06762
  16558945.3614  -17348462.05546 -13216182.00261
  14129046.3304  -42177200.46347 -32406172.17164
  15802277.5104  -21724155.67047 -16818642.25561
  18447408.8614   -3101639.44443  -2066539.52761
  17174360.7214  -31761262.27446 -21970072.55861
 92  5 28  0 40 29.9780000  0  6G12G16G24G20G 3G13
  15318478.2994  -36860435.13447 -28617444.54262
  16535171.1044  -17473400.52446 -13313536.51561
  14127397.7604  -42185862.45747 -32412921.77464
  15778193.0804  -21850718.80847 -16917262.81762
  18426680.2054   -3210566.99343  -2151417.90061
  17179724.7294  -31733088.30546 -21948118.85761
 92  5 28  0 40 59.9780000  0  6G12G16G24G20G 3G13
  15324652.3544  -36827998.42747 -28592169.24862
  16511440.9944  -17598101.54446 -13410706.01561
  14125831.2444  -42194091.38947 -32419333.92764
  15754156.7834  -21977029.60347 -17015686.75062
  18405974.002    -3319373.713 3  -2236202.12921
  17185082.276   -31704928.603 6 -21926176.29721
 92  5 28  0 41 29.9780000  0  6G12G16G24G20G 3G13
  15330914.5494  -36795080.07747 -28566518.65062
  16487753.9714  -17722576.98946 -13507699.73561
  14124350.3304  -42201881.49547 -32425404.13864
  15730168.8304  -22103084.61347 -17113911.36762
  18385293.4554   -3428059.10843  -2320891.84861
  17190439.338   -31676782.979 6 -21904244.70021
 92  5 28  0 41 59.9780000  0  6G12G16G24G20G 3G13
  15337271.9944  -36761678.85447 -28540491.78962
  16464109.8694  -17846825.06346 -13604516.28861
  14122954.8774  -42209213.30747 -32431117.24164
  15706231.7834  -22228877.73547 -17211931.91762
  18364635.6974   -3536619.68143  -2405484.27561
  17195791.815   -31648647.500 6 -21882321.02221
 92  5 28  0 42 29.9780000  0  6G12G16G24G20G 3G13
  15343717.7524  -36727800.91447 -28514093.45662
  16440510.6584  -17970846.94246 -13701156.57761
  14121646.0414  -42216090.90048 -32436476.40264
  15682344.1974  -22354409.85647 -17309749.08862
  18343998.7914   -3645059.21043  -2489982.38561
  17201142.526   -31620525.675 5 -21860408.00721
 92  5 28  0 42 59.9780000  0  6G12G16G24G20G 3G13
  15350254.5654  -36693456.61947 -28487331.73062
  16416952.1274  -18094642.68146 -13797620.66561
  14120421.4404  -42222524.18648 -32441489.35164
  15658505.4864  -22479685.88947 -17407366.72262
  18323384.861    -3753385.765 3  -2574392.48421
  17206491.221   -31592425.321 5 -21838511.67321
 92  5 28  0 43 29.9780000  0  6G12G16G24G20G 3G13
  15356881.4714  -36658629.77047 -28460193.99262
  16393442.502   -18218185.591 6 -13893887.72721
  14119284.2134  -42228497.50748 -32446143.88564
  15634718.0264  -22604684.85047 -17504768.45062
  18302793.752    -3861581.083 3  -2658700.28521
  17211835.151   -31564328.084 5 -21816617.78121
 92  5 28  0 43 59.9780000  0  6G12G16G24G20G 3G13
  15363598.3224  -36623333.29547 -28432690.31562
  16369978.377   -18341478.931 6 -13989960.32321
  14118231.5414  -42234029.44048 -32450454.48664
  15610982.924   -22729414.188 7 -17601960.09022
  18282229.1824   -3969655.47843  -2742913.86961
  17217182.3154  -31536243.90245 -21794734.08861
 92  5 28  0 44 29.9780000  0  6G12G16G24G20G 3G13
  15370402.1274  -36587576.54947 -28404827.98262
  16346562.0574  -18464532.03346 -14085845.72061
  14117262.1114  -42239127.44548 -32454426.96064
  15587298.9164  -22853878.21147 -17698944.98362
  18261683.533    -4077616.188 3  -2827038.85021
  17222523.307   -31508179.634 5 -21772865.91121
 92  5 28  0 44 59.9780000  0  6G12G16G24G20G 3G13
  15377296.5104  -36551353.43147 -28376602.24262
  16323195.5104  -18587327.21446 -14181530.14761
  14116376.0724  -42243777.78247 -32458050.60464
  15563666.9244  -22978065.50447 -17795714.23262
  18241162.2524   -4185454.52543  -2911068.52361
  17227859.1584  -31480127.06645 -21751006.83461
 92  5 28  0 45 29.9780000  0  6G12G16G24G20G 3G13
  15384276.6354  -36514661.29847 -28348011.03162
  16299878.2364  -18709853.74546 -14277005.23461
  14115578.9794  -42247971.71547 -32461318.60864
  15540089.6194  -23101968.06547 -17892261.63562
  18220667.0654   -4293165.73043  -2994999.08961
  17233196.604   -31452080.564 5 -21729152.50621
 92  5 28  0 45 59.9780000  0  6G12G16G24G20G 3G13
  15391346.1824  -36477519.59547 -28319069.51162
  16276611.4404  -18832124.86746 -14372281.30661
  14114863.1114  -42251723.93347 -32464242.41464
  15516562.9554  -23225599.84747 -17988598.02562
  18200190.822    -4400766.821 3  -3078843.83221
  17238532.0264  -31424056.90545 -21707315.98261
 92  5 28  0 46 29.9780000  0  6G12G16G24G20G 3G13
  15398498.4714  -36439932.70747 -28289781.09962
  16253394.4014  -18954146.30146 -14467362.81661
  14114234.9554  -42255033.28347 -32466821.13364
  15493088.0724  -23348960.09847 -18084722.84062
  18179733.6354   -4508259.74843  -3162604.35161
  17243858.1824  -31396058.28645 -21685498.95061
 92  5 28  0 46 59.9780000  0  6G12G16G24G20G 3G13
  15405740.5184  -36401880.47547 -28260130.07762
  16230226.1584  -19075891.57646 -14562229.13261
  14113690.9864  -42257892.38147 -32469049.00864
  15469668.947   -23472023.326 7 -18180616.20222
  18159302.2134   -4615622.25243  -3246263.24961
  17249186.2764  -31368061.35545 -21663683.21561
 92  5 28  0 47 29.9780000  0  6G12G16G24G20G 3G13
  15413066.5964  -36363378.37847 -28230128.51062
  16207106.994   -19197385.785 6 -14656899.80721
  14113227.8614  -42260320.02747 -32470940.68064
  15446305.0804  -23594799.58447 -18276285.95262
  18138897.221    -4722866.897 3  -3329830.27621
  17254509.3464  -31340078.78945 -21641878.68161
 92  5 28  0 47 59.9780000  0  6G12G16G24G20G 3G13
  15420480.0724  -36324421.20847 -28199772.34062
  16184036.3464  -19318608.75446 -14751359.12461
  14112849.2764  -42262319.51047 -32472498.72764
  15422998.3934  -23717278.27647 -18371723.83962
  18118513.9244   -4829986.56843  -3413299.92261
  17259834.9014  -31312102.85745 -21620079.35261
 92  5 28  0 48 29.9780000  0  6G12G16G24G20G 3G13
  15427979.4864  -36285006.64947 -28169059.77062
  16161023.1514  -19439540.36946 -14845591.41461
  14112551.2834  -42263883.10547 -32473717.12164
  15399750.236   -23839451.858 7 -18466923.98622
  18098152.401    -4936976.360 3  -3496668.40821
  17265158.8774  -31284128.53845 -21598281.27561
 92  5 28  0 48 59.9780000  0  6G12G16G24G20G 3G13
  15435565.0024  -36245145.36247 -28137999.09462
  16138067.7764  -19560175.33546 -14939592.54661
  14112337.6114  -42265015.54347 -32474599.55764
  15376557.643   -23961325.431 7 -18561890.32222
  18077815.752    -5043844.510 3  -3579942.08721
  17270481.682   -31256163.541 5 -21576490.42621
 92  5 28  0 49 29.9780000  0  6G12G16G24G20G 3G13
  15443234.7764  -36204844.39347 -28106595.81162
  16115171.2604  -19680505.33346 -15033356.04861
  14112201.7134  -42265709.46647 -32475140.28564
  15353422.1434  -24082900.38947 -18656623.97662
  18057500.494    -5150595.510 3  -3663124.48621
  17275800.588   -31228212.321 5 -21554710.33221
 92  5 28  0 49 59.9780000  0  6G12G16G24G20G 3G13
  15450987.7764  -36164102.77347 -28074849.16662
  16092336.2214  -19800512.40146 -15126867.91861
  14112155.6194  -42265961.01347
  15330344.4084  -24204170.66447 -18751120.23362
  18037209.213    -5257226.072 3  -3746213.00821
  17281117.1584  -31200270.82345 -21532937.79561
 92  5 28  0 50 29.9780000  0  6G12G16G24G20G 3G13
  15458824.0574  -36122920.94047 -28042759.49962
  16069555.3544  -19920217.62446 -15220144.58361
  14112192.0724  -42265772.48147
  15307327.049   -24325131.527 7 -18845375.37322
  18016942.9944   -5363734.35643  -3829206.27361
  17286432.0804  -31172336.78945 -21511171.09561
 92  5 28  0 50 59.9780000  0  6G12G16G24G20G 3G13
  15466745.6904  -36081295.31647 -28010324.02762
  16046830.5724  -20039628.50446 -15313191.89261
  14112308.0264  -42265154.80847 -32474708.11464
  15284370.635   -24445773.798 7 -18939382.27622
  17996699.1974   -5470113.95443  -3912099.27561
  17291747.783   -31144403.834 5 -21489405.22321
 92  5 28  0 51 29.9770000  0  6G12G16G24G20G 3G13
  15474750.3334  -36039226.60446 -27977543.28262
  16024166.5834  -20158728.34746 -15405996.83161
  14112504.6534  -42264120.15447 -32473901.90664
  15261475.8254  -24566087.33247 -19033133.01862
  17976481.896    -5576358.470 3  -3994886.98121
  17297064.7394  -31116469.15445 -21467637.98261
 92  5 28  0 51 59.9770000  0  6G12G16G24G20G 3G13
  15482839.2474  -35996720.25246 -27944421.52362
  16001561.7864  -20277530.03046 -15498569.43961
  14112778.8414  -42262688.24847 -32472786.15164
  15238640.3184  -24686082.74847 -19126635.87462
  17956285.8104   -5682480.76043  -4077579.46261
  17302377.2474  -31088536.50645 -21445872.35861
 92  5 28  0 52 29.9770000  0  6G12G16G24G20G 3G13
  15491010.4274  -35953783.72946 -27910964.56662
  15979011.7634  -20396025.17046 -15590903.18761
  14113126.1144  -42260859.14047 -32471360.88264
  15215866.5754  -24805756.63147 -19219888.18762
  17936115.6854   -5788480.58644  -4160176.53061
  17307692.755   -31060609.624 5 -21424111.23421
 92  5 28  0 52 59.9770000  0  6G12G16G24G20G 3G13
  15499264.0444  -35910408.73446 -27877165.94962
  15956526.0214  -20514178.46746 -15682970.57361
  14113556.0134  -42258600.93047 -32469601.24864
  15193158.7474  -24925095.35047 -19312879.33262
  17915968.8104   -5894347.44844  -4242669.95761
  17313007.6144  -31032677.49345 -21402345.99561
 92  5 28  0 53 29.9770000  0  6G12G16G24G20G 3G13
  15507600.4034  -35866604.60346 -27843032.93961
  15934106.8254  -20631991.61046 -15774772.90561
  14114069.8964  -42255902.10247 -32467498.28064
  15170512.646   -25044102.365 7 -19405612.01822
  17895848.3414   -6000088.12944  -4325065.11161
  17318321.7864  -31004746.15745 -21380581.33961
 92  5 28  0 53 59.9770000  0  6G12G16G24G20G 3G13
  15516017.6614  -35822371.32146 -27808565.52561
  15911750.6934  -20749484.92046 -15866326.01161
  14114669.7004  -42252746.31547 -32465039.23964
  15147929.489   -25162772.165 7 -19498081.95522
  17875749.2324   -6105699.84744  -4407359.73361
  17323639.599   -30976813.195 5 -21358815.47821
 92  5 28  0 54 29.9770000  0  6G12G16G24G20G 3G13
  15524516.2944  -35777706.59446 -27773761.92061
  15889452.7004  -20866660.40846 -15957631.47561
  14115360.1774  -42249118.55847 -32462212.43064
  15125412.1854  -25281096.92447 -19590282.99762
  17855677.802    -6211178.070 4  -4489550.34221
  17328955.2944  -30948873.44145 -21337044.32161
 92  5 28  0 54 59.9770000  0  6G12G16G24G20G 3G13
  15533097.1934  -35732610.27146 -27738622.00762
  15867212.568   -20983519.956 6 -16048690.75221
  14116137.4894  -42245034.44647 -32459030.01264
  15102964.294   -25399071.365 7 -19682211.08822
  17835629.333    -6316519.978 3  -4571634.76421
  17334275.7714  -30920923.21745 -21315265.01161
 92  5 28  0 55 29.9770000  0  6G12G16G24G20G 3G13
  15541760.677   -35687091.923 6 -27703153.24822
  15845035.138   -21100063.697 6 -16139503.94621
  14116993.2784  -42240533.35647 -32455522.67064
  15080580.2084  -25516698.84347 -19773868.81162
  17815609.8804   -6421732.75044  -4653618.55761
  17339593.068   -30892968.983 5 -21293482.54121
 92  5 28  0 55 59.9770000  0  6G12G16G24G20G 3G13
  15550501.0284  -35641155.39346 -27667358.63461
  15822923.177   -21216281.151 6 -16230062.89921
  14117924.7164  -42235643.93847 -32451712.72664
  15058260.966   -25633977.789 7 -19865254.94822
  17795610.6544   -6526817.64344  -4735502.71361
  17344914.6384  -30865011.79945 -21271697.81861
 92  5 28  0 56 29.9770000  0  6G12G16G24G20G 3G13
  15559322.763   -35594798.866 6 -27631236.75621
  15800874.700   -21332133.656 6 -16320337.48321
  14118924.9584  -42230386.80347 -32447616.25164
  15036011.5754  -25750901.19647 -19956364.04862
  17775642.9194   -6631770.25844  -4817283.78161
  17350234.982   -30837046.692 5 -21249906.87421
 92  5 28  0 56 59.9770000  0  6G12G16G24G20G 3G13
  15568224.958   -35548021.775 6 -27594787.16621
  15778899.091   -21447605.332 6 -16410315.31321
  14119994.5834  -42224765.50647 -32443236.02164
  15013832.0684  -25867462.71547 -20047191.14662
  17755695.419    -6736587.359 4  -4898959.27521
  17355559.7634  -30809069.63945 -21228106.62861
 92  5 28  0 57 29.9770000  0  6G12G16G24G20G 3G13
  15577205.411   -35500826.260 6 -27558011.52721
  15757001.521   -21562696.905 6 -16499996.96421
  14121135.5524  -42218767.15447 -32438561.99164
  14991718.903   -25983658.796 7 -20137733.50222
  17735775.372    -6841268.457 4  -4980528.77721
  17360885.0994  -30781079.27945 -21206296.06661
 92  5 28  0 57 59.9770000  0  6G12G16G24G20G 3G13
  15586264.3644  -35453220.39846 -27520916.13061
  15735168.849   -21677424.442 6 -16589394.95021
  14122352.3804  -42212375.09447 -32433581.17364
  14969676.5444  -26099491.87347 -20227992.97462
  17715877.4504   -6945819.21344  -5061996.72961
  17366214.779   -30753081.190 5 -21184479.46721
 92  5 28  0 58 29.9770000  0  6G12G16G24G20G 3G13
  15595401.943   -35405202.305 6 -27483499.52721
  15713404.349   -21791781.258 6 -16678504.06222
  14123650.3574  -42205557.82247 -32428269.02764
  14947706.1534  -26214954.45047 -20317963.76663
  17696012.443    -7050235.382 4  -5143359.80621
  17371544.708   -30725070.828 5 -21162653.31421
 92  5 28  0 58 59.9770000  0  6G12G16G24G20G 3G13
  15604616.888   -35356780.504 6 -27445768.33821
  15691711.521   -21905784.524 6 -16767337.68221
  14125031.0684  -42198297.84047 -32422611.90564
  14925804.4744  -26330049.28447 -20407647.99262
  17676163.9434   -7154522.24644  -5224622.11661
  17376876.5604  -30697053.09645 -21140821.38761
 92  5 28  0 59 29.9770000  0  6G12G16G24G20G 3G13
  15613907.3494  -35307958.14446 -27407725.02861
  15670089.099   -22019428.198 6 -16855891.10122
  14126495.3494  -42190602.69447 -32416615.69764
  14903971.661   -26444774.125 7 -20497043.91523
  17656342.0994   -7258681.10644  -5305784.68561
  17382207.146   -30669027.772 5 -21118983.54421
 92  5 28  0 59 59.9770000  0  6G12G16G24G20G 3G13
  15623271.1384  -35258746.71846 -27369378.55161
  15648529.833   -22132708.281 6 -16944161.20922
  14128039.6694  -42182488.54947 -32410292.99664
  14882210.0994  -26559134.73147 -20586156.01962
  17636542.1854   -7362720.30644  -5386854.00561
  17387540.982   -30641003.444 5 -21097146.50421
 92  5 28  1  0 29.9770000  0  6G12G16G24G20G 3G13
  15632712.2244  -35209144.99746 -27330727.94861
  15627042.950   -22245615.810 6 -17032141.00822
  14129663.2864  -42173958.88747 -32403646.51964
  14860518.825   -26673124.366 7 -20674979.05723
  17616770.529    -7466636.357 4  -5467827.37421
  17392875.2554  -30612976.06045 -21075307.03961
 92  5 28  1  0 59.9770000  0  6G12G16G24G20G 3G13
  15642225.903   -35159145.374 6 -27291767.30421
  15605631.028   -22358149.794 6 -17119829.72922
  14131363.1384  -42165024.31547 -32396684.52664
  14838898.989   -26786729.742 7 -20763502.67523
  17597021.036    -7570418.746 4  -5548696.60121
  17398212.614   -30584933.879 5 -21053456.05821
 92  5 28  1  1 29.9770000  0  6G12G16G24G20G 3G13
  15651813.614   -35108756.548 6 -27252503.37221
  15584285.435   -22470316.673 6 -17207232.40122
  14133138.9114  -42155696.47847 -32389416.09164
  14817353.880   -26899953.427 7 -20851728.86923
  17577295.763    -7674073.871 4  -5629466.65321
  17403548.1694  -30556882.48645 -21031597.88061
 92  5 28  1  1 59.9770000  0  6G12G16G24G20G 3G13
  15661475.341   -35057986.058 6 -27212942.03921
  15563006.810   -22582129.411 6 -17294359.11022
  14134988.4354  -42145971.51947 -32381838.20564
  14795882.052   -27012797.710 7 -20939659.43323
  17557596.154    -7777606.549 4  -5710141.30421
  17408887.747   -30528826.683 5 -21009736.30221
 92  5 28  1  2 29.9770000  0  6G12G16G24G20G 3G13
  15671212.239   -35006823.738 6 -27173075.38821
  15541801.435   -22693573.466 6 -17381198.53622
  14136917.4194  -42135836.68947 -32373940.94064
  14774481.669   -27125246.798 7 -21027282.05223
  17537917.794    -7881003.668 4  -5790710.32921
  17414231.6224  -30500752.83845 -20987860.67461
 92  5 28  1  2 59.9770000  0  6G12G16G24G20G 3G13
  15681020.2864  -34955278.89346 -27132910.66261
  15520663.614   -22804646.872 6 -17467749.14822
  14138922.9434  -42125298.05247 -32365729.00764
  14753158.716   -27237304.120 7 -21114599.39723
  17518265.950    -7984272.272 4  -5871179.19121
  17419574.9114  -30472666.75745 -20965975.48861
 92  5 28  1  3 29.9770000  0  6G12G16G24G20G 3G13
  15690903.935   -34903347.272 6 -27092444.55721
  15499602.091   -22915322.635 6 -17553989.90522
  14141008.0834  -42114339.49547 -32357189.88264
  14731912.247   -27348959.528 7 -21201603.57223
  17498642.724    -8087404.994 4  -5951542.18821
  17424923.419   -30444561.026 5 -20944074.99321
 92  5 28  1  3 59.9770000  0  6G12G16G24G20G 3G13
  15700858.536   -34851027.710 6 -27051676.15521
  15478621.333   -23025593.071 6 -17639914.81622
  14143172.0444  -42102967.98147 -32348328.96464
  14710739.927   -27460206.283 7 -21288289.30723
  17479042.685    -8190398.543 4  -6031796.72621
  17430276.2714  -30416431.26745 -20922155.75461
 92  5 28  1  4 29.9770000  0  6G12G16G24G20G 3G13
  15710886.6304  -34798327.63646 -27010611.26061
  15457712.739   -23135451.072 6 -17725518.35522
  14145412.0834  -42091195.34747 -32339155.48364
  14689649.810   -27571045.841 7 -21374657.75223
  17459466.8724   -8293257.43344  -6111946.34361
  17435633.3884  -30388281.46745 -20900220.88661
 92  5 28  1  4 59.9770000  0  6G12G16G24G20G 3G13
  15720989.107   -34745240.677 6 -26969244.88821
  15436889.849   -23244880.876 6 -17810788.23522
  14147730.1384  -42079013.72347 -32329663.31264
  14668638.005   -27681466.524 7 -21460699.80523
  17439920.0364   -8395972.65944  -6191984.03061
  17440995.5214  -30360102.01845 -20878262.94361
 92  5 28  1  5 29.9770000  0  6G12G16G24G20G 3G13
  15731163.833   -34691774.846 6 -26927583.29621
  15416148.021   -23353891.735 6 -17895731.66422
  14150122.1774  -42066447.14747 -32319871.17864
  14647703.357   -27791470.632 7 -21546417.24823
  17420404.9114   -8498549.46044  -6271913.84661
  17446361.630   -30331897.381 5 -20856285.34721
 92  5 28  1  5 59.9770000  0  6G12G16G24G20G 3G13
  15741411.825   -34637923.346 6 -26885621.18021
  15395481.247   -23462472.807 6 -17980340.19822
  14152586.3884  -42053493.28547 -32309777.26564
  14626853.622   -27901045.670 7 -21631800.35823
  17400913.568    -8600978.580 4  -6351728.61921
  17451735.052   -30303657.271 5 -20834280.14321
 92  5 28  1  6 29.9770000  0  6G12G16G24G20G 3G13
  15751730.466   -34583700.049 6 -26843369.35821
  15374905.060   -23570615.785 6 -18064607.36322
  14155123.8724  -42040161.53847 -32299388.89264
  14606081.130   -28010199.680 7 -21716855.39523
  17381444.294    -8703271.135 4  -6431436.95821
  17457115.2324  -30275392.48245 -20812255.70761
 92  5 28  1  6 59.9770000  0  6G12G16G24G20G 3G13
  15762118.005   -34529113.337 6 -26800834.35721
  15354411.200   -23678318.459 6 -18148531.42722
  14157730.3884  -42026462.69347 -32288714.46864
  14585387.982   -28118935.273 7 -21801584.39323
  17362002.3024   -8805432.66544  -6511043.17361
  17462499.904   -30247107.760 5 -20790215.74821
 92  5 28  1  7 29.9770000  0  6G12G16G24G20G 3G13
  15772573.536   -34474163.207 6 -26758016.17821
  15333994.966   -23785580.989 6 -18232112.52322
  14160406.9194  -42012397.77347 -32277754.79664
  14564779.474   -28227246.441 7 -21885982.67123
  17342586.2394   -8907460.42744  -6590545.17061
  17467887.763   -30218799.474 5 -20768157.40021
 92  5 28  1  7 59.9770000  0  6G12G16G24G20G 3G13
  15783101.997   -34418846.824 6 -26714912.60721
  15313672.114   -23892387.458 6 -18315338.25022
  14163157.2714  -41997943.93547 -32266492.06864
  14544250.802   -28335125.105 7 -21970043.93923
  17323197.005    -9009349.117 4  -6669938.79021
  17473280.7714  -30190461.53345 -20746075.97361
 92  5 28  1  8 29.9770000  0  6G12G16G24G20G 3G13
  15793695.575   -34363171.560 6 -26671529.39421
  15293436.849   -23998742.603 6 -18398212.30322
  14165979.9034  -41983111.02647 -32254933.96564
  14523802.099   -28442572.596 7 -22053769.22523
  17303838.3724   -9111103.08844  -6749227.44261
  17478677.310   -30162098.171 5 -20723974.72721
 92  5 28  1  8 59.9770000  0  6G12G16G24G20G 3G13
  15804357.3184  -34307143.12646 -26627870.98661
  15273274.7394  -24104673.06046 -18480755.43562
  14168875.9194  -41967894.39947 -32243076.85664
  14503438.622   -28549588.792 7 -22137158.43823
  17284494.1304   -9212725.67244  -6828413.67361
  17484076.3494  -30133711.67545 -20701855.43361
 92  5 28  1  9 29.9770000  0  6G12G16G24G20G 3G13
  15815085.833   -34250761.281 6 -26583937.19621
  15253194.7084  -24210191.42246 -18562977.45962
  14171847.9974  -41952273.82647 -32230904.98964
  14483158.560   -28656167.749 7 -22220206.95223
  17265186.607    -9314213.690 4  -6907495.08121
  17489482.5834  -30105298.25745 -20679715.16961
 92  5 28  1  9 59.9770000  0  6G12G16G24G20G 3G13
  15825883.396   -34194026.785 6 -26539728.61221
  15233199.0284  -24315288.08246 -18644870.88062
  14174897.9354  -41936244.81947 -32218414.85864
  14462958.739   -28762304.567 7 -22302910.93923
  17245900.341    -9415565.189 4  -6986470.08521
  17494895.896   -30076854.851 5 -20657551.56221
 92  5 28  1 10 29.9770000  0  6G12G16G24G20G 3G13
  15836745.1144  -34136944.00946 -26495248.64261
  15213276.8724  -24419968.95346 -18726440.31462
  14178026.7084  -41919807.10947 -32205606.26364
  14442846.849   -28867998.202 7 -22385269.58723
  17226641.911    -9516781.945 4  -7065340.10721
  17500313.0364  -30048382.78745 -20635365.60061
 92  5 28  1 10 59.9770000  0  7G12G16G24G20G 3G25G13
  15847675.513   -34079506.501 6 -26450492.25621
  15193435.8254  -24524225.70546 -18807679.26462
  14181234.5834  -41902947.92747 -32192469.24764
  14422822.107   -28973236.012 7 -22467273.05023
  17207406.6694   -9617854.68244  -7144097.90661
  18209106.6614         -0.65053
  17505740.708   -30019871.946 5
 92  5 28  1 11 29.9770000  0  7G12G16G24G20G 3G25G13
  15858671.099   -34021729.095 6 -26405471.01321
  15173683.9744  -24628045.69346 -18888577.88362
  14184515.4584  -41885706.34447 -32179034.25964
  14402878.739   -29078026.984 7 -22548928.32623
  17188195.4434   -9718795.18344  -7222752.67161
  18190883.4664     -95752.99044
  17511169.146   -29991333.192 5        -0.03231
 92  5 28  1 11 59.9760000  0  7G12G16G24G20G 3G25G13
  15869729.3674  -33963610.36346 -26360183.80861
  15154013.3284  -24731390.63946 -18969106.33762
  14187864.8524  -41868106.36947 -32165320.00664
  14383026.680   -29182358.868 7 -22630225.86423
  17169012.1804   -9819594.47144  -7301297.40961
  18172756.641     -191002.782 3        -0.21131
  17516606.024   -29962761.233 5     22263.78921
 92  5 28  1 12 29.9760000  0  7G12G16G24G20G 3G25G13
  15880856.6724  -33905140.85146 -26314623.27061
  15134440.2744  -24834262.49346 -19049266.14862
  14191281.5704  -41850150.83747 -32151328.69464
  14363261.500   -29286227.153 7 -22711162.15923
  17149857.508    -9920250.838 4  -7379730.76621
  18154728.2894    -285749.59043    -73828.91861
  17522051.203   -29934144.713 5     44562.29621
 92  5 28  1 12 59.9760000  0  7G12G16G24G20G 3G25G13
  15892049.3914  -33846322.64146 -26268791.02461
  15114959.5474  -24936643.15346 -19129043.20662
  14194763.6024  -41831853.31247 -32137070.89364
  14343584.133   -29389622.376 7 -22791729.83123
  17130730.735   -10020758.258 4  -7458048.07921
  18136794.195     -379966.665 3   -147244.85721
  17527509.656   -29905481.634 5     66897.10021
 92  5 28  1 13 29.9760000  0  7G12G16G24G20G 3G25G13
  15903305.2114  -33787176.90046 -26222703.55261
  15095564.7974  -25038538.92146 -19208442.42962
  14198306.4774  -41813235.64547 -32122563.63264
  14323997.867   -29492560.416 7 -22871941.25023
  17111633.555   -10121135.166 4  -7536263.69621
  18118970.078     -473646.301 3   -220241.98721
  17532967.6414  -29876789.32145     89254.70961
 92  5 28  1 13 59.9760000  0  7G12G16G24G20G 3G25G13
  15914623.7664  -33727693.95146 -26176353.33561
  15076269.0944  -25139944.20346 -19287459.45662
  14201917.3054  -41794260.01847 -32107777.44564
  14304499.055   -29595025.945 7 -22951784.47823
  17092553.547   -10221369.270 4  -7614368.04721
  18101253.1954    -566762.86543   -292800.33761
  17538436.617   -29848054.458 5    111645.45021
 92  5 28  1 14 29.9760000  0  7G12G16G24G20G 3G25G13
  15926008.2584  -33667873.23846 -26129739.91661
  15057070.6804  -25240853.94046 -19366090.34462
  14205601.6564  -41774897.03847 -32092689.42664
  14285089.656   -29697012.430 7 -23031254.42023
  17073513.477   -10321457.090 4  -7692358.41521
  18083640.086     -659307.027 3   -364912.68221
  17543914.1254  -29819272.85445    134072.62161
 92  5 28  1 14 59.9760000  0  7G12G16G24G20G 3G25G13
  15937452.5944  -33607727.26146 -26082873.04461
  15037957.1564  -25341271.86946 -19444338.00362
  14209359.6564  -41755150.68547 -32077302.67664
  14265773.094   -29798527.118 7 -23110356.72823
  17054493.281   -10421408.287 4  -7770242.29621
  18066141.992     -751288.945 3   -436586.90621
  17549400.360   -29790453.529 5    156529.17521
 92  5 28  1 15 29.9760000  0  7G12G16G24G20G 3G25G13
  15948961.945   -33547246.651 6 -26035745.42921
  15018939.5314  -25441194.94146
  14213193.2504  -41735006.78547 -32061606.14864
  14246549.313   -29899554.574 7 -23189079.37623
  17035496.820   -10521210.807 4
  18048741.570     -842714.353 3   -507827.49021
  17554892.656   -29761583.509 5    179025.21421
 92  5 28  1 15 59.9760000  0  7G12G16G24G20G 3G25G13
  15960532.2194  -33486443.37246 -25988366.37561
  15000021.9224  -25540635.04746 -19599685.79162
  14217100.8444  -41714470.21747 -32045603.64464
  14227414.5314  -30000100.61747 -23267426.88763
  17016536.7274  -10620873.74645  -7925669.62161
  18031443.7114    -933608.47743   -578654.01761
  17560392.9304  -29732670.90944
 92  5 28  1 16 29.9760000  0  7G12G16G24G20G 3G25G13
  15972164.6494  -33425317.68946 -25940736.11661
  14981191.9454  -25639588.27746 -19676792.12762
  14221081.5944  -41693556.32347 -32029307.12064
  14208373.5244  -30100159.97547 -23345395.16563
  16997590.195   -10720394.809 5  -8003218.35321
  18014249.8204   -1023970.34443   -649065.87161
  17565903.0474  -29703712.71044
 92  5 28  1 16 59.9760000  0  7G12G16G24G20G 3G25G13
  15983855.8444  -33363881.08646 -25892863.56861
  14962445.8134  -25738079.64846 -19753538.57662
  14225127.5474  -41672290.87747 -32012736.66364
  14189426.1024  -30199738.40747
  16978682.6644  -10819782.26144
  17997154.8284   -1113811.36643   -719071.86261
  17571419.985   -29674716.764 4        -0.12231
 92  5 28  1 17 29.9760000  0  7G12G16G24G20G 3G25G13
  15995603.8364  -33302142.90846 -25844756.03861
  14943794.3604  -25836105.79646 -19829922.51162
  14229241.2274  -41650672.64548 -31995891.30264
  14170567.7114  -30298839.64747 -23500210.38563
  16959794.016   -10919042.921 4  -8158008.84921
  17980156.0164   -1203125.84543
  17576946.063   -29645688.920 4     22618.93321
 92  5 28  1 17 59.9760000  0  7G12G16G24G20G 3G25G13
  16007411.9304  -33240092.09746 -25796404.89161
  14925237.8204  -25933636.74546 -19905920.57962
  14233424.5554  -41628688.64548 -31978760.93064
  14151800.797   -30397447.005 7 -23577047.23523
  16940933.6174  -11018163.28345  -8235245.36861
  17963265.8674   -1291887.29743        -0.30871
  17582480.1564  -29616614.10444     45274.57161
 92  5 28  1 18 29.9760000  0  7G12G16G24G20G 3G25G13
  16019280.000   -33177731.562 6 -25747812.40721
  14906767.8204  -26030673.12846 -19981533.27262
  14237675.2664  -41606348.53147 -31961353.06964
  14133132.211   -30495557.616 7 -23653497.01523
  16922098.508   -11117143.100 5  -8312372.37121
  17946479.8754   -1380093.39543    -68732.32961
  17588020.289   -29587491.875 4     67967.12821
 92  5 28  1 18 59.9760000  0  7G12G16G24G20G 3G25G13
  16031202.5164  -33115068.20946 -25698983.95461
  14888395.7814  -26127218.58946 -20056763.42362
  14241993.7584  -41583658.91948 -31943672.87264
  14114557.891   -30593172.832 7 -23729560.77123
  16903289.4924  -11215986.40645  -8389393.01061
  17929803.0634   -1467748.50743   -137034.99661
  17593567.0864  -29558325.64844     90693.93361
 92  5 28  1 19 29.9760000  0  7G12G16G24G20G 3G25G13
  16043183.2664  -33052111.21446 -25649926.68961
  14870122.0704  -26223269.49646 -20131608.20862
  14246375.8914  -41560629.30448 -31925727.73864
  14096074.508   -30690296.164 7 -23805241.24323
  16884502.8994  -11314699.72645  -8466312.35361
  17913226.711    -1554851.232 3   -204907.24521
  17599126.594   -29529120.805 4    113450.91821
 92  5 28  1 19 59.9760000  0  8G12G16G24G20G 3G25G13G17
  16055221.1334  -32988853.19846 -25600634.87561
  14851936.406   -26318825.142 6 -20206067.07222
  14250822.1254  -41537266.62048 -31907523.06664
  14077689.383   -30786914.172 7 -23880527.95823
  16865741.7114  -11413272.73945  -8543122.36361
  17896755.7814   -1641391.97343   -272341.54661
  17604694.578   -29499865.600 4    136247.07521
  18279576.7744         -0.20652
 92  5 28  1 20 29.9760000  0  8G12G16G24G20G 3G25G13G17
  16067314.2584  -32925302.67346 -25551115.12661
  14833842.9614  -26413894.52946 -20280147.03162
  14255330.1104  -41513574.34748 -31889061.57264
  14059399.774   -30883030.167 7 -23955423.49723
  16847014.102   -11511711.445 5  -8619827.71821
  17880391.6104   -1727377.06843   -339342.90261
  17610273.2194  -29470565.63244    159078.13761
  18252888.6334    -140246.90242
 92  5 28  1 20 59.9760000  0  8G12G16G24G20G 3G25G13G17
  16079463.930   -32861458.799 6 -25501366.80021
  14815851.0244  -26508456.12547 -20353831.31562
  14259904.3524  -41489539.18547 -31870332.89364
  14041204.086   -30978637.080 7 -24029922.35323
  16828306.7744  -11610011.79945  -8696425.27261
  17864139.6104   -1812797.05743   -405903.91561
  17615854.1104  -29441215.80544    181948.05361
  18226232.680     -280318.875 2
 92  5 28  1 21 29.9760000  0  8G12G16G24G20G 3G25G13G17
  16091667.3674  -32797334.82746 -25451400.20961
  14797954.4924  -26602503.55747 -20427114.95462
  14264541.9454  -41465164.01147 -31851339.26564
  14023106.867   -31073742.544 7 -24104030.47223
  16809622.7424  -11708184.45545  -8772923.33761
  17847990.7664   -1897655.61843   -472027.45361
  17621447.7194  -29411826.20144    204848.93761
  18199604.922     -420247.588 3        -0.01031
 92  5 28  1 21 59.9760000  0  8G12G16G24G20G 3G25G13G17
  16103924.711   -32732917.834 6 -25401205.29221
  14780160.7194  -26695998.12847 -20499967.79562
  14269249.9304  -41440423.46047 -31832060.93064
  14005108.531   -31168328.393 7 -24177733.70323
  16790970.789   -11806213.692 5  -8849309.64021
  17831952.7814   -1981938.21543   -537702.18661
  17627051.883   -29382380.035 4    227793.96621
  18173007.1494    -560008.86843   -108904.27861
 92  5 28  1 22 29.9760000  0  8G12G16G24G20G 3G25G13G17
  16116235.211   -32668224.501 6 -25350795.04321
  14762476.5314  -26788936.57247 -20572387.29262
  14274026.5314  -41415324.44747 -31812503.27864
  13987205.977   -31262405.409 7 -24251040.44123
  16772340.703   -11904113.245 5  -8925594.88021
  17816020.9144   -2065664.85343   -602943.73061
  17632661.4534  -29352890.20744
  18146444.680     -699597.421 2   -217673.94921
 92  5 28  1 22 59.9760000  0  8G12G16G24G20G 3G25G13G17
  16128601.633   -32603245.079 6 -25300161.86921
  14744902.6254  -26881302.83247 -20644360.93862
  14278871.9304  -41389861.21047 -31792661.81064
  13969401.508   -31355957.868 7 -24323938.43523
  16753738.8204  -12001870.56045  -9001769.28761
  17800198.867    -2148814.450 3   -667735.58221
  17638285.4304  -29323343.51444        -0.27171
  18119916.610     -838995.333 2   -326295.05521
 92  5 28  1 23 29.9760000  0  8G12G16G24G20G 3G25G13G17
  16141018.047   -32537995.041 6 -25249317.83021
  14727425.3674  -26973129.01147 -20715913.74062
  14283782.2354  -41364058.73447 -31772556.00264
  13951697.430   -31448995.631 7 -24396435.36323
  16735162.1494  -12099498.29545  -9077842.71861
  17784481.9064   -2231392.98943   -732082.50661
  17643915.750   -29293751.659 4     23058.28321
  18093425.7664    -978209.79243   -434773.21361
 92  5 28  1 23 59.9760000  0  8G12G16G24G20G 3G25G13G17
  16153485.485   -32472473.687 6 -25198262.37521
  14710050.3134  -27064426.29847 -20787054.42263
  14288756.3604  -41337920.16047 -31752188.30564
  13934094.297   -31541512.628 7 -24468526.50523
  16716607.711   -12196993.009 5  -9153812.50621
  17768876.055    -2313405.366 3   -795988.25321
  17649558.6884  -29264109.89544     46155.64961
  18066969.6884   -1117231.01743   -543100.74661
 92  5 28  1 24 29.9760000  0  8G12G16G24G20G 3G25G13G17
  16166003.727   -32406689.474 6 -25147002.10221
  14692771.8604  -27155227.99547 -20857808.92563
  14293790.3754  -41311465.19247 -31731574.06064
  13916586.930   -31633511.800 7 -24540214.14523
  16698078.008   -12294360.226 5  -9229682.94121
  17753380.0944   -2394851.88643   -859453.09061
  17655211.3204  -29234423.19144     69288.04561
  18040548.3834   -1256082.17343   -651295.83561
 92  5 28  1 24 59.9760000  0  8G12G16G24G20G 3G25G13G17
  16178574.727   -32340627.682 6 -25095525.54421
  14675591.7894  -27245525.37347 -20928170.45363
  14298886.3914  -41284684.10147 -31710705.69864
  13899181.617   -31724972.519 7 -24611482.20923
  16679577.9454  -12391582.48445  -9305440.42561
  17737992.016    -2475713.618 3   -922462.20521
  17660872.3284  -29204673.56844     92469.48861
  18014159.828    -1394749.865 3   -759347.93021
 92  5 28  1 25 29.9760000  0  8G12G16G24G20G 3G25G13G17
  16191199.570   -32274295.008 6 -25043837.90221
  14658506.2664  -27335307.96647 -20998130.85663
  14304045.5004  -41257573.36947 -31689580.47064
  13881879.195   -31815895.985 7 -24682331.64323
  16661102.7504  -12488663.32545  -9381087.69861
  17722713.563    -2556010.325 3   -985031.07021
  17666540.922   -29174863.434 3    115698.09321
  17987804.5244   -1533235.39043   -867258.06961
 92  5 28  1 25 59.9760000  0  8G12G16G24G20G 3G25G13G17
  16203871.235   -32207701.135 6 -24991946.73221
  14641519.8054  -27424553.63247 -21067672.87663
  14309266.4454  -41230139.99647 -31668203.83264
  13864679.758   -31906286.314 7 -24752765.63523
  16642656.1804  -12585610.17445  -9456630.55961
  17707537.9064   -2635760.05943  -1047173.68561
  17672224.883   -29144998.503 3    138969.40621
  17961487.6104   -1671535.46943   -975023.75061
